Wetterdaten: aktuell Sonntag, 16.12.2018 11:25
Datum Zeit Temp. I. Temp. 2m Temp. 5cm Temp. -10cm Feuchte I. Feuchte A. Luftdruck Regen Wind Richtung Richtung ET Solar Taupunkt Windchill Windben Empfang
16.12.2018 11:25 25,9 C -2,4 C -1,1 C 0,0 C 33 % 82 % 1019,2 hPa 0,0 l/m 4,8 km/h (1 Bft) S-SO 157 0,000 mm 153 W/m -5,0 C -2,4 C 8,0 km/h (2 Bft) 100,00 %
16.12.2018 11:24 26,0 C -2,4 C -1,1 C 0,0 C 33 % 82 % 1019,2 hPa 0,0 l/m 6,4 km/h (2 Bft) SO 135 0,000 mm 156 W/m -5,0 C -2,4 C 9,7 km/h (2 Bft) 100,00 %
16.12.2018 11:23 25,9 C -2,4 C -0,6 C 0,0 C 33 % 83 % 1019,2 hPa 0,0 l/m 8,0 km/h (2 Bft) S-SO 157 0,000 mm 158 W/m -4,9 C -4,2 C 11,3 km/h (2 Bft) 100,00 %
16.12.2018 11:22 25,9 C -2,4 C -0,6 C 0,0 C 33 % 83 % 1019,1 hPa 0,0 l/m 3,2 km/h (1 Bft) O 90 0,000 mm 160 W/m -4,9 C -2,4 C 4,8 km/h (1 Bft) 100,00 %
16.12.2018 11:21 25,9 C -2,4 C -1,1 C 0,0 C 33 % 83 % 1019,2 hPa 0,0 l/m 4,8 km/h (1 Bft) O-SO 112 0,000 mm 162 W/m -4,9 C -2,4 C 9,7 km/h (2 Bft) 100,00 %
16.12.2018 11:20 25,9 C -2,4 C -1,1 C 0,0 C 33 % 83 % 1019,0 hPa 0,0 l/m 3,2 km/h (1 Bft) O 90 0,000 mm 162 W/m -4,9 C -2,4 C 4,8 km/h (1 Bft) 100,00 %
16.12.2018 11:19 25,9 C -2,4 C -1,1 C 0,0 C 33 % 83 % 1019,1 hPa 0,0 l/m 4,8 km/h (1 Bft) O-SO 112 0,000 mm 160 W/m -4,9 C -2,4 C 6,4 km/h (2 Bft) 95,65 %
16.12.2018 11:18 25,9 C -2,4 C -1,1 C 0,0 C 33 % 83 % 1019,1 hPa 0,0 l/m 8,0 km/h (2 Bft) O-SO 112 0,000 mm 158 W/m -4,9 C -4,2 C 11,3 km/h (2 Bft) 100,00 %
16.12.2018 11:17 25,9 C -2,4 C -1,1 C 0,0 C 33 % 83 % 1019,1 hPa 0,0 l/m 8,0 km/h (2 Bft) SO 135 0,000 mm 160 W/m -4,9 C -4,2 C 11,3 km/h (2 Bft) 100,00 %
16.12.2018 11:16 25,9 C -2,5 C -1,1 C 0,0 C 33 % 83 % 1019,1 hPa 0,0 l/m 11,3 km/h (2 Bft) S-SO 157 0,000 mm 165 W/m -5,0 C -7,3 C 17,7 km/h (3 Bft) 95,65 %
16.12.2018 11:15 25,9 C -2,4 C -1,1 C 0,0 C 33 % 83 % 1019,1 hPa 0,0 l/m 3,2 km/h (1 Bft) SO 135 0,000 mm 169 W/m -4,9 C -2,4 C 4,8 km/h (1 Bft) 100,00 %
16.12.2018 11:14 25,9 C -2,5 C -1,1 C 0,0 C 33 % 83 % 1019,2 hPa 0,0 l/m 3,2 km/h (1 Bft) SO 135 0,000 mm 171 W/m -5,0 C -2,5 C 4,8 km/h (1 Bft) 100,00 %
16.12.2018 11:13 25,9 C -2,4 C -1,1 C 0,0 C 33 % 83 % 1019,1 hPa 0,0 l/m 6,4 km/h (2 Bft) O 90 0,000 mm 167 W/m -4,9 C -2,4 C 11,3 km/h (2 Bft) 100,00 %
16.12.2018 11:12 25,9 C -2,4 C -1,1 C 0,0 C 33 % 83 % 1019,2 hPa 0,0 l/m 11,3 km/h (2 Bft) S-SO 157 0,000 mm 155 W/m -4,9 C -7,2 C 12,9 km/h (3 Bft) 100,00 %
16.12.2018 11:11 25,9 C -2,5 C -1,1 C 0,0 C 33 % 83 % 1019,1 hPa 0,0 l/m 6,4 km/h (2 Bft) S 180 0,000 mm 149 W/m -5,0 C -2,5 C 12,9 km/h (3 Bft) 100,00 %
16.12.2018 11:10 25,9 C -2,5 C -1,1 C 0,0 C 33 % 83 % 1019,2 hPa 0,0 l/m 3,2 km/h (1 Bft) S 180 0,000 mm 144 W/m -5,0 C -2,5 C 6,4 km/h (2 Bft) 100,00 %
16.12.2018 11:09 25,9 C -2,5 C -1,1 C 0,0 C 33 % 83 % 1019,2 hPa 0,0 l/m 6,4 km/h (2 Bft) O-SO 112 0,000 mm 141 W/m -5,0 C -2,5 C 9,7 km/h (2 Bft) 100,00 %
16.12.2018 11:08 25,9 C -2,4 C -1,1 C 0,0 C 33 % 83 % 1019,3 hPa 0,0 l/m 8,0 km/h (2 Bft) S-SO 157 0,000 mm 135 W/m -4,9 C -4,2 C 12,9 km/h (3 Bft) 100,00 %
16.12.2018 11:07 25,9 C -2,4 C -1,1 C 0,0 C 33 % 83 % 1019,3 hPa 0,0 l/m 8,0 km/h (2 Bft) S-SO 157 0,000 mm 135 W/m -4,9 C -4,2 C 11,3 km/h (2 Bft) 100,00 %
16.12.2018 11:06 25,9 C -2,4 C -1,1 C 0,0 C 33 % 83 % 1019,2 hPa 0,0 l/m 4,8 km/h (1 Bft) O-SO 112 0,000 mm 134 W/m -4,9 C -2,4 C 8,0 km/h (2 Bft) 100,00 %
16.12.2018 11:05 25,9 C -2,4 C -1,1 C 0,0 C 33 % 83 % 1019,2 hPa 0,0 l/m 4,8 km/h (1 Bft) O 90 0,000 mm 134 W/m -4,9 C -2,4 C 6,4 km/h (2 Bft) 100,00 %
16.12.2018 11:04 25,9 C -2,4 C -1,1 C 0,0 C 33 % 84 % 1019,1 hPa 0,0 l/m 3,2 km/h (1 Bft) SO 135 0,000 mm 134 W/m -4,7 C -2,4 C 6,4 km/h (2 Bft) 100,00 %
16.12.2018 11:03 25,8 C -2,4 C -1,1 C 0,0 C 33 % 83 % 1019,1 hPa 0,0 l/m 4,8 km/h (1 Bft) S-SO 157 0,000 mm 135 W/m -4,9 C -2,4 C 6,4 km/h (2 Bft) 100,00 %
16.12.2018 11:02 25,8 C -2,4 C -1,1 C 0,0 C 33 % 83 % 1019,1 hPa 0,0 l/m 6,4 km/h (2 Bft) SO 135 0,000 mm 135 W/m -4,9 C -2,4 C 8,0 km/h (2 Bft) 95,65 %
16.12.2018 11:01 25,8 C -2,4 C -1,1 C 0,0 C 33 % 83 % 1019,1 hPa 0,0 l/m 6,4 km/h (2 Bft) S-SO 157 0,000 mm 139 W/m -4,9 C -2,4 C 9,7 km/h (2 Bft) 100,00 %
16.12.2018 11:00 25,8 C -2,4 C -1,1 C 0,0 C 33 % 83 % 1019,0 hPa 0,0 l/m 8,0 km/h (2 Bft) S-SO 157 0,051 mm 142 W/m -4,9 C -4,2 C 11,3 km/h (2 Bft) 100,00 %
16.12.2018 10:59 25,8 C -2,4 C -1,1 C 0,0 C 33 % 83 % 1019,2 hPa 0,0 l/m 8,0 km/h (2 Bft) S-SO 157 0,000 mm 144 W/m -4,9 C -4,2 C 14,5 km/h (3 Bft) 95,65 %
16.12.2018 10:58 25,8 C -2,4 C -0,6 C 0,0 C 33 % 84 % 1019,0 hPa 0,0 l/m 9,7 km/h (2 Bft) S-SO 157 0,000 mm 149 W/m -4,7 C -5,8 C 11,3 km/h (2 Bft) 95,65 %
16.12.2018 10:57 25,8 C -2,4 C -0,6 C 0,0 C 33 % 84 % 1019,1 hPa 0,0 l/m 11,3 km/h (2 Bft) S-SO 157 0,000 mm 158 W/m -4,7 C -7,2 C 14,5 km/h (3 Bft) 100,00 %
16.12.2018 10:56 25,8 C -2,4 C 0,0 C 0,0 C 33 % 84 % 1019,1 hPa 0,0 l/m 3,2 km/h (1 Bft) SO 135 0,000 mm 167 W/m -4,7 C -2,4 C 4,8 km/h (1 Bft) 100,00 %
16.12.2018 10:55 25,8 C -2,4 C -0,6 C 0,0 C 33 % 84 % 1019,1 hPa 0,0 l/m 4,8 km/h (1 Bft) O-SO 112 0,000 mm 178 W/m -4,7 C -2,4 C 8,0 km/h (2 Bft) 100,00 %
16.12.2018 10:54 25,8 C -2,4 C 0,0 C 0,0 C 33 % 84 % 1019,0 hPa 0,0 l/m 6,4 km/h (2 Bft) O-SO 112 0,000 mm 190 W/m -4,7 C -2,4 C 11,3 km/h (2 Bft) 95,65 %
16.12.2018 10:53 25,8 C -2,4 C 0,0 C 0,0 C 33 % 84 % 1019,0 hPa 0,0 l/m 4,8 km/h (1 Bft) O-SO 112 0,000 mm 211 W/m -4,7 C -2,4 C 9,7 km/h (2 Bft) 100,00 %
16.12.2018 10:52 25,8 C -2,4 C 0,0 C 0,0 C 33 % 84 % 1019,1 hPa 0,0 l/m 4,8 km/h (1 Bft) S-SO 157 0,000 mm 213 W/m -4,7 C -2,4 C 6,4 km/h (2 Bft) 91,30 %
16.12.2018 10:51 25,9 C -2,4 C 0,0 C 0,0 C 33 % 85 % 1019,1 hPa 0,0 l/m 8,0 km/h (2 Bft) S-SO 157 0,000 mm 195 W/m -4,6 C -4,2 C 14,5 km/h (3 Bft) 100,00 %
16.12.2018 10:50 25,9 C -2,5 C 0,0 C 0,0 C 33 % 85 % 1019,1 hPa 0,0 l/m 4,8 km/h (1 Bft) O-SO 112 0,000 mm 221 W/m -4,7 C -2,5 C 11,3 km/h (2 Bft) 95,65 %
16.12.2018 10:49 25,9 C -2,5 C 0,6 C 0,0 C 33 % 85 % 1019,1 hPa 0,0 l/m 3,2 km/h (1 Bft) O-SO 112 0,000 mm 258 W/m -4,7 C -2,5 C 4,8 km/h (1 Bft) 100,00 %
16.12.2018 10:48 25,8 C -2,6 C 0,6 C 0,0 C 33 % 85 % 1019,1 hPa 0,0 l/m 6,4 km/h (2 Bft) O-SO 112 0,000 mm 272 W/m -4,8 C -2,6 C 9,7 km/h (2 Bft) 100,00 %
16.12.2018 10:47 25,8 C -2,6 C 0,6 C 0,0 C 34 % 85 % 1019,1 hPa 0,0 l/m 4,8 km/h (1 Bft) O-SO 112 0,000 mm 297 W/m -4,8 C -2,6 C 6,4 km/h (2 Bft) 91,30 %
16.12.2018 10:46 25,8 C -2,6 C 0,0 C 0,0 C 34 % 85 % 1019,1 hPa 0,0 l/m 6,4 km/h (2 Bft) O-SO 112 0,000 mm 283 W/m -4,8 C -2,6 C 9,7 km/h (2 Bft) 100,00 %
16.12.2018 10:45 25,8 C -2,6 C 0,6 C 0,0 C 33 % 85 % 1019,1 hPa 0,0 l/m 6,4 km/h (2 Bft) O-SO 112 0,000 mm 278 W/m -4,8 C -2,6 C 9,7 km/h (2 Bft) 86,96 %
16.12.2018 10:44 25,8 C -2,6 C 0,6 C 0,0 C 33 % 86 % 1019,2 hPa 0,0 l/m 3,2 km/h (1 Bft) O-SO 112 0,000 mm 302 W/m -4,6 C -2,6 C 6,4 km/h (2 Bft) 100,00 %
16.12.2018 10:43 25,8 C -2,6 C 0,0 C 0,0 C 33 % 86 % 1019,3 hPa 0,0 l/m 4,8 km/h (1 Bft) SO 135 0,000 mm 232 W/m -4,6 C -2,6 C 6,4 km/h (2 Bft) 95,65 %
16.12.2018 10:42 25,7 C -2,7 C 0,6 C 0,0 C 33 % 86 % 1019,4 hPa 0,0 l/m 3,2 km/h (1 Bft) O-SO 112 0,000 mm 253 W/m -4,7 C -2,7 C 4,8 km/h (1 Bft) 100,00 %
16.12.2018 10:41 25,8 C -2,7 C 0,6 C 0,0 C 33 % 86 % 1019,4 hPa 0,0 l/m 3,2 km/h (1 Bft) O-SO 112 0,000 mm 193 W/m -4,7 C -2,7 C 6,4 km/h (2 Bft) 100,00 %
16.12.2018 10:40 25,8 C -2,7 C 1,1 C 0,0 C 33 % 87 % 1019,4 hPa 0,0 l/m 3,2 km/h (1 Bft) O-SO 112 0,000 mm 178 W/m -4,6 C -2,7 C 4,8 km/h (1 Bft) 95,65 %
16.12.2018 10:39 25,7 C -2,7 C 1,1 C 0,0 C 33 % 87 % 1019,4 hPa 0,0 l/m 0,0 km/h (0 Bft) N 0 0,000 mm 186 W/m -4,6 C -2,7 C 0,0 km/h (0 Bft) 100,00 %
16.12.2018 10:38 25,7 C -2,7 C 1,7 C 0,0 C 33 % 87 % 1019,3 hPa 0,0 l/m 0,0 km/h (0 Bft) N 0 0,000 mm 209 W/m -4,6 C -2,7 C 0,0 km/h (0 Bft) 95,65 %
16.12.2018 10:37 25,7 C -2,8 C 1,7 C 0,0 C 33 % 87 % 1019,2 hPa 0,0 l/m 0,0 km/h (0 Bft) N 0 0,000 mm 260 W/m -4,7 C -2,8 C 0,0 km/h (0 Bft) 100,00 %
16.12.2018 10:36 25,7 C -2,8 C 1,1 C 0,0 C 33 % 87 % 1019,1 hPa 0,0 l/m 0,0 km/h (0 Bft) O 90 0,000 mm 260 W/m -4,7 C -2,8 C 1,6 km/h (1 Bft) 95,65 %
16.12.2018 10:35 25,7 C -2,9 C 1,1 C 0,0 C 33 % 87 % 1019,1 hPa 0,0 l/m 3,2 km/h (1 Bft) O 90 0,000 mm 295 W/m -4,8 C -2,9 C 4,8 km/h (1 Bft) 100,00 %
16.12.2018 10:34 25,8 C -2,9 C 1,1 C 0,0 C 33 % 88 % 1019,1 hPa 0,0 l/m 4,8 km/h (1 Bft) O 90 0,000 mm 345 W/m -4,6 C -2,9 C 6,4 km/h (2 Bft) 100,00 %
16.12.2018 10:33 25,8 C -2,9 C 1,1 C 0,0 C 33 % 88 % 1019,1 hPa 0,0 l/m 4,8 km/h (1 Bft) O 90 0,000 mm 327 W/m -4,6 C -2,9 C 6,4 km/h (2 Bft) 100,00 %
16.12.2018 10:32 25,7 C -3,1 C 0,6 C 0,0 C 33 % 88 % 1019,1 hPa 0,0 l/m 4,8 km/h (1 Bft) O 90 0,000 mm 353 W/m -4,8 C -3,1 C 4,8 km/h (1 Bft) 100,00 %
16.12.2018 10:31 25,7 C -3,1 C 0,0 C 0,0 C 33 % 88 % 1019,1 hPa 0,0 l/m 4,8 km/h (1 Bft) O 90 0,000 mm 274 W/m -4,8 C -3,1 C 4,8 km/h (1 Bft) 100,00 %
16.12.2018 10:30 25,6 C -3,2 C 0,0 C 0,0 C 33 % 88 % 1019,2 hPa 0,0 l/m 3,2 km/h (1 Bft) O-NO 67 0,000 mm 248 W/m -4,9 C -3,2 C 6,4 km/h (2 Bft) 100,00 %
16.12.2018 10:29 25,7 C -3,2 C -0,6 C 0,0 C 33 % 88 % 1019,3 hPa 0,0 l/m 3,2 km/h (1 Bft) O-NO 67 0,000 mm 200 W/m -4,9 C -3,2 C 3,2 km/h (1 Bft) 100,00 %
16.12.2018 10:28 25,7 C -3,3 C -1,1 C 0,0 C 33 % 88 % 1019,3 hPa 0,0 l/m 3,2 km/h (1 Bft) O-NO 67 0,000 mm 185 W/m -5,0 C -3,3 C 4,8 km/h (1 Bft) 100,00 %
16.12.2018 10:27 25,7 C -3,3 C -1,1 C 0,0 C 33 % 88 % 1019,5 hPa 0,0 l/m 3,2 km/h (1 Bft) O-NO 67 0,000 mm 183 W/m -5,0 C -3,3 C 4,8 km/h (1 Bft) 100,00 %
16.12.2018 10:26 25,7 C -3,3 C -1,1 C 0,0 C 33 % 88 % 1019,5 hPa 0,0 l/m 1,6 km/h (1 Bft) O-NO 67 0,000 mm 178 W/m -5,0 C -3,3 C 4,8 km/h (1 Bft) 100,00 %
16.12.2018 10:25 25,6 C -3,3 C -1,1 C 0,0 C 33 % 88 % 1019,5 hPa 0,0 l/m 1,6 km/h (1 Bft) O-NO 67 0,000 mm 155 W/m -5,0 C -3,3 C 4,8 km/h (1 Bft) 100,00 %
16.12.2018 10:24 25,7 C -3,4 C -1,1 C 0,0 C 33 % 88 % 1019,5 hPa 0,0 l/m 4,8 km/h (1 Bft) O-NO 67 0,000 mm 151 W/m -5,1 C -3,4 C 6,4 km/h (2 Bft) 100,00 %
16.12.2018 10:23 25,7 C -3,4 C -1,1 C 0,0 C 33 % 89 % 1019,5 hPa 0,0 l/m 4,8 km/h (1 Bft) O 90 0,000 mm 151 W/m -4,9 C -3,4 C 9,7 km/h (2 Bft) 100,00 %
16.12.2018 10:22 25,6 C -3,4 C -1,1 C 0,0 C 33 % 88 % 1019,5 hPa 0,0 l/m 3,2 km/h (1 Bft) O-SO 112 0,000 mm 151 W/m -5,1 C -3,4 C 6,4 km/h (2 Bft) 100,00 %
16.12.2018 10:21 25,7 C -3,4 C -1,7 C 0,0 C 33 % 88 % 1019,4 hPa 0,0 l/m 3,2 km/h (1 Bft) O-SO 112 0,000 mm 151 W/m -5,1 C -3,4 C 4,8 km/h (1 Bft) 100,00 %
16.12.2018 10:20 25,7 C -3,4 C -1,7 C 0,0 C 33 % 89 % 1019,3 hPa 0,0 l/m 4,8 km/h (1 Bft) O-SO 112 0,000 mm 151 W/m -4,9 C -3,4 C 6,4 km/h (2 Bft) 100,00 %
16.12.2018 10:19 25,7 C -3,4 C -1,7 C 0,0 C 33 % 89 % 1019,3 hPa 0,0 l/m 3,2 km/h (1 Bft) O 90 0,000 mm 149 W/m -4,9 C -3,4 C 6,4 km/h (2 Bft) 100,00 %
16.12.2018 10:18 25,7 C -3,5 C -1,7 C 0,0 C 33 % 89 % 1019,3 hPa 0,0 l/m 3,2 km/h (1 Bft) O 90 0,000 mm 148 W/m -5,0 C -3,5 C 6,4 km/h (2 Bft) 95,65 %
16.12.2018 10:17 25,7 C -3,6 C -1,7 C 0,0 C 33 % 89 % 1019,2 hPa 0,0 l/m 3,2 km/h (1 Bft) O-NO 67 0,000 mm 146 W/m -5,1 C -3,6 C 4,8 km/h (1 Bft) 100,00 %
16.12.2018 10:16 25,7 C -3,6 C -1,7 C 0,0 C 33 % 89 % 1019,2 hPa 0,0 l/m 4,8 km/h (1 Bft) O-NO 67 0,000 mm 144 W/m -5,1 C -3,6 C 6,4 km/h (2 Bft) 95,65 %
16.12.2018 10:15 25,7 C -3,7 C -1,7 C 0,0 C 33 % 89 % 1019,2 hPa 0,0 l/m 4,8 km/h (1 Bft) O 90 0,000 mm 144 W/m -5,2 C -3,7 C 6,4 km/h (2 Bft) 100,00 %
16.12.2018 10:14 25,6 C -3,7 C -1,7 C 0,0 C 33 % 89 % 1019,2 hPa 0,0 l/m 4,8 km/h (1 Bft) O 90 0,000 mm 142 W/m -5,2 C -3,7 C 6,4 km/h (2 Bft) 95,65 %
16.12.2018 10:13 25,6 C -3,7 C -1,7 C 0,0 C 33 % 89 % 1019,3 hPa 0,0 l/m 6,4 km/h (2 Bft) O 90 0,000 mm 144 W/m -5,2 C -3,6 C 6,4 km/h (2 Bft) 100,00 %
16.12.2018 10:12 25,6 C -3,7 C -1,7 C 0,0 C 33 % 89 % 1019,3 hPa 0,0 l/m 4,8 km/h (1 Bft) O 90 0,000 mm 160 W/m -5,2 C -3,7 C 6,4 km/h (2 Bft) 100,00 %
16.12.2018 10:11 25,6 C -3,8 C -1,7 C 0,0 C 33 % 89 % 1019,2 hPa 0,0 l/m 4,8 km/h (1 Bft) O-NO 67 0,000 mm 174 W/m -5,3 C -3,8 C 6,4 km/h (2 Bft) 100,00 %
16.12.2018 10:10 25,6 C -3,9 C -1,7 C 0,0 C 33 % 89 % 1019,2 hPa 0,0 l/m 4,8 km/h (1 Bft) O 90 0,000 mm 165 W/m -5,4 C -3,9 C 4,8 km/h (1 Bft) 100,00 %
16.12.2018 10:09 25,6 C -4,0 C -2,2 C 0,0 C 33 % 89 % 1019,3 hPa 0,0 l/m 3,2 km/h (1 Bft) O 90 0,000 mm 151 W/m -5,5 C -4,0 C 4,8 km/h (1 Bft) 100,00 %
16.12.2018 10:08 25,6 C -4,0 C -2,2 C 0,0 C 33 % 88 % 1019,2 hPa 0,0 l/m 4,8 km/h (1 Bft) O 90 0,000 mm 135 W/m -5,7 C -4,0 C 6,4 km/h (2 Bft) 100,00 %
16.12.2018 10:07 25,6 C -4,0 C -2,2 C 0,0 C 33 % 88 % 1019,3 hPa 0,0 l/m 6,4 km/h (2 Bft) O 90 0,000 mm 123 W/m -5,7 C -3,9 C 11,3 km/h (2 Bft) 100,00 %
16.12.2018 10:06 25,6 C -4,1 C -2,8 C 0,0 C 33 % 88 % 1019,3 hPa 0,0 l/m 6,4 km/h (2 Bft) O-NO 67 0,000 mm 120 W/m -5,8 C -4,0 C 8,0 km/h (2 Bft) 100,00 %
16.12.2018 10:05 25,6 C -4,1 C -2,8 C 0,0 C 33 % 88 % 1019,4 hPa 0,0 l/m 6,4 km/h (2 Bft) O-NO 67 0,000 mm 116 W/m -5,8 C -4,0 C 8,0 km/h (2 Bft) 100,00 %
16.12.2018 10:04 25,6 C -4,1 C -2,8 C 0,0 C 33 % 88 % 1019,4 hPa 0,0 l/m 4,8 km/h (1 Bft) O-NO 67 0,000 mm 113 W/m -5,8 C -4,1 C 6,4 km/h (2 Bft) 95,65 %
16.12.2018 10:03 25,6 C -4,1 C -2,8 C 0,0 C 33 % 88 % 1019,4 hPa 0,0 l/m 6,4 km/h (2 Bft) O-NO 67 0,000 mm 109 W/m -5,8 C -4,0 C 8,0 km/h (2 Bft) 100,00 %
16.12.2018 10:02 25,6 C -4,1 C -2,8 C 0,0 C 33 % 88 % 1019,4 hPa 0,0 l/m 8,0 km/h (2 Bft) O-NO 67 0,000 mm 100 W/m -5,8 C -6,0 C 12,9 km/h (3 Bft) 100,00 %
16.12.2018 10:01 25,6 C -4,1 C -2,8 C 0,0 C 33 % 88 % 1019,4 hPa 0,0 l/m 4,8 km/h (1 Bft) O 90 0,000 mm 98 W/m -5,8 C -4,1 C 6,4 km/h (2 Bft) 100,00 %
16.12.2018 10:00 25,6 C -4,1 C -2,8 C 0,0 C 33 % 88 % 1019,4 hPa 0,0 l/m 4,8 km/h (1 Bft) O 90 0,051 mm 95 W/m -5,8 C -4,1 C 6,4 km/h (2 Bft) 100,00 %
16.12.2018 09:59 25,6 C -4,1 C -2,8 C 0,0 C 33 % 88 % 1019,4 hPa 0,0 l/m 4,8 km/h (1 Bft) O 90 0,000 mm 93 W/m -5,8 C -4,1 C 6,4 km/h (2 Bft) 100,00 %
16.12.2018 09:58 25,6 C -4,1 C -2,8 C 0,0 C 33 % 88 % 1019,3 hPa 0,0 l/m 4,8 km/h (1 Bft) O 90 0,000 mm 90 W/m -5,8 C -4,1 C 4,8 km/h (1 Bft) 100,00 %
16.12.2018 09:57 25,6 C -4,1 C -3,3 C 0,0 C 33 % 88 % 1019,4 hPa 0,0 l/m 4,8 km/h (1 Bft) O 90 0,000 mm 90 W/m -5,8 C -4,1 C 6,4 km/h (2 Bft) 100,00 %
16.12.2018 09:56 25,5 C -4,1 C -2,8 C 0,0 C 33 % 88 % 1019,4 hPa 0,0 l/m 4,8 km/h (1 Bft) O 90 0,000 mm 88 W/m -5,8 C -4,1 C 6,4 km/h (2 Bft) 100,00 %
16.12.2018 09:55 25,5 C -4,1 C -2,8 C 0,0 C 33 % 88 % 1019,4 hPa 0,0 l/m 3,2 km/h (1 Bft) O 90 0,000 mm 88 W/m -5,8 C -4,1 C 4,8 km/h (1 Bft) 100,00 %
16.12.2018 09:54 25,5 C -4,1 C -2,8 C 0,0 C 33 % 88 % 1019,5 hPa 0,0 l/m 3,2 km/h (1 Bft) O 90 0,000 mm 90 W/m -5,8 C -4,1 C 4,8 km/h (1 Bft) 100,00 %
16.12.2018 09:53 25,5 C -4,1 C -2,8 C 0,0 C 33 % 88 % 1019,6 hPa 0,0 l/m 1,6 km/h (1 Bft) O 90 0,000 mm 91 W/m -5,8 C -4,1 C 4,8 km/h (1 Bft) 100,00 %
16.12.2018 09:52 25,5 C -4,1 C -2,8 C 0,0 C 33 % 88 % 1019,7 hPa 0,0 l/m 1,6 km/h (1 Bft) O 90 0,000 mm 95 W/m -5,8 C -4,1 C 3,2 km/h (1 Bft) 100,00 %
16.12.2018 09:51 25,5 C -4,1 C -2,8 C 0,0 C 33 % 88 % 1019,6 hPa 0,0 l/m 4,8 km/h (1 Bft) O 90 0,000 mm 98 W/m -5,8 C -4,1 C 4,8 km/h (1 Bft) 95,65 %
16.12.2018 09:50 25,5 C -4,2 C -2,8 C 0,0 C 33 % 88 % 1019,6 hPa 0,0 l/m 3,2 km/h (1 Bft) O 90 0,000 mm 100 W/m -5,9 C -4,2 C 4,8 km/h (1 Bft) 100,00 %
16.12.2018 09:49 25,5 C -4,2 C -2,2 C 0,0 C 33 % 88 % 1019,6 hPa 0,0 l/m 0,0 km/h (0 Bft) O 90 0,000 mm 107 W/m -5,9 C -4,2 C 3,2 km/h (1 Bft) 100,00 %
16.12.2018 09:48 25,5 C -4,2 C -2,8 C 0,0 C 33 % 88 % 1019,6 hPa 0,0 l/m 1,6 km/h (1 Bft) O 90 0,000 mm 111 W/m -5,9 C -4,2 C 3,2 km/h (1 Bft) 100,00 %
16.12.2018 09:47 25,5 C -4,2 C -2,8 C 0,0 C 33 % 88 % 1019,6 hPa 0,0 l/m 4,8 km/h (1 Bft) O 90 0,000 mm 107 W/m -5,9 C -4,2 C 4,8 km/h (1 Bft) 95,65 %
16.12.2018 09:46 25,5 C -4,2 C -2,8 C 0,0 C 33 % 88 % 1019,6 hPa 0,0 l/m 3,2 km/h (1 Bft) O 90 0,000 mm 104 W/m -5,9 C -4,2 C 4,8 km/h (1 Bft) 100,00 %
16.12.2018 09:45 25,6 C -4,2 C -2,8 C 0,0 C 33 % 88 % 1019,5 hPa 0,0 l/m 3,2 km/h (1 Bft) O 90 0,000 mm 104 W/m -5,9 C -4,2 C 4,8 km/h (1 Bft) 100,00 %
16.12.2018 09:44 25,6 C -4,3 C -2,2 C 0,0 C 33 % 88 % 1019,7 hPa 0,0 l/m 3,2 km/h (1 Bft) O 90 0,000 mm 98 W/m -6,0 C -4,3 C 4,8 km/h (1 Bft) 100,00 %
16.12.2018 09:43 25,6 C -4,3 C -2,2 C 0,0 C 33 % 88 % 1019,7 hPa 0,0 l/m 1,6 km/h (1 Bft) O 90 0,000 mm 98 W/m -6,0 C -4,3 C 3,2 km/h (1 Bft) 100,00 %
16.12.2018 09:42 25,6 C -4,2 C -2,2 C 0,0 C 33 % 88 % 1019,7 hPa 0,0 l/m 1,6 km/h (1 Bft) O 90 0,000 mm 98 W/m -5,9 C -4,2 C 4,8 km/h (1 Bft) 100,00 %
16.12.2018 09:41 25,6 C -4,2 C -1,7 C 0,0 C 33 % 89 % 1019,7 hPa 0,0 l/m 1,6 km/h (1 Bft) O 90 0,000 mm 100 W/m -5,7 C -4,2 C 3,2 km/h (1 Bft) 100,00 %
16.12.2018 09:40 25,5 C -4,2 C -1,7 C 0,0 C 33 % 89 % 1019,7 hPa 0,0 l/m 1,6 km/h (1 Bft) O 90 0,000 mm 109 W/m -5,7 C -4,2 C 3,2 km/h (1 Bft) 100,00 %
16.12.2018 09:39 25,4 C -4,2 C -1,1 C 0,0 C 33 % 89 % 1019,7 hPa 0,0 l/m 1,6 km/h (1 Bft) O 90 0,000 mm 139 W/m -5,7 C -4,2 C 3,2 km/h (1 Bft) 100,00 %
16.12.2018 09:38 25,4 C -4,3 C -0,6 C 0,0 C 33 % 89 % 1019,6 hPa 0,0 l/m 0,0 km/h (0 Bft) N 0 0,000 mm 172 W/m -5,8 C -4,3 C 0,0 km/h (0 Bft) 95,65 %
16.12.2018 09:37 25,4 C -4,3 C -0,6 C 0,0 C 33 % 89 % 1019,6 hPa 0,0 l/m 0,0 km/h (0 Bft) N 0 0,000 mm 192 W/m -5,8 C -4,3 C 0,0 km/h (0 Bft) 100,00 %
16.12.2018 09:36 25,4 C -4,3 C -0,6 C 0,0 C 33 % 89 % 1019,7 hPa 0,0 l/m 0,0 km/h (0 Bft) N 0 0,000 mm 216 W/m -5,8 C -4,3 C 0,0 km/h (0 Bft) 100,00 %
16.12.2018 09:35 25,4 C -4,3 C 0,0 C 0,0 C 33 % 89 % 1019,6 hPa 0,0 l/m 0,0 km/h (0 Bft) N 0 0,000 mm 239 W/m -5,8 C -4,3 C 0,0 km/h (0 Bft) 100,00 %
16.12.2018 09:34 25,4 C -4,3 C -0,6 C 0,0 C 33 % 89 % 1019,5 hPa 0,0 l/m 0,0 km/h (0 Bft) N 0 0,000 mm 243 W/m -5,8 C -4,3 C 0,0 km/h (0 Bft) 100,00 %
16.12.2018 09:33 25,4 C -4,4 C -1,1 C 0,0 C 33 % 89 % 1019,6 hPa 0,0 l/m 0,0 km/h (0 Bft) O 90 0,000 mm 246 W/m -5,9 C -4,4 C 1,6 km/h (1 Bft) 100,00 %
16.12.2018 09:32 25,4 C -4,4 C -1,7 C 0,0 C 33 % 89 % 1019,4 hPa 0,0 l/m 1,6 km/h (1 Bft) O 90 0,000 mm 239 W/m -5,9 C -4,4 C 3,2 km/h (1 Bft) 100,00 %
16.12.2018 09:31 25,4 C -4,4 C -2,2 C 0,0 C 33 % 89 % 1019,4 hPa 0,0 l/m 4,8 km/h (1 Bft) O 90 0,000 mm 200 W/m -5,9 C -4,4 C 6,4 km/h (2 Bft) 100,00 %
16.12.2018 09:30 25,4 C -4,4 C -2,2 C 0,0 C 33 % 89 % 1019,5 hPa 0,0 l/m 4,8 km/h (1 Bft) O 90 0,000 mm 160 W/m -5,9 C -4,4 C 6,4 km/h (2 Bft) 100,00 %
16.12.2018 09:29 25,4 C -4,6 C -2,2 C 0,0 C 33 % 89 % 1019,5 hPa 0,0 l/m 3,2 km/h (1 Bft) O 90 0,000 mm 200 W/m -6,1 C -4,6 C 4,8 km/h (1 Bft) 100,00 %
16.12.2018 09:28 25,4 C -4,6 C -2,2 C 0,0 C 33 % 89 % 1019,6 hPa 0,0 l/m 4,8 km/h (1 Bft) O 90 0,000 mm 216 W/m -6,1 C -4,6 C 6,4 km/h (2 Bft) 95,65 %
16.12.2018 09:27 25,4 C -4,7 C -2,2 C 0,0 C 33 % 89 % 1019,6 hPa 0,0 l/m 4,8 km/h (1 Bft) O 90 0,000 mm 213 W/m -6,2 C -4,7 C 6,4 km/h (2 Bft) 100,00 %
16.12.2018 09:26 25,5 C -4,7 C -2,2 C 0,0 C 33 % 89 % 1019,6 hPa 0,0 l/m 4,8 km/h (1 Bft) O 90 0,000 mm 181 W/m -6,2 C -4,7 C 6,4 km/h (2 Bft) 91,30 %
16.12.2018 09:25 25,5 C -4,7 C -2,2 C 0,0 C 33 % 89 % 1019,6 hPa 0,0 l/m 4,8 km/h (1 Bft) O 90 0,000 mm 188 W/m -6,2 C -4,7 C 6,4 km/h (2 Bft) 100,00 %
16.12.2018 09:24 25,4 C -4,7 C -2,2 C 0,0 C 33 % 89 % 1019,7 hPa 0,0 l/m 4,8 km/h (1 Bft) O 90 0,000 mm 193 W/m -6,2 C -4,7 C 6,4 km/h (2 Bft) 100,00 %
16.12.2018 09:23 25,4 C -4,7 C -2,2 C 0,0 C 33 % 89 % 1019,7 hPa 0,0 l/m 3,2 km/h (1 Bft) O 90 0,000 mm 190 W/m -6,2 C -4,7 C 4,8 km/h (1 Bft) 100,00 %
16.12.2018 09:22 25,3 C -4,8 C -2,2 C 0,0 C 33 % 89 % 1019,7 hPa 0,0 l/m 3,2 km/h (1 Bft) O 90 0,000 mm 188 W/m -6,3 C -4,8 C 6,4 km/h (2 Bft) 100,00 %
16.12.2018 09:21 25,3 C -4,8 C -2,2 C 0,0 C 33 % 89 % 1019,7 hPa 0,0 l/m 3,2 km/h (1 Bft) O 90 0,000 mm 183 W/m -6,3 C -4,8 C 4,8 km/h (1 Bft) 95,65 %
16.12.2018 09:20 25,3 C -4,8 C -2,8 C 0,0 C 33 % 89 % 1019,7 hPa 0,0 l/m 3,2 km/h (1 Bft) O 90 0,000 mm 172 W/m -6,3 C -4,8 C 4,8 km/h (1 Bft) 100,00 %
16.12.2018 09:19 25,3 C -4,8 C -2,8 C 0,0 C 33 % 90 % 1019,7 hPa 0,0 l/m 3,2 km/h (1 Bft) O 90 0,000 mm 162 W/m -6,2 C -4,8 C 4,8 km/h (1 Bft) 100,00 %
16.12.2018 09:18 25,3 C -4,8 C -3,3 C 0,0 C 33 % 90 % 1019,7 hPa 0,0 l/m 4,8 km/h (1 Bft) O 90 0,000 mm 169 W/m -6,2 C -4,8 C 6,4 km/h (2 Bft) 95,65 %
16.12.2018 09:17 25,3 C -4,8 C -3,3 C 0,0 C 33 % 90 % 1019,6 hPa 0,0 l/m 4,8 km/h (1 Bft) O 90 0,000 mm 104 W/m -6,2 C -4,8 C 4,8 km/h (1 Bft) 100,00 %
16.12.2018 09:16 25,3 C -4,9 C -3,3 C 0,0 C 33 % 90 % 1019,6 hPa 0,0 l/m 3,2 km/h (1 Bft) O 90 0,000 mm 146 W/m -6,3 C -4,9 C 4,8 km/h (1 Bft) 95,65 %
16.12.2018 09:15 25,3 C -4,9 C -3,3 C 0,0 C 33 % 90 % 1019,7 hPa 0,0 l/m 3,2 km/h (1 Bft) O 90 0,000 mm 155 W/m -6,3 C -4,9 C 6,4 km/h (2 Bft) 100,00 %
16.12.2018 09:14 25,3 C -5,0 C -3,3 C 0,0 C 33 % 90 % 1019,7 hPa 0,0 l/m 4,8 km/h (1 Bft) O 90 0,000 mm 160 W/m -6,4 C -5,0 C 6,4 km/h (2 Bft) 100,00 %
16.12.2018 09:13 25,3 C -5,0 C -3,3 C 0,0 C 33 % 90 % 1019,6 hPa 0,0 l/m 4,8 km/h (1 Bft) O 90 0,000 mm 162 W/m -6,4 C -5,0 C 6,4 km/h (2 Bft) 95,65 %
16.12.2018 09:12 25,3 C -5,1 C -3,9 C 0,0 C 33 % 90 % 1019,8 hPa 0,0 l/m 6,4 km/h (2 Bft) O 90 0,000 mm 156 W/m -6,5 C -5,0 C 8,0 km/h (2 Bft) 91,30 %
16.12.2018 09:11 25,3 C -5,1 C -3,9 C 0,0 C 33 % 90 % 1019,7 hPa 0,0 l/m 4,8 km/h (1 Bft) O 90 0,000 mm 142 W/m -6,5 C -5,1 C 6,4 km/h (2 Bft) 95,65 %
16.12.2018 09:10 25,4 C -5,1 C -4,4 C 0,0 C 33 % 90 % 1019,7 hPa 0,0 l/m 4,8 km/h (1 Bft) O 90 0,000 mm 116 W/m -6,5 C -5,1 C 6,4 km/h (2 Bft) 91,30 %
16.12.2018 09:09 25,4 C -5,1 C -4,4 C 0,0 C 32 % 90 % 1019,6 hPa 0,0 l/m 4,8 km/h (1 Bft) O 90 0,000 mm 79 W/m -6,5 C -5,1 C 6,4 km/h (2 Bft) 91,30 %
16.12.2018 09:08 25,4 C -5,1 C -4,4 C 0,0 C 32 % 90 % 1019,7 hPa 0,0 l/m 6,4 km/h (2 Bft) O 90 0,000 mm 70 W/m -6,5 C -5,0 C 6,4 km/h (2 Bft) 95,65 %
16.12.2018 09:07 25,4 C -5,1 C -4,4 C 0,0 C 32 % 90 % 1019,7 hPa 0,0 l/m 6,4 km/h (2 Bft) O 90 0,000 mm 70 W/m -6,5 C -5,0 C 6,4 km/h (2 Bft) 100,00 %
16.12.2018 09:06 25,3 C -5,1 C -4,4 C 0,0 C 32 % 90 % 1019,8 hPa 0,0 l/m 6,4 km/h (2 Bft) O 90 0,000 mm 79 W/m -6,5 C -5,0 C 8,0 km/h (2 Bft) 91,30 %
16.12.2018 09:05 25,3 C -5,1 C -5,0 C 0,0 C 33 % 90 % 1019,7 hPa 0,0 l/m 4,8 km/h (1 Bft) O 90 0,000 mm 72 W/m -6,5 C -5,1 C 6,4 km/h (2 Bft) 100,00 %
16.12.2018 09:04 25,3 C -5,1 C -5,0 C 0,0 C 33 % 90 % 1019,8 hPa 0,0 l/m 4,8 km/h (1 Bft) O 90 0,000 mm 62 W/m -6,5 C -5,1 C 6,4 km/h (2 Bft) 100,00 %
16.12.2018 09:03 25,3 C -5,0 C -5,0 C 0,0 C 33 % 90 % 1019,7 hPa 0,0 l/m 3,2 km/h (1 Bft) O 90 0,000 mm 56 W/m -6,4 C -5,0 C 4,8 km/h (1 Bft) 91,30 %
16.12.2018 09:02 25,3 C -5,0 C -5,0 C 0,0 C 32 % 90 % 1019,8 hPa 0,0 l/m 3,2 km/h (1 Bft) O 90 0,000 mm 51 W/m -6,4 C -5,0 C 4,8 km/h (1 Bft) 100,00 %
16.12.2018 09:01 25,3 C -5,0 C -5,0 C 0,0 C 32 % 90 % 1019,8 hPa 0,0 l/m 1,6 km/h (1 Bft) O 90 0,000 mm 47 W/m -6,4 C -5,0 C 3,2 km/h (1 Bft) 91,30 %
16.12.2018 09:00 25,3 C -5,0 C -5,0 C 0,0 C 32 % 90 % 1019,8 hPa 0,0 l/m 1,6 km/h (1 Bft) O 90 0,025 mm 49 W/m -6,4 C -5,0 C 3,2 km/h (1 Bft) 100,00 %
16.12.2018 08:59 25,3 C -5,1 C -5,0 C 0,0 C 32 % 90 % 1019,8 hPa 0,0 l/m 3,2 km/h (1 Bft) O 90 0,000 mm 51 W/m -6,5 C -5,1 C 3,2 km/h (1 Bft) 95,65 %
16.12.2018 08:58 25,3 C -5,1 C -5,0 C 0,0 C 32 % 90 % 1019,7 hPa 0,0 l/m 1,6 km/h (1 Bft) O 90 0,000 mm 53 W/m -6,5 C -5,1 C 3,2 km/h (1 Bft) 100,00 %
16.12.2018 08:57 25,3 C -5,1 C -4,4 C 0,0 C 32 % 90 % 1019,8 hPa 0,0 l/m 1,6 km/h (1 Bft) O 90 0,000 mm 54 W/m -6,5 C -5,1 C 3,2 km/h (1 Bft) 91,30 %
16.12.2018 08:56 25,3 C -5,1 C -4,4 C 0,0 C 32 % 90 % 1019,8 hPa 0,0 l/m 3,2 km/h (1 Bft) O 90 0,000 mm 58 W/m -6,5 C -5,1 C 4,8 km/h (1 Bft) 95,65 %
16.12.2018 08:55 25,3 C -5,1 C -4,4 C 0,0 C 32 % 90 % 1019,8 hPa 0,0 l/m 4,8 km/h (1 Bft) O 90 0,000 mm 60 W/m -6,5 C -5,1 C 6,4 km/h (2 Bft) 100,00 %
16.12.2018 08:54 25,3 C -5,1 C -4,4 C 0,0 C 32 % 90 % 1019,9 hPa 0,0 l/m 3,2 km/h (1 Bft) O 90 0,000 mm 69 W/m -6,5 C -5,1 C 6,4 km/h (2 Bft) 95,65 %
16.12.2018 08:53 25,3 C -5,1 C -3,9 C 0,0 C 32 % 90 % 1019,8 hPa 0,0 l/m 1,6 km/h (1 Bft) O 90 0,000 mm 77 W/m -6,5 C -5,1 C 4,8 km/h (1 Bft) 100,00 %
16.12.2018 08:52 25,3 C -5,1 C -3,9 C 0,0 C 32 % 90 % 1019,8 hPa 0,0 l/m 3,2 km/h (1 Bft) O 90 0,000 mm 93 W/m -6,5 C -5,1 C 4,8 km/h (1 Bft) 95,65 %
16.12.2018 08:51 25,3 C -5,1 C -3,9 C 0,0 C 32 % 90 % 1019,8 hPa 0,0 l/m 3,2 km/h (1 Bft) O 90 0,000 mm 104 W/m -6,5 C -5,1 C 6,4 km/h (2 Bft) 91,30 %
16.12.2018 08:50 25,3 C -5,1 C -3,3 C 0,0 C 32 % 90 % 1019,8 hPa 0,0 l/m 4,8 km/h (1 Bft) O-NO 67 0,000 mm 109 W/m -6,5 C -5,1 C 6,4 km/h (2 Bft) 86,96 %
16.12.2018 08:49 25,2 C -5,1 C -3,3 C 0,0 C 32 % 90 % 1019,7 hPa 0,0 l/m 4,8 km/h (1 Bft) O-NO 67 0,000 mm 109 W/m -6,5 C -5,1 C 6,4 km/h (2 Bft) 100,00 %
16.12.2018 08:48 25,2 C -5,1 C -3,3 C 0,0 C 32 % 90 % 1019,7 hPa 0,0 l/m 4,8 km/h (1 Bft) O-NO 67 0,000 mm 132 W/m -6,5 C -5,1 C 6,4 km/h (2 Bft) 95,65 %
16.12.2018 08:47 25,2 C -5,2 C -3,3 C 0,0 C 32 % 90 % 1019,8 hPa 0,0 l/m 4,8 km/h (1 Bft) O-NO 67 0,000 mm 132 W/m -6,6 C -5,2 C 6,4 km/h (2 Bft) 95,65 %
16.12.2018 08:46 25,2 C -5,2 C -3,3 C 0,0 C 32 % 91 % 1019,7 hPa 0,0 l/m 4,8 km/h (1 Bft) O-NO 67 0,000 mm 134 W/m -6,4 C -5,2 C 8,0 km/h (2 Bft) 91,30 %
16.12.2018 08:45 25,2 C -5,2 C -3,3 C 0,0 C 32 % 91 % 1019,7 hPa 0,0 l/m 3,2 km/h (1 Bft) O-NO 67 0,000 mm 125 W/m -6,4 C -5,2 C 4,8 km/h (1 Bft) 91,30 %
16.12.2018 08:44 25,2 C -5,3 C -3,3 C 0,0 C 32 % 91 % 1019,7 hPa 0,0 l/m 3,2 km/h (1 Bft) O-NO 67 0,000 mm 127 W/m -6,5 C -5,3 C 3,2 km/h (1 Bft) 95,65 %
16.12.2018 08:43 25,2 C -5,3 C -3,9 C 0,0 C 32 % 90 % 1019,8 hPa 0,0 l/m 3,2 km/h (1 Bft) O-NO 67 0,000 mm 123 W/m -6,7 C -5,3 C 4,8 km/h (1 Bft) 91,30 %
16.12.2018 08:42 25,2 C -5,3 C -3,9 C 0,0 C 32 % 90 % 1019,8 hPa 0,0 l/m 4,8 km/h (1 Bft) O-NO 67 0,000 mm 116 W/m -6,7 C -5,3 C 6,4 km/h (2 Bft) 95,65 %
16.12.2018 08:41 25,2 C -5,3 C -3,9 C 0,0 C 32 % 91 % 1019,8 hPa 0,0 l/m 3,2 km/h (1 Bft) O-NO 67 0,000 mm 113 W/m -6,5 C -5,3 C 4,8 km/h (1 Bft) 91,30 %
16.12.2018 08:40 25,2 C -5,4 C -3,9 C 0,0 C 32 % 91 % 1019,8 hPa 0,0 l/m 3,2 km/h (1 Bft) O-NO 67 0,000 mm 121 W/m -6,6 C -5,4 C 6,4 km/h (2 Bft) 91,30 %
16.12.2018 08:39 25,2 C -5,4 C -4,4 C 0,0 C 32 % 91 % 1019,8 hPa 0,0 l/m 3,2 km/h (1 Bft) O-NO 67 0,000 mm 118 W/m -6,6 C -5,4 C 4,8 km/h (1 Bft) 95,65 %
16.12.2018 08:38 25,2 C -5,4 C -4,4 C 0,0 C 32 % 91 % 1019,8 hPa 0,0 l/m 3,2 km/h (1 Bft) O-NO 67 0,000 mm 113 W/m -6,6 C -5,4 C 4,8 km/h (1 Bft) 100,00 %
16.12.2018 08:37 25,2 C -5,6 C -4,4 C 0,0 C 32 % 91 % 1019,8 hPa 0,0 l/m 4,8 km/h (1 Bft) O-NO 67 0,000 mm 105 W/m -6,8 C -5,6 C 8,0 km/h (2 Bft) 100,00 %
16.12.2018 08:36 25,2 C -5,6 C -5,0 C 0,0 C 32 % 90 % 1019,7 hPa 0,0 l/m 4,8 km/h (1 Bft) O 90 0,000 mm 97 W/m -7,0 C -5,6 C 9,7 km/h (2 Bft) 100,00 %
16.12.2018 08:35 25,2 C -5,6 C -5,0 C 0,0 C 32 % 90 % 1019,8 hPa 0,0 l/m 4,8 km/h (1 Bft) O 90 0,000 mm 97 W/m -7,0 C -5,6 C 6,4 km/h (2 Bft) 100,00 %
16.12.2018 08:34 25,2 C -5,7 C -5,0 C 0,0 C 32 % 90 % 1019,8 hPa 0,0 l/m 4,8 km/h (1 Bft) O 90 0,000 mm 104 W/m -7,1 C -5,7 C 6,4 km/h (2 Bft) 100,00 %
16.12.2018 08:33 25,2 C -5,7 C -5,0 C 0,0 C 32 % 90 % 1019,8 hPa 0,0 l/m 4,8 km/h (1 Bft) O 90 0,000 mm 105 W/m -7,1 C -5,7 C 4,8 km/h (1 Bft) 100,00 %
16.12.2018 08:32 25,1 C -5,8 C -5,6 C 0,0 C 32 % 90 % 1019,8 hPa 0,0 l/m 4,8 km/h (1 Bft) O 90 0,000 mm 102 W/m -7,2 C -5,8 C 6,4 km/h (2 Bft) 100,00 %
16.12.2018 08:31 25,1 C -5,8 C -5,6 C 0,0 C 32 % 90 % 1019,7 hPa 0,0 l/m 4,8 km/h (1 Bft) O-SO 112 0,000 mm 98 W/m -7,2 C -5,8 C 6,4 km/h (2 Bft) 100,00 %
16.12.2018 08:30 25,1 C -5,8 C -5,6 C 0,0 C 32 % 90 % 1019,7 hPa 0,0 l/m 3,2 km/h (1 Bft) O-SO 112 0,000 mm 93 W/m -7,2 C -5,8 C 6,4 km/h (2 Bft) 91,30 %
16.12.2018 08:29 25,1 C -5,9 C -5,6 C 0,0 C 32 % 90 % 1019,7 hPa 0,0 l/m 3,2 km/h (1 Bft) O-SO 112 0,000 mm 88 W/m -7,3 C -5,9 C 3,2 km/h (1 Bft) 100,00 %
16.12.2018 08:28 25,1 C -5,9 C -5,6 C 0,0 C 32 % 90 % 1019,7 hPa 0,0 l/m 3,2 km/h (1 Bft) O-SO 112 0,000 mm 79 W/m -7,3 C -5,9 C 4,8 km/h (1 Bft) 100,00 %
16.12.2018 08:27 25,1 C -5,9 C -6,1 C 0,0 C 32 % 90 % 1019,7 hPa 0,0 l/m 4,8 km/h (1 Bft) O-SO 112 0,000 mm 74 W/m -7,3 C -5,9 C 6,4 km/h (2 Bft) 100,00 %
16.12.2018 08:26 25,1 C -5,9 C -6,1 C 0,0 C 32 % 90 % 1019,7 hPa 0,0 l/m 4,8 km/h (1 Bft) O-SO 112 0,000 mm 69 W/m -7,3 C -5,9 C 6,4 km/h (2 Bft) 100,00 %
16.12.2018 08:25 25,0 C -5,9 C -6,1 C 0,0 C 32 % 90 % 1019,7 hPa 0,0 l/m 4,8 km/h (1 Bft) O-SO 112 0,000 mm 63 W/m -7,3 C -5,9 C 4,8 km/h (1 Bft) 100,00 %
16.12.2018 08:24 25,1 C -5,9 C -6,1 C 0,0 C 32 % 90 % 1019,8 hPa 0,0 l/m 4,8 km/h (1 Bft) O-SO 112 0,000 mm 58 W/m -7,3 C -5,9 C 6,4 km/h (2 Bft) 95,65 %
16.12.2018 08:23 25,1 C -6,0 C -6,1 C 0,0 C 32 % 90 % 1019,8 hPa 0,0 l/m 4,8 km/h (1 Bft) O-SO 112 0,000 mm 54 W/m -7,4 C -6,0 C 6,4 km/h (2 Bft) 95,65 %
16.12.2018 08:22 25,1 C -5,9 C -6,1 C 0,0 C 32 % 90 % 1019,8 hPa 0,0 l/m 4,8 km/h (1 Bft) O-SO 112 0,000 mm 46 W/m -7,3 C -5,9 C 6,4 km/h (2 Bft) 100,00 %
16.12.2018 08:21 25,1 C -5,9 C -6,1 C 0,0 C 32 % 90 % 1019,8 hPa 0,0 l/m 4,8 km/h (1 Bft) O-SO 112 0,000 mm 42 W/m -7,3 C -5,9 C 4,8 km/h (1 Bft) 95,65 %
16.12.2018 08:20 25,0 C -6,0 C -6,1 C 0,0 C 32 % 90 % 1019,8 hPa 0,0 l/m 4,8 km/h (1 Bft) O-SO 112 0,000 mm 37 W/m -7,4 C -6,0 C 4,8 km/h (1 Bft) 95,65 %
16.12.2018 08:19 25,1 C -5,9 C -6,7 C 0,0 C 32 % 90 % 1019,8 hPa 0,0 l/m 3,2 km/h (1 Bft) O-SO 112 0,000 mm 33 W/m -7,3 C -5,9 C 4,8 km/h (1 Bft) 100,00 %
16.12.2018 08:18 25,0 C -5,9 C -6,7 C 0,0 C 32 % 90 % 1019,8 hPa 0,0 l/m 3,2 km/h (1 Bft) O-SO 112 0,000 mm 32 W/m -7,3 C -5,9 C 4,8 km/h (1 Bft) 95,65 %
16.12.2018 08:17 25,1 C -5,9 C -6,7 C 0,0 C 32 % 90 % 1019,8 hPa 0,0 l/m 1,6 km/h (1 Bft) O-SO 112 0,000 mm 30 W/m -7,3 C -5,9 C 3,2 km/h (1 Bft) 100,00 %
16.12.2018 08:16 25,0 C -5,9 C -6,1 C 0,0 C 32 % 90 % 1019,8 hPa 0,0 l/m 3,2 km/h (1 Bft) O-SO 112 0,000 mm 26 W/m -7,3 C -5,9 C 4,8 km/h (1 Bft) 95,65 %
16.12.2018 08:15 24,9 C -5,9 C -6,1 C 0,0 C 32 % 90 % 1019,8 hPa 0,0 l/m 4,8 km/h (1 Bft) O-SO 112 0,000 mm 25 W/m -7,3 C -5,9 C 4,8 km/h (1 Bft) 100,00 %
16.12.2018 08:14 24,9 C -5,9 C -6,1 C 0,0 C 32 % 90 % 1019,8 hPa 0,0 l/m 3,2 km/h (1 Bft) O-SO 112 0,000 mm 26 W/m -7,3 C -5,9 C 4,8 km/h (1 Bft) 100,00 %
16.12.2018 08:13 24,9 C -5,9 C -6,1 C 0,0 C 32 % 90 % 1019,8 hPa 0,0 l/m 1,6 km/h (1 Bft) O-SO 112 0,000 mm 26 W/m -7,3 C -5,9 C 3,2 km/h (1 Bft) 100,00 %
16.12.2018 08:12 24,8 C -5,9 C -6,1 C 0,0 C 32 % 90 % 1019,8 hPa 0,0 l/m 3,2 km/h (1 Bft) O-SO 112 0,000 mm 28 W/m -7,3 C -5,9 C 4,8 km/h (1 Bft) 100,00 %
16.12.2018 08:11 24,8 C -5,9 C -6,1 C 0,0 C 32 % 90 % 1019,8 hPa 0,0 l/m 3,2 km/h (1 Bft) O-SO 112 0,000 mm 28 W/m -7,3 C -5,9 C 4,8 km/h (1 Bft) 95,65 %
16.12.2018 08:10 24,8 C -5,9 C -6,1 C 0,0 C 32 % 90 % 1019,8 hPa 0,0 l/m 3,2 km/h (1 Bft) O-SO 112 0,000 mm 28 W/m -7,3 C -5,9 C 4,8 km/h (1 Bft) 95,65 %
16.12.2018 08:09 24,8 C -6,0 C -6,1 C 0,0 C 32 % 90 % 1019,8 hPa 0,0 l/m 4,8 km/h (1 Bft) O-SO 112 0,000 mm 28 W/m -7,4 C -6,0 C 6,4 km/h (2 Bft) 100,00 %
16.12.2018 08:08 24,8 C -6,0 C -6,1 C 0,0 C 32 % 90 % 1019,8 hPa 0,0 l/m 6,4 km/h (2 Bft) O-SO 112 0,000 mm 28 W/m -7,4 C -5,9 C 11,3 km/h (2 Bft) 95,65 %
16.12.2018 08:07 24,8 C -6,1 C -6,1 C 0,0 C 32 % 90 % 1019,8 hPa 0,0 l/m 6,4 km/h (2 Bft) O-SO 112 0,000 mm 26 W/m -7,5 C -6,0 C 9,7 km/h (2 Bft) 100,00 %
16.12.2018 08:06 24,8 C -6,1 C -6,1 C 0,0 C 31 % 90 % 1019,8 hPa 0,0 l/m 4,8 km/h (1 Bft) O-SO 112 0,000 mm 26 W/m -7,5 C -6,1 C 4,8 km/h (1 Bft) 100,00 %
16.12.2018 08:05 24,8 C -6,0 C -6,1 C 0,0 C 32 % 90 % 1019,8 hPa 0,0 l/m 4,8 km/h (1 Bft) O-SO 112 0,000 mm 26 W/m -7,4 C -6,0 C 9,7 km/h (2 Bft) 100,00 %
16.12.2018 08:04 24,8 C -6,0 C -6,1 C 0,0 C 31 % 90 % 1019,9 hPa 0,0 l/m 4,8 km/h (1 Bft) O 90 0,000 mm 19 W/m -7,4 C -6,0 C 9,7 km/h (2 Bft) 91,30 %
16.12.2018 08:03 24,8 C -6,1 C -6,1 C 0,0 C 31 % 90 % 1019,9 hPa 0,0 l/m 3,2 km/h (1 Bft) O 90 0,000 mm 19 W/m -7,5 C -6,1 C 4,8 km/h (1 Bft) 95,65 %
16.12.2018 08:02 24,8 C -6,1 C -6,7 C 0,0 C 31 % 90 % 1020,0 hPa 0,0 l/m 3,2 km/h (1 Bft) O 90 0,000 mm 19 W/m -7,5 C -6,1 C 4,8 km/h (1 Bft) 100,00 %
16.12.2018 08:01 24,8 C -6,1 C -6,7 C 0,0 C 31 % 90 % 1020,0 hPa 0,0 l/m 1,6 km/h (1 Bft) O 90 0,000 mm 18 W/m -7,5 C -6,1 C 3,2 km/h (1 Bft) 86,96 %
16.12.2018 08:00 24,8 C -6,1 C -6,7 C 0,0 C 31 % 90 % 1020,0 hPa 0,0 l/m 1,6 km/h (1 Bft) O 90 0,000 mm 14 W/m -7,5 C -6,1 C 1,6 km/h (1 Bft) 100,00 %
16.12.2018 07:59 24,7 C -6,1 C -6,7 C 0,0 C 31 % 90 % 1020,0 hPa 0,0 l/m 1,6 km/h (1 Bft) O 90 0,000 mm 12 W/m -7,5 C -6,1 C 4,8 km/h (1 Bft) 100,00 %
16.12.2018 07:58 24,7 C -6,1 C -6,7 C 0,0 C 31 % 90 % 1020,0 hPa 0,0 l/m 3,2 km/h (1 Bft) O 90 0,000 mm 11 W/m -7,5 C -6,1 C 4,8 km/h (1 Bft) 91,30 %
16.12.2018 07:57 24,7 C -6,1 C -6,7 C 0,0 C 31 % 90 % 1020,0 hPa 0,0 l/m 1,6 km/h (1 Bft) O 90 0,000 mm 7 W/m -7,5 C -6,1 C 3,2 km/h (1 Bft) 52,17 %
16.12.2018 07:56 24,6 C -6,1 C -6,7 C 0,0 C 31 % 90 % 1020,0 hPa 0,0 l/m 3,2 km/h (1 Bft) O 90 0,000 mm 7 W/m -7,5 C -6,1 C 3,2 km/h (1 Bft) 17,39 %
16.12.2018 07:55 24,6 C -6,1 C -6,7 C 0,0 C 31 % 90 % 1020,1 hPa 0,0 l/m 1,6 km/h (1 Bft) O 90 0,000 mm 7 W/m -7,5 C -6,1 C 3,2 km/h (1 Bft) 100,00 %
16.12.2018 07:54 24,6 C -6,0 C -7,2 C 0,0 C 31 % 90 % 1020,1 hPa 0,0 l/m 0,0 km/h (0 Bft) O 90 0,000 mm 7 W/m -7,4 C -6,0 C 1,6 km/h (1 Bft) 100,00 %
16.12.2018 07:53 24,6 C -6,0 C -6,7 C 0,0 C 31 % 90 % 1020,1 hPa 0,0 l/m 0,0 km/h (0 Bft) O 90 0,000 mm 5 W/m -7,4 C -6,0 C 1,6 km/h (1 Bft) 100,00 %
16.12.2018 07:52 24,6 C -6,1 C -6,7 C 0,0 C 31 % 90 % 1020,1 hPa 0,0 l/m 0,0 km/h (0 Bft) O 90 0,000 mm 5 W/m -7,5 C -6,1 C 1,6 km/h (1 Bft) 82,61 %
16.12.2018 07:51 24,5 C -6,0 C -6,7 C 0,0 C 31 % 90 % 1020,0 hPa 0,0 l/m 0,0 km/h (0 Bft) N 0 0,000 mm 5 W/m -7,4 C -6,0 C 0,0 km/h (0 Bft) 95,65 %
16.12.2018 07:50 24,5 C -6,1 C -6,7 C 0,0 C 31 % 90 % 1020,1 hPa 0,0 l/m 0,0 km/h (0 Bft) O 90 0,000 mm 5 W/m -7,5 C -6,1 C 1,6 km/h (1 Bft) 100,00 %
16.12.2018 07:49 24,5 C -6,1 C -6,7 C 0,0 C 31 % 90 % 1020,1 hPa 0,0 l/m 3,2 km/h (1 Bft) O 90 0,000 mm 5 W/m -7,5 C -6,1 C 4,8 km/h (1 Bft) 95,65 %
16.12.2018 07:48 24,4 C -6,0 C -6,7 C 0,0 C 31 % 90 % 1020,0 hPa 0,0 l/m 1,6 km/h (1 Bft) O 90 0,000 mm 0 W/m -7,4 C -6,0 C 4,8 km/h (1 Bft) 100,00 %
16.12.2018 07:47 24,4 C -6,1 C -6,7 C 0,0 C 31 % 90 % 1020,1 hPa 0,0 l/m 3,2 km/h (1 Bft) O 90 0,000 mm 0 W/m -7,5 C -6,1 C 6,4 km/h (2 Bft) 91,30 %
16.12.2018 07:46 24,4 C -6,1 C -6,7 C 0,0 C 31 % 90 % 1020,0 hPa 0,0 l/m 4,8 km/h (1 Bft) O 90 0,000 mm 0 W/m -7,5 C -6,1 C 6,4 km/h (2 Bft) 95,65 %
16.12.2018 07:45 24,4 C -6,1 C -6,7 C 0,0 C 31 % 90 % 1020,1 hPa 0,0 l/m 4,8 km/h (1 Bft) O 90 0,000 mm 0 W/m -7,5 C -6,1 C 6,4 km/h (2 Bft) 95,65 %
16.12.2018 07:44 24,4 C -6,1 C -6,7 C 0,0 C 31 % 90 % 1020,0 hPa 0,0 l/m 6,4 km/h (2 Bft) O 90 0,000 mm 0 W/m -7,5 C -6,0 C 11,3 km/h (2 Bft) 100,00 %
16.12.2018 07:43 24,4 C -6,1 C -6,7 C 0,0 C 31 % 90 % 1020,0 hPa 0,0 l/m 8,0 km/h (2 Bft) O 90 0,000 mm 0 W/m -7,5 C -8,1 C 11,3 km/h (2 Bft) 100,00 %
16.12.2018 07:42 24,3 C -6,1 C -6,7 C 0,0 C 31 % 90 % 1020,1 hPa 0,0 l/m 6,4 km/h (2 Bft) O 90 0,000 mm 0 W/m -7,5 C -6,0 C 8,0 km/h (2 Bft) 86,96 %
16.12.2018 07:41 24,2 C -6,1 C -6,7 C 0,0 C 31 % 90 % 1020,0 hPa 0,0 l/m 4,8 km/h (1 Bft) O 90 0,000 mm 0 W/m -7,5 C -6,1 C 6,4 km/h (2 Bft) 95,65 %
16.12.2018 07:40 24,1 C -6,1 C -6,7 C 0,0 C 31 % 90 % 1020,0 hPa 0,0 l/m 4,8 km/h (1 Bft) O-SO 112 0,000 mm 0 W/m -7,5 C -6,1 C 6,4 km/h (2 Bft) 100,00 %
16.12.2018 07:39 24,1 C -6,1 C -6,7 C 0,0 C 30 % 90 % 1020,0 hPa 0,0 l/m 6,4 km/h (2 Bft) O 90 0,000 mm 0 W/m -7,5 C -6,0 C 9,7 km/h (2 Bft) 100,00 %
16.12.2018 07:38 24,1 C -6,1 C -6,7 C 0,0 C 30 % 90 % 1020,0 hPa 0,0 l/m 6,4 km/h (2 Bft) O 90 0,000 mm 0 W/m -7,5 C -6,0 C 12,9 km/h (3 Bft) 100,00 %
16.12.2018 07:37 24,1 C -6,2 C -6,7 C 0,0 C 30 % 90 % 1019,9 hPa 0,0 l/m 6,4 km/h (2 Bft) O 90 0,000 mm 0 W/m -7,6 C -6,1 C 12,9 km/h (3 Bft) 100,00 %
16.12.2018 07:36 24,0 C -6,2 C -6,7 C 0,0 C 30 % 90 % 1020,0 hPa 0,0 l/m 6,4 km/h (2 Bft) O 90 0,000 mm 0 W/m -7,6 C -6,1 C 8,0 km/h (2 Bft) 100,00 %
16.12.2018 07:35 23,9 C -6,1 C -6,7 C 0,0 C 30 % 90 % 1020,0 hPa 0,0 l/m 6,4 km/h (2 Bft) O 90 0,000 mm 0 W/m -7,5 C -6,0 C 6,4 km/h (2 Bft) 100,00 %
16.12.2018 07:34 23,9 C -6,1 C -7,2 C 0,0 C 30 % 90 % 1019,9 hPa 0,0 l/m 3,2 km/h (1 Bft) O 90 0,000 mm 0 W/m -7,5 C -6,1 C 4,8 km/h (1 Bft) 100,00 %
16.12.2018 07:33 23,9 C -6,1 C -7,2 C 0,0 C 30 % 90 % 1019,9 hPa 0,0 l/m 0,0 km/h (0 Bft) O 90 0,000 mm 0 W/m -7,5 C -6,1 C 3,2 km/h (1 Bft) 100,00 %
16.12.2018 07:32 23,8 C -6,2 C -7,2 C 0,0 C 30 % 90 % 1020,0 hPa 0,0 l/m 3,2 km/h (1 Bft) O 90 0,000 mm 0 W/m -7,6 C -6,2 C 3,2 km/h (1 Bft) 100,00 %
16.12.2018 07:31 23,8 C -6,1 C -6,7 C 0,0 C 30 % 90 % 1019,9 hPa 0,0 l/m 3,2 km/h (1 Bft) O 90 0,000 mm 0 W/m -7,5 C -6,1 C 3,2 km/h (1 Bft) 100,00 %
16.12.2018 07:30 23,8 C -6,1 C -6,7 C 0,0 C 30 % 90 % 1019,8 hPa 0,0 l/m 1,6 km/h (1 Bft) O 90 0,000 mm 0 W/m -7,5 C -6,1 C 3,2 km/h (1 Bft) 100,00 %
16.12.2018 07:29 23,8 C -6,1 C -6,7 C 0,0 C 30 % 90 % 1019,8 hPa 0,0 l/m 3,2 km/h (1 Bft) O 90 0,000 mm 0 W/m -7,5 C -6,1 C 6,4 km/h (2 Bft) 100,00 %
16.12.2018 07:28 23,7 C -6,2 C -6,7 C 0,0 C 29 % 90 % 1019,7 hPa 0,0 l/m 1,6 km/h (1 Bft) O 90 0,000 mm 0 W/m -7,6 C -6,2 C 3,2 km/h (1 Bft) 100,00 %
16.12.2018 07:27 23,7 C -6,1 C -6,7 C 0,0 C 29 % 90 % 1019,7 hPa 0,0 l/m 4,8 km/h (1 Bft) O 90 0,000 mm 0 W/m -7,5 C -6,1 C 6,4 km/h (2 Bft) 100,00 %
16.12.2018 07:26 23,7 C -6,1 C -6,7 C 0,0 C 29 % 90 % 1019,6 hPa 0,0 l/m 1,6 km/h (1 Bft) O 90 0,000 mm 0 W/m -7,5 C -6,1 C 3,2 km/h (1 Bft) 100,00 %
16.12.2018 07:25 23,6 C -6,1 C -6,7 C 0,0 C 29 % 90 % 1019,6 hPa 0,0 l/m 3,2 km/h (1 Bft) O 90 0,000 mm 0 W/m -7,5 C -6,1 C 6,4 km/h (2 Bft) 100,00 %
16.12.2018 07:24 23,5 C -6,1 C -6,7 C 0,0 C 28 % 90 % 1019,6 hPa 0,0 l/m 3,2 km/h (1 Bft) O 90 0,000 mm 0 W/m -7,5 C -6,1 C 6,4 km/h (2 Bft) 100,00 %
16.12.2018 07:23 23,4 C -6,1 C -6,7 C 0,0 C 28 % 90 % 1019,7 hPa 0,0 l/m 3,2 km/h (1 Bft) O 90 0,000 mm 0 W/m -7,5 C -6,1 C 6,4 km/h (2 Bft) 100,00 %
16.12.2018 07:22 23,3 C -6,2 C -6,7 C 0,0 C 28 % 90 % 1019,7 hPa 0,0 l/m 3,2 km/h (1 Bft) O 90 0,000 mm 0 W/m -7,6 C -6,2 C 6,4 km/h (2 Bft) 100,00 %
16.12.2018 07:21 23,3 C -6,2 C -6,7 C 0,0 C 28 % 90 % 1019,6 hPa 0,0 l/m 6,4 km/h (2 Bft) O 90 0,000 mm 0 W/m -7,6 C -6,1 C 8,0 km/h (2 Bft) 100,00 %
16.12.2018 07:20 23,3 C -6,2 C -6,7 C 0,0 C 27 % 90 % 1019,6 hPa 0,0 l/m 4,8 km/h (1 Bft) O-NO 67 0,000 mm 0 W/m -7,6 C -6,2 C 8,0 km/h (2 Bft) 95,65 %
16.12.2018 07:19 23,3 C -6,2 C -6,7 C 0,0 C 26 % 90 % 1019,7 hPa 0,0 l/m 3,2 km/h (1 Bft) O-NO 67 0,000 mm 0 W/m -7,6 C -6,2 C 6,4 km/h (2 Bft) 100,00 %
16.12.2018 07:18 23,3 C -6,2 C -6,7 C 0,0 C 25 % 90 % 1019,7 hPa 0,0 l/m 6,4 km/h (2 Bft) O-NO 67 0,000 mm 0 W/m -7,6 C -6,1 C 8,0 km/h (2 Bft) 100,00 %
16.12.2018 07:17 23,3 C -6,2 C -6,7 C 0,0 C 24 % 90 % 1019,7 hPa 0,0 l/m 6,4 km/h (2 Bft) O-NO 67 0,000 mm 0 W/m -7,6 C -6,1 C 8,0 km/h (2 Bft) 95,65 %
16.12.2018 07:16 23,3 C -6,3 C -6,7 C 0,0 C 23 % 90 % 1019,7 hPa 0,0 l/m 6,4 km/h (2 Bft) O-NO 67 0,000 mm 0 W/m -7,7 C -6,2 C 8,0 km/h (2 Bft) 100,00 %
16.12.2018 07:15 23,4 C -6,3 C -6,7 C 0,0 C 23 % 90 % 1019,8 hPa 0,0 l/m 4,8 km/h (1 Bft) O 90 0,000 mm 0 W/m -7,7 C -6,3 C 8,0 km/h (2 Bft) 95,65 %
16.12.2018 07:14 23,4 C -6,3 C -6,7 C 0,0 C 23 % 90 % 1019,8 hPa 0,0 l/m 4,8 km/h (1 Bft) O-SO 112 0,000 mm 0 W/m -7,7 C -6,3 C 6,4 km/h (2 Bft) 100,00 %
16.12.2018 07:13 23,5 C -6,3 C -6,7 C 0,0 C 23 % 90 % 1019,9 hPa 0,0 l/m 4,8 km/h (1 Bft) O-SO 112 0,000 mm 0 W/m -7,7 C -6,3 C 6,4 km/h (2 Bft) 100,00 %
16.12.2018 07:12 23,6 C -6,3 C -6,7 C 0,0 C 23 % 90 % 1020,0 hPa 0,0 l/m 4,8 km/h (1 Bft) O-SO 112 0,000 mm 0 W/m -7,7 C -6,3 C 9,7 km/h (2 Bft) 100,00 %
16.12.2018 07:11 23,6 C -6,4 C -6,7 C 0,0 C 23 % 90 % 1020,0 hPa 0,0 l/m 4,8 km/h (1 Bft) O-SO 112 0,000 mm 0 W/m -7,8 C -6,4 C 9,7 km/h (2 Bft) 95,65 %
16.12.2018 07:10 23,7 C -6,4 C -6,7 C 0,0 C 23 % 90 % 1019,9 hPa 0,0 l/m 3,2 km/h (1 Bft) O-SO 112 0,000 mm 0 W/m -7,8 C -6,4 C 6,4 km/h (2 Bft) 100,00 %
16.12.2018 07:09 23,7 C -6,5 C -6,7 C 0,0 C 23 % 90 % 1020,0 hPa 0,0 l/m 4,8 km/h (1 Bft) O-SO 112 0,000 mm 0 W/m -7,9 C -6,5 C 6,4 km/h (2 Bft) 100,00 %
16.12.2018 07:08 23,8 C -6,6 C -6,7 C 0,0 C 23 % 90 % 1020,0 hPa 0,0 l/m 3,2 km/h (1 Bft) O-SO 112 0,000 mm 0 W/m -8,0 C -6,6 C 6,4 km/h (2 Bft) 100,00 %
16.12.2018 07:07 23,8 C -6,6 C -6,7 C 0,0 C 23 % 90 % 1020,0 hPa 0,0 l/m 3,2 km/h (1 Bft) O-SO 112 0,000 mm 0 W/m -8,0 C -6,6 C 4,8 km/h (1 Bft) 100,00 %
16.12.2018 07:06 23,8 C -6,6 C -6,7 C 0,0 C 23 % 90 % 1020,0 hPa 0,0 l/m 3,2 km/h (1 Bft) O-SO 112 0,000 mm 0 W/m -8,0 C -6,6 C 6,4 km/h (2 Bft) 95,65 %
16.12.2018 07:05 23,8 C -6,7 C -6,7 C 0,0 C 23 % 90 % 1020,1 hPa 0,0 l/m 3,2 km/h (1 Bft) O-SO 112 0,000 mm 0 W/m -8,1 C -6,7 C 4,8 km/h (1 Bft) 100,00 %
16.12.2018 07:04 23,9 C -6,8 C -6,7 C 0,0 C 23 % 90 % 1020,1 hPa 0,0 l/m 3,2 km/h (1 Bft) O-SO 112 0,000 mm 0 W/m -8,2 C -6,8 C 4,8 km/h (1 Bft) 100,00 %
16.12.2018 07:03 24,0 C -6,8 C -6,7 C 0,0 C 22 % 90 % 1020,1 hPa 0,0 l/m 3,2 km/h (1 Bft) O-SO 112 0,000 mm 0 W/m -8,2 C -6,8 C 6,4 km/h (2 Bft) 100,00 %
16.12.2018 07:02 24,1 C -6,8 C -7,2 C 0,0 C 22 % 90 % 1020,1 hPa 0,0 l/m 1,6 km/h (1 Bft) O-SO 112 0,000 mm 0 W/m -8,2 C -6,8 C 3,2 km/h (1 Bft) 100,00 %
16.12.2018 07:01 24,1 C -6,9 C -7,2 C 0,0 C 22 % 90 % 1020,1 hPa 0,0 l/m 3,2 km/h (1 Bft) O-SO 112 0,000 mm 0 W/m -8,3 C -6,9 C 4,8 km/h (1 Bft) 100,00 %
16.12.2018 07:00 24,2 C -6,9 C -7,8 C 0,0 C 22 % 90 % 1020,0 hPa 0,0 l/m 1,6 km/h (1 Bft) O-SO 112 0,000 mm 0 W/m -8,3 C -6,9 C 3,2 km/h (1 Bft) 100,00 %
16.12.2018 06:59 24,3 C -7,0 C -7,2 C 0,0 C 22 % 90 % 1020,2 hPa 0,0 l/m 1,6 km/h (1 Bft) O-SO 112 0,000 mm 0 W/m -8,4 C -7,0 C 3,2 km/h (1 Bft) 95,65 %
16.12.2018 06:58 24,4 C -7,0 C -7,2 C 0,0 C 22 % 90 % 1020,2 hPa 0,0 l/m 1,6 km/h (1 Bft) O-SO 112 0,000 mm 0 W/m -8,4 C -7,0 C 3,2 km/h (1 Bft) 100,00 %
16.12.2018 06:57 24,4 C -7,1 C -7,2 C 0,0 C 22 % 90 % 1020,2 hPa 0,0 l/m 1,6 km/h (1 Bft) O-SO 112 0,000 mm 0 W/m -8,5 C -7,1 C 3,2 km/h (1 Bft) 100,00 %
16.12.2018 06:56 24,6 C -7,1 C -6,7 C 0,0 C 22 % 90 % 1020,2 hPa 0,0 l/m 1,6 km/h (1 Bft) O-SO 112 0,000 mm 0 W/m -8,5 C -7,1 C 3,2 km/h (1 Bft) 95,65 %
16.12.2018 06:55 24,7 C -7,1 C -6,7 C 0,0 C 22 % 90 % 1020,3 hPa 0,0 l/m 1,6 km/h (1 Bft) O-SO 112 0,000 mm 0 W/m -8,5 C -7,1 C 3,2 km/h (1 Bft) 100,00 %
16.12.2018 06:54 24,7 C -7,1 C -6,7 C 0,0 C 22 % 89 % 1020,3 hPa 0,0 l/m 1,6 km/h (1 Bft) O-SO 112 0,000 mm 0 W/m -8,6 C -7,1 C 3,2 km/h (1 Bft) 95,65 %
16.12.2018 06:53 24,8 C -7,2 C -6,7 C 0,0 C 23 % 89 % 1020,3 hPa 0,0 l/m 4,8 km/h (1 Bft) O-SO 112 0,000 mm 0 W/m -8,7 C -7,2 C 4,8 km/h (1 Bft) 100,00 %
16.12.2018 06:52 24,9 C -7,2 C -7,8 C 0,0 C 22 % 89 % 1020,3 hPa 0,0 l/m 0,0 km/h (0 Bft) O 90 0,000 mm 0 W/m -8,7 C -7,2 C 3,2 km/h (1 Bft) 100,00 %
16.12.2018 06:51 25,0 C -7,2 C -7,8 C 0,0 C 23 % 89 % 1020,4 hPa 0,0 l/m 0,0 km/h (0 Bft) N 0 0,000 mm 0 W/m -8,7 C -7,2 C 0,0 km/h (0 Bft) 95,65 %
16.12.2018 06:50 25,1 C -7,2 C -8,3 C 0,0 C 23 % 89 % 1020,4 hPa 0,0 l/m 0,0 km/h (0 Bft) N 0 0,000 mm 0 W/m -8,7 C -7,2 C 0,0 km/h (0 Bft) 100,00 %
16.12.2018 06:49 25,1 C -7,2 C -8,3 C 0,0 C 24 % 89 % 1020,4 hPa 0,0 l/m 0,0 km/h (0 Bft) N 0 0,000 mm 0 W/m -8,7 C -7,2 C 0,0 km/h (0 Bft) 100,00 %
16.12.2018 06:48 25,2 C -7,2 C -8,9 C 0,0 C 25 % 89 % 1020,4 hPa 0,0 l/m 0,0 km/h (0 Bft) N 0 0,000 mm 0 W/m -8,7 C -7,2 C 0,0 km/h (0 Bft) 95,65 %
16.12.2018 06:47 25,2 C -7,2 C -8,9 C 0,0 C 26 % 89 % 1020,4 hPa 0,0 l/m 0,0 km/h (0 Bft) N 0 0,000 mm 0 W/m -8,7 C -7,2 C 0,0 km/h (0 Bft) 100,00 %
16.12.2018 06:46 25,3 C -7,2 C -8,9 C 0,0 C 26 % 89 % 1020,5 hPa 0,0 l/m 0,0 km/h (0 Bft) N 0 0,000 mm 0 W/m -8,7 C -7,2 C 0,0 km/h (0 Bft) 91,30 %
16.12.2018 06:45 25,3 C -7,2 C -8,9 C 0,0 C 26 % 89 % 1020,5 hPa 0,0 l/m 0,0 km/h (0 Bft) N 0 0,000 mm 0 W/m -8,7 C -7,2 C 0,0 km/h (0 Bft) 100,00 %
16.12.2018 06:44 25,4 C -7,1 C -8,9 C 0,0 C 26 % 89 % 1020,5 hPa 0,0 l/m 0,0 km/h (0 Bft) N 0 0,000 mm 0 W/m -8,6 C -7,1 C 0,0 km/h (0 Bft) 100,00 %
16.12.2018 06:43 25,4 C -7,1 C -8,9 C 0,0 C 27 % 89 % 1020,5 hPa 0,0 l/m 0,0 km/h (0 Bft) N 0 0,000 mm 0 W/m -8,6 C -7,1 C 0,0 km/h (0 Bft) 100,00 %
16.12.2018 06:42 25,5 C -7,1 C -8,9 C 0,0 C 27 % 89 % 1020,6 hPa 0,0 l/m 0,0 km/h (0 Bft) N 0 0,000 mm 0 W/m -8,6 C -7,1 C 0,0 km/h (0 Bft) 100,00 %
16.12.2018 06:41 25,6 C -7,1 C -8,9 C 0,0 C 27 % 89 % 1020,5 hPa 0,0 l/m 0,0 km/h (0 Bft) N 0 0,000 mm 0 W/m -8,6 C -7,1 C 0,0 km/h (0 Bft) 95,65 %
16.12.2018 06:40 25,6 C -7,1 C -8,9 C 0,0 C 28 % 89 % 1020,6 hPa 0,0 l/m 0,0 km/h (0 Bft) N 0 0,000 mm 0 W/m -8,6 C -7,1 C 0,0 km/h (0 Bft) 100,00 %
16.12.2018 06:39 25,7 C -7,1 C -8,9 C 0,0 C 28 % 89 % 1020,5 hPa 0,0 l/m 0,0 km/h (0 Bft) N 0 0,000 mm 0 W/m -8,6 C -7,1 C 0,0 km/h (0 Bft) 95,65 %
16.12.2018 06:38 25,7 C -7,1 C -8,9 C 0,0 C 29 % 89 % 1020,5 hPa 0,0 l/m 0,0 km/h (0 Bft) N 0 0,000 mm 0 W/m -8,6 C -7,1 C 0,0 km/h (0 Bft) 100,00 %
16.12.2018 06:37 25,8 C -7,1 C -8,9 C 0,0 C 30 % 89 % 1020,6 hPa 0,0 l/m 0,0 km/h (0 Bft) N 0 0,000 mm 0 W/m -8,6 C -7,1 C 0,0 km/h (0 Bft) 100,00 %
16.12.2018 06:36 25,8 C -7,1 C -8,9 C 0,0 C 32 % 89 % 1020,6 hPa 0,0 l/m 0,0 km/h (0 Bft) N 0 0,000 mm 0 W/m -8,6 C -7,1 C 0,0 km/h (0 Bft) 95,65 %
16.12.2018 06:35 25,8 C -7,1 C -8,9 C 0,0 C 32 % 89 % 1020,6 hPa 0,0 l/m 0,0 km/h (0 Bft) N 0 0,000 mm 0 W/m -8,6 C -7,1 C 0,0 km/h (0 Bft) 100,00 %
16.12.2018 06:34 25,8 C -7,1 C -8,9 C 0,0 C 33 % 89 % 1020,6 hPa 0,0 l/m 0,0 km/h (0 Bft) N 0 0,000 mm 0 W/m -8,6 C -7,1 C 0,0 km/h (0 Bft) 95,65 %
16.12.2018 06:33 25,8 C -7,1 C -8,3 C 0,0 C 33 % 89 % 1020,6 hPa 0,0 l/m 0,0 km/h (0 Bft) N 0 0,000 mm 0 W/m -8,6 C -7,1 C 0,0 km/h (0 Bft) 100,00 %
16.12.2018 06:32 25,8 C -7,1 C -8,3 C 0,0 C 33 % 89 % 1020,7 hPa 0,0 l/m 0,0 km/h (0 Bft) N 0 0,000 mm 0 W/m -8,6 C -7,1 C 0,0 km/h (0 Bft) 95,65 %
16.12.2018 06:31 25,8 C -7,1 C -8,3 C 0,0 C 34 % 89 % 1020,7 hPa 0,0 l/m 0,0 km/h (0 Bft) N 0 0,000 mm 0 W/m -8,6 C -7,1 C 0,0 km/h (0 Bft) 100,00 %
16.12.2018 06:30 25,8 C -7,1 C -8,3 C 0,0 C 34 % 89 % 1020,7 hPa 0,0 l/m 0,0 km/h (0 Bft) N 0 0,000 mm 0 W/m -8,6 C -7,1 C 0,0 km/h (0 Bft) 95,65 %
16.12.2018 06:29 25,8 C -7,1 C -8,3 C 0,0 C 34 % 89 % 1020,7 hPa 0,0 l/m 0,0 km/h (0 Bft) N 0 0,000 mm 0 W/m -8,6 C -7,1 C 0,0 km/h (0 Bft) 95,65 %
16.12.2018 06:28 25,8 C -7,1 C -8,3 C 0,0 C 35 % 89 % 1020,8 hPa 0,0 l/m 0,0 km/h (0 Bft) N 0 0,000 mm 0 W/m -8,6 C -7,1 C 0,0 km/h (0 Bft) 100,00 %
16.12.2018 06:27 25,8 C -7,2 C -8,3 C 0,0 C 35 % 89 % 1020,7 hPa 0,0 l/m 0,0 km/h (0 Bft) N 0 0,000 mm 0 W/m -8,7 C -7,2 C 0,0 km/h (0 Bft) 95,65 %
16.12.2018 06:26 25,8 C -7,2 C -7,8 C 0,0 C 35 % 89 % 1020,7 hPa 0,0 l/m 0,0 km/h (0 Bft) N 0 0,000 mm 0 W/m -8,7 C -7,2 C 0,0 km/h (0 Bft) 100,00 %
16.12.2018 06:25 25,8 C -7,2 C -7,8 C 0,0 C 35 % 89 % 1020,6 hPa 0,0 l/m 0,0 km/h (0 Bft) N 0 0,000 mm 0 W/m -8,7 C -7,2 C 0,0 km/h (0 Bft) 95,65 %
16.12.2018 06:24 25,8 C -7,2 C -7,8 C 0,0 C 35 % 89 % 1020,8 hPa 0,0 l/m 0,0 km/h (0 Bft) N 0 0,000 mm 0 W/m -8,7 C -7,2 C 0,0 km/h (0 Bft) 91,30 %
16.12.2018 06:23 25,8 C -7,2 C -7,8 C 0,0 C 35 % 89 % 1020,8 hPa 0,0 l/m 0,0 km/h (0 Bft) O 90 0,000 mm 0 W/m -8,7 C -7,2 C 1,6 km/h (1 Bft) 95,65 %
16.12.2018 06:22 25,8 C -7,2 C -7,8 C 0,0 C 35 % 89 % 1020,7 hPa 0,0 l/m 3,2 km/h (1 Bft) O 90 0,000 mm 0 W/m -8,7 C -7,2 C 3,2 km/h (1 Bft) 82,61 %
16.12.2018 06:21 25,8 C -7,3 C -7,8 C 0,0 C 35 % 89 % 1020,7 hPa 0,0 l/m 4,8 km/h (1 Bft) O 90 0,000 mm 0 W/m -8,8 C -7,3 C 4,8 km/h (1 Bft) 95,65 %
16.12.2018 06:20 25,8 C -7,3 C -7,8 C 0,0 C 35 % 89 % 1020,7 hPa 0,0 l/m 4,8 km/h (1 Bft) O 90 0,000 mm 0 W/m -8,8 C -7,3 C 4,8 km/h (1 Bft) 91,30 %
16.12.2018 06:19 25,8 C -7,3 C -7,8 C 0,0 C 35 % 89 % 1020,7 hPa 0,0 l/m 3,2 km/h (1 Bft) O 90 0,000 mm 0 W/m -8,8 C -7,3 C 4,8 km/h (1 Bft) 91,30 %
16.12.2018 06:18 25,8 C -7,3 C -8,3 C 0,0 C 35 % 89 % 1020,7 hPa 0,0 l/m 3,2 km/h (1 Bft) O 90 0,000 mm 0 W/m -8,8 C -7,3 C 4,8 km/h (1 Bft) 100,00 %
16.12.2018 06:17 25,8 C -7,4 C -8,3 C 0,0 C 35 % 89 % 1020,7 hPa 0,0 l/m 1,6 km/h (1 Bft) O 90 0,000 mm 0 W/m -8,9 C -7,4 C 3,2 km/h (1 Bft) 100,00 %
16.12.2018 06:16 25,7 C -7,3 C -8,3 C 0,0 C 35 % 89 % 1020,6 hPa 0,0 l/m 0,0 km/h (0 Bft) N 0 0,000 mm 0 W/m -8,8 C -7,3 C 0,0 km/h (0 Bft) 95,65 %
16.12.2018 06:15 25,7 C -7,4 C -8,3 C 0,0 C 35 % 89 % 1020,6 hPa 0,0 l/m 0,0 km/h (0 Bft) N 0 0,000 mm 0 W/m -8,9 C -7,4 C 0,0 km/h (0 Bft) 95,65 %
16.12.2018 06:14 25,7 C -7,4 C -8,3 C 0,0 C 35 % 89 % 1020,6 hPa 0,0 l/m 0,0 km/h (0 Bft) N 0 0,000 mm 0 W/m -8,9 C -7,4 C 0,0 km/h (0 Bft) 100,00 %
16.12.2018 06:13 25,7 C -7,4 C -8,3 C 0,0 C 35 % 89 % 1020,5 hPa 0,0 l/m 0,0 km/h (0 Bft) N 0 0,000 mm 0 W/m -8,9 C -7,4 C 0,0 km/h (0 Bft) 91,30 %
16.12.2018 06:12 25,7 C -7,4 C -8,3 C 0,0 C 35 % 89 % 1020,6 hPa 0,0 l/m 0,0 km/h (0 Bft) N 0 0,000 mm 0 W/m -8,9 C -7,4 C 0,0 km/h (0 Bft) 86,96 %
16.12.2018 06:11 25,7 C -7,4 C -8,3 C 0,0 C 35 % 89 % 1020,6 hPa 0,0 l/m 0,0 km/h (0 Bft) N 0 0,000 mm 0 W/m -8,9 C -7,4 C 0,0 km/h (0 Bft) 95,65 %
16.12.2018 06:10 25,7 C -7,4 C -8,3 C 0,0 C 34 % 89 % 1020,6 hPa 0,0 l/m 0,0 km/h (0 Bft) N 0 0,000 mm 0 W/m -8,9 C -7,4 C 0,0 km/h (0 Bft) 91,30 %
16.12.2018 06:09 25,7 C -7,4 C -8,3 C 0,0 C 34 % 89 % 1020,6 hPa 0,0 l/m 0,0 km/h (0 Bft) N 0 0,000 mm 0 W/m -8,9 C -7,4 C 0,0 km/h (0 Bft) 100,00 %
16.12.2018 06:08 25,7 C -7,4 C -8,3 C 0,0 C 35 % 89 % 1020,6 hPa 0,0 l/m 0,0 km/h (0 Bft) N 0 0,000 mm 0 W/m -8,9 C -7,4 C 0,0 km/h (0 Bft) 91,30 %
16.12.2018 06:07 25,7 C -7,4 C -8,3 C 0,0 C 34 % 89 % 1020,6 hPa 0,0 l/m 0,0 km/h (0 Bft) N 0 0,000 mm 0 W/m -8,9 C -7,4 C 0,0 km/h (0 Bft) 100,00 %
16.12.2018 06:06 25,7 C -7,4 C -8,3 C 0,0 C 34 % 89 % 1020,6 hPa 0,0 l/m 0,0 km/h (0 Bft) N 0 0,000 mm 0 W/m -8,9 C -7,4 C 0,0 km/h (0 Bft) 91,30 %
16.12.2018 06:05 25,7 C -7,5 C -8,3 C 0,0 C 34 % 89 % 1020,5 hPa 0,0 l/m 0,0 km/h (0 Bft) N 0 0,000 mm 0 W/m -9,0 C -7,5 C 0,0 km/h (0 Bft) 95,65 %
16.12.2018 06:04 25,7 C -7,6 C -8,3 C 0,0 C 34 % 89 % 1020,5 hPa 0,0 l/m 0,0 km/h (0 Bft) O 90 0,000 mm 0 W/m -9,1 C -7,6 C 1,6 km/h (1 Bft) 100,00 %
16.12.2018 06:03 25,7 C -7,5 C -8,3 C 0,0 C 34 % 89 % 1020,4 hPa 0,0 l/m 0,0 km/h (0 Bft) O 90 0,000 mm 0 W/m -9,0 C -7,5 C 3,2 km/h (1 Bft) 95,65 %
16.12.2018 06:02 25,7 C -7,6 C -8,9 C 0,0 C 34 % 89 % 1020,4 hPa 0,0 l/m 0,0 km/h (0 Bft) N 0 0,000 mm 0 W/m -9,1 C -7,6 C 0,0 km/h (0 Bft) 100,00 %
16.12.2018 06:01 25,7 C -7,6 C -8,9 C 0,0 C 34 % 89 % 1020,4 hPa 0,0 l/m 0,0 km/h (0 Bft) N 0 0,000 mm 0 W/m -9,1 C -7,6 C 0,0 km/h (0 Bft) 91,30 %
16.12.2018 06:00 25,7 C -7,6 C -8,9 C 0,0 C 34 % 89 % 1020,4 hPa 0,0 l/m 1,6 km/h (1 Bft) O 90 0,000 mm 0 W/m -9,1 C -7,6 C 3,2 km/h (1 Bft) 95,65 %
16.12.2018 05:59 25,6 C -7,6 C -9,4 C 0,0 C 34 % 89 % 1020,5 hPa 0,0 l/m 1,6 km/h (1 Bft) O 90 0,000 mm 0 W/m -9,1 C -7,6 C 6,4 km/h (2 Bft) 100,00 %
16.12.2018 05:58 25,6 C -7,6 C -9,4 C 0,0 C 34 % 89 % 1020,5 hPa 0,0 l/m 3,2 km/h (1 Bft) N 360 0,000 mm 0 W/m -9,1 C -7,6 C 6,4 km/h (2 Bft) 100,00 %
16.12.2018 05:57 25,6 C -7,6 C -9,4 C 0,0 C 34 % 89 % 1020,5 hPa 0,0 l/m 3,2 km/h (1 Bft) N-NW 337 0,000 mm 0 W/m -9,1 C -7,6 C 3,2 km/h (1 Bft) 100,00 %
16.12.2018 05:56 25,6 C -7,6 C -9,4 C 0,0 C 34 % 89 % 1020,5 hPa 0,0 l/m 3,2 km/h (1 Bft) W-NW 292 0,000 mm 0 W/m -9,1 C -7,6 C 3,2 km/h (1 Bft) 95,65 %
16.12.2018 05:55 25,6 C -7,6 C -8,9 C 0,0 C 34 % 89 % 1020,6 hPa 0,0 l/m 1,6 km/h (1 Bft) W-NW 292 0,000 mm 0 W/m -9,1 C -7,6 C 3,2 km/h (1 Bft) 100,00 %
16.12.2018 05:54 25,6 C -7,6 C -8,9 C 0,0 C 34 % 89 % 1020,6 hPa 0,0 l/m 0,0 km/h (0 Bft) N 0 0,000 mm 0 W/m -9,1 C -7,6 C 0,0 km/h (0 Bft) 100,00 %
16.12.2018 05:53 25,6 C -7,6 C -9,4 C 0,0 C 34 % 89 % 1020,7 hPa 0,0 l/m 0,0 km/h (0 Bft) N 0 0,000 mm 0 W/m -9,1 C -7,6 C 0,0 km/h (0 Bft) 100,00 %
16.12.2018 05:52 25,6 C -7,6 C -9,4 C 0,0 C 34 % 89 % 1020,7 hPa 0,0 l/m 0,0 km/h (0 Bft) N 0 0,000 mm 0 W/m -9,1 C -7,6 C 0,0 km/h (0 Bft) 100,00 %
16.12.2018 05:51 25,6 C -7,6 C -9,4 C 0,0 C 34 % 89 % 1020,7 hPa 0,0 l/m 0,0 km/h (0 Bft) N 0 0,000 mm 0 W/m -9,1 C -7,6 C 0,0 km/h (0 Bft) 95,65 %
16.12.2018 05:50 25,6 C -7,6 C -9,4 C 0,0 C 34 % 89 % 1020,7 hPa 0,0 l/m 0,0 km/h (0 Bft) N 0 0,000 mm 0 W/m -9,1 C -7,6 C 0,0 km/h (0 Bft) 100,00 %
16.12.2018 05:49 25,6 C -7,6 C -9,4 C 0,0 C 34 % 89 % 1020,8 hPa 0,0 l/m 0,0 km/h (0 Bft) N 0 0,000 mm 0 W/m -9,1 C -7,6 C 0,0 km/h (0 Bft) 100,00 %
16.12.2018 05:48 25,6 C -7,6 C -9,4 C 0,0 C 34 % 88 % 1020,8 hPa 0,0 l/m 0,0 km/h (0 Bft) N 0 0,000 mm 0 W/m -9,2 C -7,6 C 0,0 km/h (0 Bft) 95,65 %
16.12.2018 05:47 25,7 C -7,6 C -9,4 C 0,0 C 34 % 88 % 1020,8 hPa 0,0 l/m 0,0 km/h (0 Bft) N 0 0,000 mm 0 W/m -9,2 C -7,6 C 0,0 km/h (0 Bft) 95,65 %
16.12.2018 05:46 25,6 C -7,6 C -9,4 C 0,0 C 34 % 88 % 1020,8 hPa 0,0 l/m 0,0 km/h (0 Bft) N 0 0,000 mm 0 W/m -9,2 C -7,6 C 0,0 km/h (0 Bft) 95,65 %
16.12.2018 05:45 25,7 C -7,6 C -9,4 C 0,0 C 34 % 88 % 1020,9 hPa 0,0 l/m 0,0 km/h (0 Bft) N 0 0,000 mm 0 W/m -9,2 C -7,6 C 0,0 km/h (0 Bft) 100,00 %
16.12.2018 05:44 25,7 C -7,6 C -9,4 C 0,0 C 34 % 88 % 1020,9 hPa 0,0 l/m 0,0 km/h (0 Bft) N 0 0,000 mm 0 W/m -9,2 C -7,6 C 0,0 km/h (0 Bft) 100,00 %
16.12.2018 05:43 25,7 C -7,6 C -9,4 C 0,0 C 34 % 88 % 1020,9 hPa 0,0 l/m 0,0 km/h (0 Bft) N 0 0,000 mm 0 W/m -9,2 C -7,6 C 0,0 km/h (0 Bft) 100,00 %
16.12.2018 05:42 25,6 C -7,6 C -9,4 C 0,0 C 34 % 88 % 1020,9 hPa 0,0 l/m 0,0 km/h (0 Bft) N 0 0,000 mm 0 W/m -9,2 C -7,6 C 0,0 km/h (0 Bft) 100,00 %
16.12.2018 05:41 25,6 C -7,6 C -9,4 C 0,0 C 34 % 88 % 1020,9 hPa 0,0 l/m 0,0 km/h (0 Bft) N 0 0,000 mm 0 W/m -9,2 C -7,6 C 0,0 km/h (0 Bft) 100,00 %
16.12.2018 05:40 25,6 C -7,6 C -9,4 C 0,0 C 34 % 88 % 1020,9 hPa 0,0 l/m 0,0 km/h (0 Bft) N 0 0,000 mm 0 W/m -9,2 C -7,6 C 0,0 km/h (0 Bft) 100,00 %
16.12.2018 05:39 25,6 C -7,6 C -9,4 C 0,0 C 34 % 88 % 1021,0 hPa 0,0 l/m 0,0 km/h (0 Bft) N 0 0,000 mm 0 W/m -9,2 C -7,6 C 0,0 km/h (0 Bft) 100,00 %
16.12.2018 05:38 25,6 C -7,6 C -9,4 C 0,0 C 34 % 88 % 1021,0 hPa 0,0 l/m 0,0 km/h (0 Bft) N 0 0,000 mm 0 W/m -9,2 C -7,6 C 0,0 km/h (0 Bft) 100,00 %
16.12.2018 05:37 25,6 C -7,6 C -9,4 C 0,0 C 34 % 88 % 1021,0 hPa 0,0 l/m 0,0 km/h (0 Bft) N 0 0,000 mm 0 W/m -9,2 C -7,6 C 0,0 km/h (0 Bft) 95,65 %
16.12.2018 05:36 25,6 C -7,6 C -9,4 C 0,0 C 34 % 88 % 1021,0 hPa 0,0 l/m 0,0 km/h (0 Bft) N 0 0,000 mm 0 W/m -9,2 C -7,6 C 0,0 km/h (0 Bft) 100,00 %
16.12.2018 05:35 25,6 C -7,6 C -9,4 C 0,0 C 34 % 88 % 1021,5 hPa 0,0 l/m 0,0 km/h (0 Bft) N 0 0,000 mm 0 W/m -9,2 C -7,6 C 0,0 km/h (0 Bft) 100,00 %
16.12.2018 05:34 25,6 C -7,6 C -9,4 C 0,0 C 34 % 88 % 1021,0 hPa 0,0 l/m 0,0 km/h (0 Bft) N 0 0,000 mm 0 W/m -9,2 C -7,6 C 0,0 km/h (0 Bft) 100,00 %
16.12.2018 05:33 25,6 C -7,6 C -9,4 C 0,0 C 34 % 88 % 1021,0 hPa 0,0 l/m 0,0 km/h (0 Bft) N 0 0,000 mm 0 W/m -9,2 C -7,6 C 0,0 km/h (0 Bft) 100,00 %
16.12.2018 05:32 25,6 C -7,6 C -9,4 C 0,0 C 34 % 88 % 1021,1 hPa 0,0 l/m 0,0 km/h (0 Bft) N 0 0,000 mm 0 W/m -9,2 C -7,6 C 0,0 km/h (0 Bft) 100,00 %
16.12.2018 05:31 25,6 C -7,6 C -9,4 C 0,0 C 34 % 88 % 1021,1 hPa 0,0 l/m 0,0 km/h (0 Bft) N 0 0,000 mm 0 W/m -9,2 C -7,6 C 0,0 km/h (0 Bft) 100,00 %
16.12.2018 05:30 25,7 C -7,6 C -9,4 C 0,0 C 34 % 88 % 1021,1 hPa 0,0 l/m 0,0 km/h (0 Bft) N 0 0,000 mm 0 W/m -9,2 C -7,6 C 0,0 km/h (0 Bft) 100,00 %
16.12.2018 05:29 25,6 C -7,6 C -9,4 C 0,0 C 34 % 88 % 1021,1 hPa 0,0 l/m 0,0 km/h (0 Bft) N 0 0,000 mm 0 W/m -9,2 C -7,6 C 0,0 km/h (0 Bft) 100,00 %
16.12.2018 05:28 25,7 C -7,6 C -9,4 C 0,0 C 34 % 88 % 1021,1 hPa 0,0 l/m 0,0 km/h (0 Bft) N 0 0,000 mm 0 W/m -9,2 C -7,6 C 0,0 km/h (0 Bft) 100,00 %
16.12.2018 05:27 25,7 C -7,6 C -9,4 C 0,0 C 34 % 88 % 1021,1 hPa 0,0 l/m 0,0 km/h (0 Bft) N 0 0,000 mm 0 W/m -9,2 C -7,6 C 0,0 km/h (0 Bft) 100,00 %
16.12.2018 05:26 25,7 C -7,6 C -9,4 C 0,0 C 34 % 88 % 1021,1 hPa 0,0 l/m 0,0 km/h (0 Bft) N 0 0,000 mm 0 W/m -9,2 C -7,6 C 0,0 km/h (0 Bft) 100,00 %
16.12.2018 05:25 25,6 C -7,5 C -9,4 C 0,0 C 34 % 88 % 1021,1 hPa 0,0 l/m 0,0 km/h (0 Bft) N 0 0,000 mm 0 W/m -9,1 C -7,5 C 0,0 km/h (0 Bft) 100,00 %
16.12.2018 05:24 25,6 C -7,5 C -9,4 C 0,0 C 34 % 88 % 1021,1 hPa 0,0 l/m 0,0 km/h (0 Bft) N 0 0,000 mm 0 W/m -9,1 C -7,5 C 0,0 km/h (0 Bft) 100,00 %
16.12.2018 05:23 25,6 C -7,6 C -9,4 C 0,0 C 34 % 88 % 1021,1 hPa 0,0 l/m 0,0 km/h (0 Bft) N 0 0,000 mm 0 W/m -9,2 C -7,6 C 0,0 km/h (0 Bft) 100,00 %
16.12.2018 05:22 25,6 C -7,5 C -9,4 C 0,0 C 34 % 88 % 1021,1 hPa 0,0 l/m 0,0 km/h (0 Bft) N 0 0,000 mm 0 W/m -9,1 C -7,5 C 0,0 km/h (0 Bft) 100,00 %
16.12.2018 05:21 25,6 C -7,5 C -9,4 C 0,0 C 34 % 88 % 1021,1 hPa 0,0 l/m 0,0 km/h (0 Bft) N 0 0,000 mm 0 W/m -9,1 C -7,5 C 0,0 km/h (0 Bft) 100,00 %
16.12.2018 05:20 25,6 C -7,5 C -9,4 C 0,0 C 34 % 88 % 1021,1 hPa 0,0 l/m 0,0 km/h (0 Bft) N 0 0,000 mm 0 W/m -9,1 C -7,5 C 0,0 km/h (0 Bft) 30,43 %
16.12.2018 05:19 25,6 C -7,5 C -9,4 C 0,0 C 34 % 88 % 1021,1 hPa 0,0 l/m 0,0 km/h (0 Bft) N 0 0,000 mm 0 W/m -9,1 C -7,5 C 0,0 km/h (0 Bft) 69,57 %
16.12.2018 05:18 25,6 C -7,4 C -9,4 C 0,0 C 34 % 88 % 1021,1 hPa 0,0 l/m 0,0 km/h (0 Bft) N 0 0,000 mm 0 W/m -9,0 C -7,4 C 0,0 km/h (0 Bft) 100,00 %
16.12.2018 05:17 25,6 C -7,4 C -9,4 C 0,0 C 34 % 88 % 1021,1 hPa 0,0 l/m 0,0 km/h (0 Bft) N 0 0,000 mm 0 W/m -9,0 C -7,4 C 0,0 km/h (0 Bft) 100,00 %
16.12.2018 05:16 25,6 C -7,4 C -9,4 C 0,0 C 34 % 88 % 1021,1 hPa 0,0 l/m 0,0 km/h (0 Bft) N 0 0,000 mm 0 W/m -9,0 C -7,4 C 0,0 km/h (0 Bft) 100,00 %
16.12.2018 05:15 25,6 C -7,4 C -9,4 C 0,0 C 34 % 88 % 1021,1 hPa 0,0 l/m 0,0 km/h (0 Bft) N 0 0,000 mm 0 W/m -9,0 C -7,4 C 0,0 km/h (0 Bft) 100,00 %
16.12.2018 05:14 25,6 C -7,4 C -9,4 C 0,0 C 34 % 88 % 1021,1 hPa 0,0 l/m 0,0 km/h (0 Bft) N 0 0,000 mm 0 W/m -9,0 C -7,4 C 0,0 km/h (0 Bft) 100,00 %
16.12.2018 05:13 25,6 C -7,4 C -9,4 C 0,0 C 34 % 88 % 1021,1 hPa 0,0 l/m 0,0 km/h (0 Bft) N 0 0,000 mm 0 W/m -9,0 C -7,4 C 0,0 km/h (0 Bft) 100,00 %
16.12.2018 05:12 25,6 C -7,4 C -9,4 C 0,0 C 34 % 88 % 1021,1 hPa 0,0 l/m 0,0 km/h (0 Bft) N 0 0,000 mm 0 W/m -9,0 C -7,4 C 0,0 km/h (0 Bft) 100,00 %
16.12.2018 05:11 25,6 C -7,4 C -9,4 C 0,0 C 34 % 88 % 1021,1 hPa 0,0 l/m 0,0 km/h (0 Bft) N 0 0,000 mm 0 W/m -9,0 C -7,4 C 0,0 km/h (0 Bft) 100,00 %
16.12.2018 05:10 25,7 C -7,4 C -9,4 C 0,0 C 34 % 88 % 1021,2 hPa 0,0 l/m 0,0 km/h (0 Bft) N 0 0,000 mm 0 W/m -9,0 C -7,4 C 0,0 km/h (0 Bft) 100,00 %
16.12.2018 05:09 25,7 C -7,4 C -9,4 C 0,0 C 34 % 88 % 1021,1 hPa 0,0 l/m 0,0 km/h (0 Bft) N 0 0,000 mm 0 W/m -9,0 C -7,4 C 0,0 km/h (0 Bft) 100,00 %
16.12.2018 05:08 25,6 C -7,4 C -9,4 C 0,0 C 34 % 88 % 1021,1 hPa 0,0 l/m 0,0 km/h (0 Bft) N 0 0,000 mm 0 W/m -9,0 C -7,4 C 0,0 km/h (0 Bft) 100,00 %
16.12.2018 05:07 25,5 C -7,3 C -9,4 C 0,0 C 34 % 88 % 1021,2 hPa 0,0 l/m 0,0 km/h (0 Bft) N 0 0,000 mm 0 W/m -8,9 C -7,3 C 0,0 km/h (0 Bft) 100,00 %
16.12.2018 05:06 25,6 C -7,3 C -9,4 C 0,0 C 34 % 88 % 1021,2 hPa 0,0 l/m 0,0 km/h (0 Bft) N 0 0,000 mm 0 W/m -8,9 C -7,3 C 0,0 km/h (0 Bft) 100,00 %
16.12.2018 05:05 25,6 C -7,3 C -9,4 C 0,0 C 34 % 88 % 1021,2 hPa 0,0 l/m 0,0 km/h (0 Bft) N 0 0,000 mm 0 W/m -8,9 C -7,3 C 0,0 km/h (0 Bft) 100,00 %
16.12.2018 05:04 25,5 C -7,3 C -8,9 C 0,0 C 34 % 88 % 1021,2 hPa 0,0 l/m 0,0 km/h (0 Bft) N 0 0,000 mm 0 W/m -8,9 C -7,3 C 0,0 km/h (0 Bft) 100,00 %
16.12.2018 05:03 25,6 C -7,3 C -8,9 C 0,0 C 34 % 88 % 1021,2 hPa 0,0 l/m 0,0 km/h (0 Bft) N 0 0,000 mm 0 W/m -8,9 C -7,3 C 0,0 km/h (0 Bft) 95,65 %
16.12.2018 05:02 25,6 C -7,3 C -8,9 C 0,0 C 34 % 88 % 1021,2 hPa 0,0 l/m 0,0 km/h (0 Bft) N 0 0,000 mm 0 W/m -8,9 C -7,3 C 0,0 km/h (0 Bft) 100,00 %
16.12.2018 05:01 25,6 C -7,3 C -8,9 C 0,0 C 34 % 88 % 1021,1 hPa 0,0 l/m 0,0 km/h (0 Bft) N 0 0,000 mm 0 W/m -8,9 C -7,3 C 0,0 km/h (0 Bft) 86,96 %
16.12.2018 05:00 25,6 C -7,3 C -9,4 C 0,0 C 34 % 88 % 1021,1 hPa 0,0 l/m 0,0 km/h (0 Bft) N 0 0,000 mm 0 W/m -8,9 C -7,3 C 0,0 km/h (0 Bft) 100,00 %
16.12.2018 04:59 25,6 C -7,3 C -9,4 C 0,0 C 34 % 88 % 1021,1 hPa 0,0 l/m 0,0 km/h (0 Bft) N 0 0,000 mm 0 W/m -8,9 C -7,3 C 0,0 km/h (0 Bft) 100,00 %
16.12.2018 04:58 25,6 C -7,3 C -8,9 C 0,0 C 34 % 88 % 1021,1 hPa 0,0 l/m 0,0 km/h (0 Bft) N 0 0,000 mm 0 W/m -8,9 C -7,3 C 0,0 km/h (0 Bft) 100,00 %
16.12.2018 04:57 25,6 C -7,3 C -9,4 C 0,0 C 34 % 88 % 1021,1 hPa 0,0 l/m 0,0 km/h (0 Bft) N 0 0,000 mm 0 W/m -8,9 C -7,3 C 0,0 km/h (0 Bft) 100,00 %
16.12.2018 04:56 25,6 C -7,3 C -9,4 C 0,0 C 34 % 88 % 1021,1 hPa 0,0 l/m 0,0 km/h (0 Bft) N 0 0,000 mm 0 W/m -8,9 C -7,3 C 0,0 km/h (0 Bft) 100,00 %
16.12.2018 04:55 25,6 C -7,3 C -9,4 C 0,0 C 34 % 88 % 1021,1 hPa 0,0 l/m 0,0 km/h (0 Bft) N 0 0,000 mm 0 W/m -8,9 C -7,3 C 0,0 km/h (0 Bft) 100,00 %
16.12.2018 04:54 25,6 C -7,2 C -9,4 C 0,0 C 34 % 88 % 1021,1 hPa 0,0 l/m 0,0 km/h (0 Bft) N 0 0,000 mm 0 W/m -8,8 C -7,2 C 0,0 km/h (0 Bft) 100,00 %
16.12.2018 04:53 25,6 C -7,2 C -9,4 C 0,0 C 34 % 88 % 1021,1 hPa 0,0 l/m 0,0 km/h (0 Bft) N 0 0,000 mm 0 W/m -8,8 C -7,2 C 0,0 km/h (0 Bft) 100,00 %
16.12.2018 04:52 25,6 C -7,2 C -9,4 C 0,0 C 34 % 88 % 1021,2 hPa 0,0 l/m 0,0 km/h (0 Bft) N 0 0,000 mm 0 W/m -8,8 C -7,2 C 0,0 km/h (0 Bft) 95,65 %
16.12.2018 04:51 25,6 C -7,2 C -9,4 C 0,0 C 34 % 88 % 1021,1 hPa 0,0 l/m 0,0 km/h (0 Bft) N 0 0,000 mm 0 W/m -8,8 C -7,2 C 0,0 km/h (0 Bft) 86,96 %
16.12.2018 04:50 25,5 C -7,2 C -9,4 C 0,0 C 34 % 88 % 1021,2 hPa 0,0 l/m 0,0 km/h (0 Bft) N 0 0,000 mm 0 W/m -8,8 C -7,2 C 0,0 km/h (0 Bft) 95,65 %
16.12.2018 04:49 25,5 C -7,2 C -9,4 C 0,0 C 34 % 88 % 1021,2 hPa 0,0 l/m 0,0 km/h (0 Bft) N 0 0,000 mm 0 W/m -8,8 C -7,2 C 0,0 km/h (0 Bft) 100,00 %
16.12.2018 04:48 25,6 C -7,2 C -9,4 C 0,0 C 34 % 88 % 1021,3 hPa 0,0 l/m 0,0 km/h (0 Bft) N 0 0,000 mm 0 W/m -8,8 C -7,2 C 0,0 km/h (0 Bft) 95,65 %
16.12.2018 04:47 25,5 C -7,2 C -8,9 C 0,0 C 34 % 88 % 1021,3 hPa 0,0 l/m 0,0 km/h (0 Bft) N 0 0,000 mm 0 W/m -8,8 C -7,2 C 0,0 km/h (0 Bft) 100,00 %
16.12.2018 04:46 25,5 C -7,2 C -8,9 C 0,0 C 34 % 88 % 1021,3 hPa 0,0 l/m 0,0 km/h (0 Bft) N 0 0,000 mm 0 W/m -8,8 C -7,2 C 0,0 km/h (0 Bft) 95,65 %
16.12.2018 04:45 25,6 C -7,1 C -8,9 C 0,0 C 34 % 88 % 1021,4 hPa 0,0 l/m 0,0 km/h (0 Bft) N 0 0,000 mm 0 W/m -8,7 C -7,1 C 0,0 km/h (0 Bft) 100,00 %
16.12.2018 04:44 25,6 C -7,1 C -8,9 C 0,0 C 34 % 88 % 1021,4 hPa 0,0 l/m 0,0 km/h (0 Bft) N 0 0,000 mm 0 W/m -8,7 C -7,1 C 0,0 km/h (0 Bft) 100,00 %
16.12.2018 04:43 25,6 C -7,1 C -8,9 C 0,0 C 34 % 88 % 1021,4 hPa 0,0 l/m 0,0 km/h (0 Bft) N 0 0,000 mm 0 W/m -8,7 C -7,1 C 0,0 km/h (0 Bft) 95,65 %
16.12.2018 04:42 25,5 C -7,1 C -8,9 C 0,0 C 34 % 88 % 1021,4 hPa 0,0 l/m 0,0 km/h (0 Bft) N 0 0,000 mm 0 W/m -8,7 C -7,1 C 0,0 km/h (0 Bft) 100,00 %
16.12.2018 04:41 25,6 C -7,1 C -8,9 C 0,0 C 34 % 88 % 1021,4 hPa 0,0 l/m 0,0 km/h (0 Bft) N 0 0,000 mm 0 W/m -8,7 C -7,1 C 0,0 km/h (0 Bft) 91,30 %
16.12.2018 04:40 25,6 C -7,1 C -8,9 C 0,0 C 34 % 88 % 1021,4 hPa 0,0 l/m 0,0 km/h (0 Bft) N 0 0,000 mm 0 W/m -8,7 C -7,1 C 0,0 km/h (0 Bft) 100,00 %
16.12.2018 04:39 25,6 C -7,1 C -8,9 C 0,0 C 34 % 88 % 1021,4 hPa 0,0 l/m 0,0 km/h (0 Bft) N 0 0,000 mm 0 W/m -8,7 C -7,1 C 0,0 km/h (0 Bft) 95,65 %
16.12.2018 04:38 25,6 C -7,1 C -8,9 C 0,0 C 34 % 88 % 1021,4 hPa 0,0 l/m 0,0 km/h (0 Bft) N 0 0,000 mm 0 W/m -8,7 C -7,1 C 0,0 km/h (0 Bft) 100,00 %
16.12.2018 04:37 25,6 C -7,0 C -9,4 C 0,0 C 34 % 88 % 1021,4 hPa 0,0 l/m 0,0 km/h (0 Bft) N 0 0,000 mm 0 W/m -8,6 C -7,0 C 0,0 km/h (0 Bft) 100,00 %
16.12.2018 04:36 25,6 C -7,1 C -9,4 C 0,0 C 34 % 88 % 1021,4 hPa 0,0 l/m 0,0 km/h (0 Bft) N 0 0,000 mm 0 W/m -8,7 C -7,1 C 0,0 km/h (0 Bft) 91,30 %
16.12.2018 04:35 25,6 C -7,0 C -8,9 C 0,0 C 34 % 88 % 1021,4 hPa 0,0 l/m 0,0 km/h (0 Bft) N 0 0,000 mm 0 W/m -8,6 C -7,0 C 0,0 km/h (0 Bft) 100,00 %
16.12.2018 04:34 25,6 C -7,0 C -8,9 C 0,0 C 34 % 88 % 1021,4 hPa 0,0 l/m 0,0 km/h (0 Bft) N 0 0,000 mm 0 W/m -8,6 C -7,0 C 0,0 km/h (0 Bft) 95,65 %
16.12.2018 04:33 25,6 C -7,0 C -8,9 C 0,0 C 34 % 88 % 1021,5 hPa 0,0 l/m 0,0 km/h (0 Bft) N 0 0,000 mm 0 W/m -8,6 C -7,0 C 0,0 km/h (0 Bft) 100,00 %
16.12.2018 04:32 25,6 C -7,0 C -8,9 C 0,0 C 34 % 88 % 1021,5 hPa 0,0 l/m 0,0 km/h (0 Bft) N 0 0,000 mm 0 W/m -8,6 C -7,0 C 0,0 km/h (0 Bft) 100,00 %
16.12.2018 04:31 25,5 C -7,0 C -8,9 C 0,0 C 34 % 88 % 1021,5 hPa 0,0 l/m 0,0 km/h (0 Bft) N 0 0,000 mm 0 W/m -8,6 C -7,0 C 0,0 km/h (0 Bft) 100,00 %
16.12.2018 04:30 25,6 C -7,0 C -8,9 C 0,0 C 34 % 88 % 1021,4 hPa 0,0 l/m 0,0 km/h (0 Bft) N 0 0,000 mm 0 W/m -8,6 C -7,0 C 0,0 km/h (0 Bft) 100,00 %
16.12.2018 04:29 25,5 C -6,9 C -8,9 C 0,0 C 34 % 88 % 1021,4 hPa 0,0 l/m 0,0 km/h (0 Bft) N 0 0,000 mm 0 W/m -8,5 C -6,9 C 0,0 km/h (0 Bft) 100,00 %
16.12.2018 04:28 25,6 C -6,9 C -8,9 C 0,0 C 34 % 88 % 1021,5 hPa 0,0 l/m 0,0 km/h (0 Bft) N 0 0,000 mm 0 W/m -8,5 C -6,9 C 0,0 km/h (0 Bft) 100,00 %
16.12.2018 04:27 25,6 C -6,9 C -8,9 C 0,0 C 34 % 88 % 1021,4 hPa 0,0 l/m 0,0 km/h (0 Bft) N 0 0,000 mm 0 W/m -8,5 C -6,9 C 0,0 km/h (0 Bft) 95,65 %
16.12.2018 04:26 25,6 C -6,9 C -8,9 C 0,0 C 34 % 88 % 1021,5 hPa 0,0 l/m 0,0 km/h (0 Bft) N 0 0,000 mm 0 W/m -8,5 C -6,9 C 0,0 km/h (0 Bft) 95,65 %
16.12.2018 04:25 25,6 C -6,8 C -8,9 C 0,0 C 34 % 88 % 1021,5 hPa 0,0 l/m 0,0 km/h (0 Bft) N 0 0,000 mm 0 W/m -8,4 C -6,8 C 0,0 km/h (0 Bft) 100,00 %
16.12.2018 04:24 25,6 C -6,9 C -8,3 C 0,0 C 34 % 88 % 1021,5 hPa 0,0 l/m 0,0 km/h (0 Bft) N 0 0,000 mm 0 W/m -8,5 C -6,9 C 0,0 km/h (0 Bft) 100,00 %
16.12.2018 04:23 25,6 C -6,8 C -8,3 C 0,0 C 34 % 89 % 1021,5 hPa 0,0 l/m 0,0 km/h (0 Bft) N 0 0,000 mm 0 W/m -8,3 C -6,8 C 0,0 km/h (0 Bft) 91,30 %
16.12.2018 04:22 25,6 C -6,8 C -8,3 C 0,0 C 34 % 89 % 1021,4 hPa 0,0 l/m 0,0 km/h (0 Bft) N 0 0,000 mm 0 W/m -8,3 C -6,8 C 0,0 km/h (0 Bft) 100,00 %
16.12.2018 04:21 25,6 C -6,8 C -8,3 C 0,0 C 34 % 89 % 1021,5 hPa 0,0 l/m 0,0 km/h (0 Bft) N 0 0,000 mm 0 W/m -8,3 C -6,8 C 0,0 km/h (0 Bft) 95,65 %
16.12.2018 04:20 25,6 C -6,8 C -8,3 C 0,0 C 34 % 89 % 1021,4 hPa 0,0 l/m 0,0 km/h (0 Bft) N 0 0,000 mm 0 W/m -8,3 C -6,8 C 0,0 km/h (0 Bft) 100,00 %
16.12.2018 04:19 25,6 C -6,8 C -8,9 C 0,0 C 34 % 89 % 1021,4 hPa 0,0 l/m 0,0 km/h (0 Bft) N 0 0,000 mm 0 W/m -8,3 C -6,8 C 0,0 km/h (0 Bft) 95,65 %
16.12.2018 04:18 25,6 C -6,8 C -8,9 C 0,0 C 34 % 89 % 1021,4 hPa 0,0 l/m 0,0 km/h (0 Bft) N 0 0,000 mm 0 W/m -8,3 C -6,8 C 0,0 km/h (0 Bft) 100,00 %
16.12.2018 04:17 25,6 C -6,7 C -8,9 C 0,0 C 34 % 89 % 1021,4 hPa 0,0 l/m 0,0 km/h (0 Bft) N 0 0,000 mm 0 W/m -8,2 C -6,7 C 0,0 km/h (0 Bft) 95,65 %
16.12.2018 04:16 25,5 C -6,7 C -8,9 C 0,0 C 34 % 89 % 1021,4 hPa 0,0 l/m 0,0 km/h (0 Bft) N 0 0,000 mm 0 W/m -8,2 C -6,7 C 0,0 km/h (0 Bft) 100,00 %
16.12.2018 04:15 25,5 C -6,7 C -8,3 C 0,0 C 34 % 89 % 1021,5 hPa 0,0 l/m 0,0 km/h (0 Bft) N 0 0,000 mm 0 W/m -8,2 C -6,7 C 0,0 km/h (0 Bft) 100,00 %
16.12.2018 04:14 25,5 C -6,7 C -8,3 C 0,0 C 34 % 89 % 1021,5 hPa 0,0 l/m 0,0 km/h (0 Bft) N 0 0,000 mm 0 W/m -8,2 C -6,7 C 0,0 km/h (0 Bft) 100,00 %
16.12.2018 04:13 25,6 C -6,7 C -8,3 C 0,0 C 34 % 89 % 1021,5 hPa 0,0 l/m 0,0 km/h (0 Bft) N 0 0,000 mm 0 W/m -8,2 C -6,7 C 0,0 km/h (0 Bft) 100,00 %
16.12.2018 04:12 25,6 C -6,7 C -8,3 C 0,0 C 34 % 89 % 1021,5 hPa 0,0 l/m 0,0 km/h (0 Bft) N 0 0,000 mm 0 W/m -8,2 C -6,7 C 0,0 km/h (0 Bft) 95,65 %
16.12.2018 04:11 25,5 C -6,7 C -8,3 C 0,0 C 34 % 89 % 1021,4 hPa 0,0 l/m 0,0 km/h (0 Bft) N 0 0,000 mm 0 W/m -8,2 C -6,7 C 0,0 km/h (0 Bft) 95,65 %
16.12.2018 04:10 25,6 C -6,7 C -8,3 C 0,0 C 34 % 89 % 1021,5 hPa 0,0 l/m 0,0 km/h (0 Bft) N 0 0,000 mm 0 W/m -8,2 C -6,7 C 0,0 km/h (0 Bft) 100,00 %
16.12.2018 04:09 25,6 C -6,7 C -8,3 C 0,0 C 34 % 88 % 1021,5 hPa 0,0 l/m 0,0 km/h (0 Bft) N 0 0,000 mm 0 W/m -8,3 C -6,7 C 0,0 km/h (0 Bft) 95,65 %
16.12.2018 04:08 25,6 C -6,6 C -8,3 C 0,0 C 34 % 88 % 1021,5 hPa 0,0 l/m 0,0 km/h (0 Bft) N 0 0,000 mm 0 W/m -8,2 C -6,6 C 0,0 km/h (0 Bft) 100,00 %
16.12.2018 04:07 25,6 C -6,6 C -8,3 C 0,0 C 34 % 88 % 1021,5 hPa 0,0 l/m 0,0 km/h (0 Bft) N 0 0,000 mm 0 W/m -8,2 C -6,6 C 0,0 km/h (0 Bft) 100,00 %
16.12.2018 04:06 25,6 C -6,6 C -8,3 C 0,0 C 34 % 88 % 1021,5 hPa 0,0 l/m 0,0 km/h (0 Bft) N 0 0,000 mm 0 W/m -8,2 C -6,6 C 0,0 km/h (0 Bft) 100,00 %
16.12.2018 04:05 25,6 C -6,6 C -7,8 C 0,0 C 34 % 88 % 1021,5 hPa 0,0 l/m 0,0 km/h (0 Bft) N 0 0,000 mm 0 W/m -8,2 C -6,6 C 0,0 km/h (0 Bft) 95,65 %
16.12.2018 04:04 25,6 C -6,6 C -7,8 C 0,0 C 34 % 88 % 1021,5 hPa 0,0 l/m 0,0 km/h (0 Bft) N 0 0,000 mm 0 W/m -8,2 C -6,6 C 0,0 km/h (0 Bft) 100,00 %
16.12.2018 04:03 25,6 C -6,6 C -7,8 C 0,0 C 34 % 88 % 1021,5 hPa 0,0 l/m 0,0 km/h (0 Bft) N 0 0,000 mm 0 W/m -8,2 C -6,6 C 0,0 km/h (0 Bft) 100,00 %
16.12.2018 04:02 25,7 C -6,5 C -7,8 C 0,0 C 34 % 88 % 1021,5 hPa 0,0 l/m 0,0 km/h (0 Bft) N 0 0,000 mm 0 W/m -8,1 C -6,5 C 0,0 km/h (0 Bft) 100,00 %
16.12.2018 04:01 25,7 C -6,5 C -7,8 C 0,0 C 34 % 88 % 1021,5 hPa 0,0 l/m 0,0 km/h (0 Bft) N 0 0,000 mm 0 W/m -8,1 C -6,5 C 0,0 km/h (0 Bft) 100,00 %
16.12.2018 04:00 25,6 C -6,4 C -7,2 C 0,0 C 34 % 88 % 1021,5 hPa 0,0 l/m 1,6 km/h (1 Bft) W-NW 292 0,000 mm 0 W/m -8,1 C -6,4 C 3,2 km/h (1 Bft) 100,00 %
16.12.2018 03:59 25,6 C -6,4 C -7,2 C 0,0 C 34 % 89 % 1021,6 hPa 0,0 l/m 3,2 km/h (1 Bft) W-NW 292 0,000 mm 0 W/m -7,9 C -6,4 C 3,2 km/h (1 Bft) 100,00 %
16.12.2018 03:58 25,6 C -6,4 C -7,2 C 0,0 C 34 % 89 % 1021,6 hPa 0,0 l/m 1,6 km/h (1 Bft) W-NW 292 0,000 mm 0 W/m -7,9 C -6,4 C 3,2 km/h (1 Bft) 95,65 %
16.12.2018 03:57 25,5 C -6,4 C -7,2 C 0,0 C 34 % 89 % 1021,5 hPa 0,0 l/m 0,0 km/h (0 Bft) N 0 0,000 mm 0 W/m -7,9 C -6,4 C 0,0 km/h (0 Bft) 100,00 %
16.12.2018 03:56 25,6 C -6,4 C -7,2 C 0,0 C 34 % 89 % 1021,5 hPa 0,0 l/m 0,0 km/h (0 Bft) N 0 0,000 mm 0 W/m -7,9 C -6,4 C 0,0 km/h (0 Bft) 100,00 %
16.12.2018 03:55 25,6 C -6,4 C -7,8 C 0,0 C 34 % 89 % 1021,6 hPa 0,0 l/m 0,0 km/h (0 Bft) N 0 0,000 mm 0 W/m -7,9 C -6,4 C 0,0 km/h (0 Bft) 95,65 %
16.12.2018 03:54 25,6 C -6,4 C -7,2 C 0,0 C 34 % 89 % 1021,6 hPa 0,0 l/m 0,0 km/h (0 Bft) N 0 0,000 mm 0 W/m -7,9 C -6,4 C 0,0 km/h (0 Bft) 100,00 %
16.12.2018 03:53 25,6 C -6,4 C -7,8 C 0,0 C 34 % 89 % 1021,6 hPa 0,0 l/m 1,6 km/h (1 Bft) W-NW 292 0,000 mm 0 W/m -7,9 C -6,4 C 3,2 km/h (1 Bft) 100,00 %
16.12.2018 03:52 25,6 C -6,4 C -7,8 C 0,0 C 34 % 89 % 1021,6 hPa 0,0 l/m 0,0 km/h (0 Bft) W-NW 292 0,000 mm 0 W/m -7,9 C -6,4 C 1,6 km/h (1 Bft) 100,00 %
16.12.2018 03:51 25,6 C -6,3 C -8,3 C 0,0 C 34 % 89 % 1021,7 hPa 0,0 l/m 1,6 km/h (1 Bft) W-NW 292 0,000 mm 0 W/m -7,8 C -6,3 C 1,6 km/h (1 Bft) 100,00 %
16.12.2018 03:50 25,6 C -6,3 C -8,3 C 0,0 C 34 % 89 % 1021,7 hPa 0,0 l/m 0,0 km/h (0 Bft) N 0 0,000 mm 0 W/m -7,8 C -6,3 C 0,0 km/h (0 Bft) 95,65 %
16.12.2018 03:49 25,6 C -6,3 C -8,3 C 0,0 C 34 % 89 % 1021,7 hPa 0,0 l/m 0,0 km/h (0 Bft) N 0 0,000 mm 0 W/m -7,8 C -6,3 C 0,0 km/h (0 Bft) 100,00 %
16.12.2018 03:48 25,6 C -6,3 C -8,3 C 0,0 C 34 % 89 % 1021,7 hPa 0,0 l/m 0,0 km/h (0 Bft) N 0 0,000 mm 0 W/m -7,8 C -6,3 C 0,0 km/h (0 Bft) 100,00 %
16.12.2018 03:47 25,6 C -6,3 C -8,3 C 0,0 C 34 % 89 % 1021,8 hPa 0,0 l/m 0,0 km/h (0 Bft) N 0 0,000 mm 0 W/m -7,8 C -6,3 C 0,0 km/h (0 Bft) 100,00 %
16.12.2018 03:46 25,6 C -6,3 C -8,3 C 0,0 C 34 % 89 % 1021,8 hPa 0,0 l/m 0,0 km/h (0 Bft) N 0 0,000 mm 0 W/m -7,8 C -6,3 C 0,0 km/h (0 Bft) 100,00 %
16.12.2018 03:45 25,6 C -6,3 C -8,3 C 0,0 C 34 % 89 % 1021,8 hPa 0,0 l/m 0,0 km/h (0 Bft) N 0 0,000 mm 0 W/m -7,8 C -6,3 C 0,0 km/h (0 Bft) 100,00 %
16.12.2018 03:44 25,6 C -6,3 C -8,3 C 0,0 C 34 % 89 % 1021,8 hPa 0,0 l/m 0,0 km/h (0 Bft) N 0 0,000 mm 0 W/m -7,8 C -6,3 C 0,0 km/h (0 Bft) 100,00 %
16.12.2018 03:43 25,6 C -6,3 C -8,3 C 0,0 C 34 % 89 % 1021,8 hPa 0,0 l/m 0,0 km/h (0 Bft) N 0 0,000 mm 0 W/m -7,8 C -6,3 C 0,0 km/h (0 Bft) 95,65 %
16.12.2018 03:42 25,5 C -6,3 C -8,3 C 0,0 C 34 % 89 % 1021,8 hPa 0,0 l/m 0,0 km/h (0 Bft) N 0 0,000 mm 0 W/m -7,8 C -6,3 C 0,0 km/h (0 Bft) 100,00 %
16.12.2018 03:41 25,6 C -6,3 C -8,3 C 0,0 C 34 % 89 % 1021,9 hPa 0,0 l/m 0,0 km/h (0 Bft) N 0 0,000 mm 0 W/m -7,8 C -6,3 C 0,0 km/h (0 Bft) 100,00 %
16.12.2018 03:40 25,6 C -6,2 C -8,3 C 0,0 C 34 % 89 % 1021,9 hPa 0,0 l/m 0,0 km/h (0 Bft) N 0 0,000 mm 0 W/m -7,7 C -6,2 C 0,0 km/h (0 Bft) 95,65 %
16.12.2018 03:39 25,6 C -6,2 C -8,3 C 0,0 C 34 % 89 % 1021,9 hPa 0,0 l/m 0,0 km/h (0 Bft) N 0 0,000 mm 0 W/m -7,7 C -6,2 C 0,0 km/h (0 Bft) 100,00 %
16.12.2018 03:38 25,6 C -6,2 C -8,3 C 0,0 C 34 % 89 % 1022,0 hPa 0,0 l/m 0,0 km/h (0 Bft) N 0 0,000 mm 0 W/m -7,7 C -6,2 C 0,0 km/h (0 Bft) 100,00 %
16.12.2018 03:37 25,6 C -6,2 C -8,3 C 0,0 C 34 % 89 % 1022,0 hPa 0,0 l/m 0,0 km/h (0 Bft) N 0 0,000 mm 0 W/m -7,7 C -6,2 C 0,0 km/h (0 Bft) 100,00 %
16.12.2018 03:36 25,6 C -6,2 C -7,8 C 0,0 C 34 % 89 % 1022,1 hPa 0,0 l/m 0,0 km/h (0 Bft) N 0 0,000 mm 0 W/m -7,7 C -6,2 C 0,0 km/h (0 Bft) 95,65 %
16.12.2018 03:35 25,6 C -6,2 C -7,8 C 0,0 C 34 % 89 % 1022,1 hPa 0,0 l/m 0,0 km/h (0 Bft) N 0 0,000 mm 0 W/m -7,7 C -6,2 C 0,0 km/h (0 Bft) 100,00 %
16.12.2018 03:34 25,6 C -6,2 C -7,8 C 0,0 C 34 % 89 % 1022,1 hPa 0,0 l/m 0,0 km/h (0 Bft) N 0 0,000 mm 0 W/m -7,7 C -6,2 C 0,0 km/h (0 Bft) 100,00 %
16.12.2018 03:33 25,6 C -6,2 C -7,8 C 0,0 C 34 % 89 % 1022,1 hPa 0,0 l/m 0,0 km/h (0 Bft) N 0 0,000 mm 0 W/m -7,7 C -6,2 C 0,0 km/h (0 Bft) 100,00 %
16.12.2018 03:32 25,6 C -6,2 C -7,8 C 0,0 C 34 % 89 % 1022,1 hPa 0,0 l/m 0,0 km/h (0 Bft) N 0 0,000 mm 0 W/m -7,7 C -6,2 C 0,0 km/h (0 Bft) 100,00 %
16.12.2018 03:31 25,6 C -6,2 C -7,8 C 0,0 C 34 % 89 % 1022,2 hPa 0,0 l/m 0,0 km/h (0 Bft) N 0 0,000 mm 0 W/m -7,7 C -6,2 C 0,0 km/h (0 Bft) 95,65 %
16.12.2018 03:30 25,7 C -6,2 C -7,2 C 0,0 C 34 % 89 % 1022,1 hPa 0,0 l/m 0,0 km/h (0 Bft) N 0 0,000 mm 0 W/m -7,7 C -6,2 C 0,0 km/h (0 Bft) 100,00 %
16.12.2018 03:29 25,7 C -6,2 C -7,2 C 0,0 C 34 % 89 % 1022,1 hPa 0,0 l/m 0,0 km/h (0 Bft) N 0 0,000 mm 0 W/m -7,7 C -6,2 C 0,0 km/h (0 Bft) 100,00 %
16.12.2018 03:28 25,7 C -6,2 C -7,2 C 0,0 C 34 % 89 % 1022,2 hPa 0,0 l/m 0,0 km/h (0 Bft) N 0 0,000 mm 0 W/m -7,7 C -6,2 C 0,0 km/h (0 Bft) 100,00 %
16.12.2018 03:27 25,7 C -6,2 C -7,2 C 0,0 C 34 % 89 % 1022,1 hPa 0,0 l/m 0,0 km/h (0 Bft) N 0 0,000 mm 0 W/m -7,7 C -6,2 C 0,0 km/h (0 Bft) 100,00 %
16.12.2018 03:26 25,6 C -6,2 C -7,2 C 0,0 C 34 % 89 % 1022,2 hPa 0,0 l/m 0,0 km/h (0 Bft) N 0 0,000 mm 0 W/m -7,7 C -6,2 C 0,0 km/h (0 Bft) 95,65 %
16.12.2018 03:25 25,6 C -6,2 C -7,2 C 0,0 C 34 % 89 % 1022,2 hPa 0,0 l/m 0,0 km/h (0 Bft) N 0 0,000 mm 0 W/m -7,7 C -6,2 C 0,0 km/h (0 Bft) 100,00 %
16.12.2018 03:24 25,6 C -6,2 C -7,2 C 0,0 C 34 % 89 % 1022,2 hPa 0,0 l/m 0,0 km/h (0 Bft) N 0 0,000 mm 0 W/m -7,7 C -6,2 C 0,0 km/h (0 Bft) 100,00 %
16.12.2018 03:23 25,6 C -6,2 C -7,2 C 0,0 C 34 % 89 % 1022,2 hPa 0,0 l/m 0,0 km/h (0 Bft) N 0 0,000 mm 0 W/m -7,7 C -6,2 C 0,0 km/h (0 Bft) 100,00 %
16.12.2018 03:22 25,6 C -6,2 C -7,2 C 0,0 C 34 % 89 % 1022,2 hPa 0,0 l/m 0,0 km/h (0 Bft) N 0 0,000 mm 0 W/m -7,7 C -6,2 C 0,0 km/h (0 Bft) 100,00 %
16.12.2018 03:21 25,6 C -6,2 C -7,2 C 0,0 C 34 % 89 % 1022,2 hPa 0,0 l/m 0,0 km/h (0 Bft) N 0 0,000 mm 0 W/m -7,7 C -6,2 C 0,0 km/h (0 Bft) 100,00 %
16.12.2018 03:20 25,6 C -6,2 C -7,2 C 0,0 C 34 % 89 % 1022,2 hPa 0,0 l/m 0,0 km/h (0 Bft) N 0 0,000 mm 0 W/m -7,7 C -6,2 C 0,0 km/h (0 Bft) 100,00 %
16.12.2018 03:19 25,6 C -6,3 C -7,2 C 0,0 C 34 % 89 % 1022,3 hPa 0,0 l/m 0,0 km/h (0 Bft) N 0 0,000 mm 0 W/m -7,8 C -6,3 C 0,0 km/h (0 Bft) 100,00 %
16.12.2018 03:18 25,6 C -6,3 C -7,2 C 0,0 C 34 % 89 % 1022,2 hPa 0,0 l/m 1,6 km/h (1 Bft) W-NW 292 0,000 mm 0 W/m -7,8 C -6,3 C 3,2 km/h (1 Bft) 100,00 %
16.12.2018 03:17 25,6 C -6,3 C -7,2 C 0,0 C 34 % 89 % 1022,2 hPa 0,0 l/m 0,0 km/h (0 Bft) W-NW 292 0,000 mm 0 W/m -7,8 C -6,3 C 1,6 km/h (1 Bft) 100,00 %
16.12.2018 03:16 25,6 C -6,3 C -7,2 C 0,0 C 34 % 89 % 1022,2 hPa 0,0 l/m 0,0 km/h (0 Bft) N 0 0,000 mm 0 W/m -7,8 C -6,3 C 0,0 km/h (0 Bft) 91,30 %
16.12.2018 03:15 25,6 C -6,3 C -7,2 C 0,0 C 34 % 89 % 1022,3 hPa 0,0 l/m 0,0 km/h (0 Bft) N 0 0,000 mm 0 W/m -7,8 C -6,3 C 0,0 km/h (0 Bft) 100,00 %
16.12.2018 03:14 25,7 C -6,3 C -7,2 C 0,0 C 34 % 88 % 1022,3 hPa 0,0 l/m 0,0 km/h (0 Bft) N 0 0,000 mm 0 W/m -8,0 C -6,3 C 0,0 km/h (0 Bft) 100,00 %
16.12.2018 03:13 25,7 C -6,4 C -7,2 C 0,0 C 34 % 88 % 1022,2 hPa 0,0 l/m 0,0 km/h (0 Bft) W-NW 292 0,000 mm 0 W/m -8,1 C -6,4 C 1,6 km/h (1 Bft) 100,00 %
16.12.2018 03:12 25,7 C -6,4 C -7,2 C 0,0 C 34 % 88 % 1022,3 hPa 0,0 l/m 0,0 km/h (0 Bft) W-NW 292 0,000 mm 0 W/m -8,1 C -6,4 C 1,6 km/h (1 Bft) 100,00 %
16.12.2018 03:11 25,7 C -6,4 C -7,2 C 0,0 C 34 % 88 % 1022,4 hPa 0,0 l/m 0,0 km/h (0 Bft) W-NW 292 0,000 mm 0 W/m -8,1 C -6,4 C 1,6 km/h (1 Bft) 100,00 %
16.12.2018 03:10 25,7 C -6,4 C -7,2 C 0,0 C 34 % 88 % 1022,3 hPa 0,0 l/m 0,0 km/h (0 Bft) N 0 0,000 mm 0 W/m -8,1 C -6,4 C 0,0 km/h (0 Bft) 100,00 %
16.12.2018 03:09 25,6 C -6,4 C -7,2 C 0,0 C 34 % 88 % 1022,3 hPa 0,0 l/m 0,0 km/h (0 Bft) N 0 0,000 mm 0 W/m -8,1 C -6,4 C 0,0 km/h (0 Bft) 100,00 %
16.12.2018 03:08 25,6 C -6,5 C -7,2 C 0,0 C 34 % 88 % 1022,4 hPa 0,0 l/m 0,0 km/h (0 Bft) N 0 0,000 mm 0 W/m -8,1 C -6,5 C 0,0 km/h (0 Bft) 100,00 %
16.12.2018 03:07 25,6 C -6,5 C -7,2 C 0,0 C 34 % 88 % 1022,3 hPa 0,0 l/m 0,0 km/h (0 Bft) N 0 0,000 mm 0 W/m -8,1 C -6,5 C 0,0 km/h (0 Bft) 100,00 %
16.12.2018 03:06 25,6 C -6,6 C -7,2 C 0,0 C 34 % 88 % 1022,3 hPa 0,0 l/m 0,0 km/h (0 Bft) N 0 0,000 mm 0 W/m -8,2 C -6,6 C 0,0 km/h (0 Bft) 100,00 %
16.12.2018 03:05 25,6 C -6,6 C -7,2 C 0,0 C 34 % 88 % 1022,2 hPa 0,0 l/m 0,0 km/h (0 Bft) SW 225 0,000 mm 0 W/m -8,2 C -6,6 C 1,6 km/h (1 Bft) 100,00 %
16.12.2018 03:04 25,7 C -6,6 C -7,8 C 0,0 C 34 % 88 % 1022,2 hPa 0,0 l/m 1,6 km/h (1 Bft) SW 225 0,000 mm 0 W/m -8,2 C -6,6 C 3,2 km/h (1 Bft) 100,00 %
16.12.2018 03:03 25,6 C -6,6 C -7,8 C 0,0 C 34 % 88 % 1022,3 hPa 0,0 l/m 0,0 km/h (0 Bft) SW 225 0,000 mm 0 W/m -8,2 C -6,6 C 3,2 km/h (1 Bft) 100,00 %
16.12.2018 03:02 25,6 C -6,6 C -7,8 C 0,0 C 34 % 88 % 1022,2 hPa 0,0 l/m 1,6 km/h (1 Bft) SW 225 0,000 mm 0 W/m -8,2 C -6,6 C 1,6 km/h (1 Bft) 100,00 %
16.12.2018 03:01 25,6 C -6,6 C -7,8 C 0,0 C 34 % 88 % 1022,3 hPa 0,0 l/m 1,6 km/h (1 Bft) SW 225 0,000 mm 0 W/m -8,2 C -6,6 C 3,2 km/h (1 Bft) 95,65 %
16.12.2018 03:00 25,7 C -6,6 C -7,8 C 0,0 C 34 % 87 % 1022,2 hPa 0,0 l/m 3,2 km/h (1 Bft) SW 225 0,000 mm 0 W/m -8,4 C -6,6 C 4,8 km/h (1 Bft) 100,00 %
16.12.2018 02:59 25,7 C -6,6 C -7,8 C 0,0 C 34 % 87 % 1022,2 hPa 0,0 l/m 1,6 km/h (1 Bft) SW 225 0,000 mm 0 W/m -8,4 C -6,6 C 3,2 km/h (1 Bft) 100,00 %
16.12.2018 02:58 25,7 C -6,6 C -8,3 C 0,0 C 34 % 87 % 1022,2 hPa 0,0 l/m 0,0 km/h (0 Bft) SW 225 0,000 mm 0 W/m -8,4 C -6,6 C 1,6 km/h (1 Bft) 100,00 %
16.12.2018 02:57 25,6 C -6,6 C -8,3 C 0,0 C 34 % 87 % 1022,2 hPa 0,0 l/m 3,2 km/h (1 Bft) SW 225 0,000 mm 0 W/m -8,4 C -6,6 C 4,8 km/h (1 Bft) 100,00 %
16.12.2018 02:56 25,7 C -6,6 C -8,3 C 0,0 C 34 % 87 % 1022,2 hPa 0,0 l/m 3,2 km/h (1 Bft) SW 225 0,000 mm 0 W/m -8,4 C -6,6 C 4,8 km/h (1 Bft) 100,00 %
16.12.2018 02:55 25,7 C -6,6 C -8,3 C 0,0 C 34 % 87 % 1022,2 hPa 0,0 l/m 1,6 km/h (1 Bft) SW 225 0,000 mm 0 W/m -8,4 C -6,6 C 3,2 km/h (1 Bft) 95,65 %
16.12.2018 02:54 25,7 C -6,5 C -8,3 C 0,0 C 34 % 87 % 1022,2 hPa 0,0 l/m 0,0 km/h (0 Bft) SW 225 0,000 mm 0 W/m -8,3 C -6,5 C 1,6 km/h (1 Bft) 100,00 %
16.12.2018 02:53 25,7 C -6,6 C -8,3 C 0,0 C 34 % 87 % 1022,2 hPa 0,0 l/m 0,0 km/h (0 Bft) N 0 0,000 mm 0 W/m -8,4 C -6,6 C 0,0 km/h (0 Bft) 95,65 %
16.12.2018 02:52 25,7 C -6,6 C -8,3 C 0,0 C 34 % 87 % 1022,2 hPa 0,0 l/m 0,0 km/h (0 Bft) N 0 0,000 mm 0 W/m -8,4 C -6,6 C 0,0 km/h (0 Bft) 95,65 %
16.12.2018 02:51 25,6 C -6,5 C -8,3 C 0,0 C 34 % 87 % 1022,2 hPa 0,0 l/m 0,0 km/h (0 Bft) N 0 0,000 mm 0 W/m -8,3 C -6,5 C 0,0 km/h (0 Bft) 100,00 %
16.12.2018 02:50 25,6 C -6,5 C -8,3 C 0,0 C 34 % 87 % 1022,3 hPa 0,0 l/m 0,0 km/h (0 Bft) N 0 0,000 mm 0 W/m -8,3 C -6,5 C 0,0 km/h (0 Bft) 100,00 %
16.12.2018 02:49 25,6 C -6,5 C -8,3 C 0,0 C 34 % 87 % 1022,3 hPa 0,0 l/m 0,0 km/h (0 Bft) N 0 0,000 mm 0 W/m -8,3 C -6,5 C 0,0 km/h (0 Bft) 100,00 %
16.12.2018 02:48 25,6 C -6,4 C -8,3 C 0,0 C 34 % 88 % 1022,3 hPa 0,0 l/m 0,0 km/h (0 Bft) N 0 0,000 mm 0 W/m -8,1 C -6,4 C 0,0 km/h (0 Bft) 100,00 %
16.12.2018 02:47 25,6 C -6,4 C -7,8 C 0,0 C 34 % 88 % 1022,3 hPa 0,0 l/m 0,0 km/h (0 Bft) N 0 0,000 mm 0 W/m -8,1 C -6,4 C 0,0 km/h (0 Bft) 100,00 %
16.12.2018 02:46 25,6 C -6,4 C -7,8 C 0,0 C 34 % 88 % 1022,2 hPa 0,0 l/m 0,0 km/h (0 Bft) N 0 0,000 mm 0 W/m -8,1 C -6,4 C 0,0 km/h (0 Bft) 100,00 %
16.12.2018 02:45 25,7 C -6,4 C -7,8 C 0,0 C 34 % 88 % 1022,3 hPa 0,0 l/m 0,0 km/h (0 Bft) N 0 0,000 mm 0 W/m -8,1 C -6,4 C 0,0 km/h (0 Bft) 100,00 %
16.12.2018 02:44 25,7 C -6,4 C -7,8 C 0,0 C 34 % 88 % 1022,3 hPa 0,0 l/m 0,0 km/h (0 Bft) N 0 0,000 mm 0 W/m -8,1 C -6,4 C 0,0 km/h (0 Bft) 100,00 %
16.12.2018 02:43 25,7 C -6,4 C -7,8 C 0,0 C 34 % 88 % 1022,3 hPa 0,0 l/m 0,0 km/h (0 Bft) N 0 0,000 mm 0 W/m -8,1 C -6,4 C 0,0 km/h (0 Bft) 95,65 %
16.12.2018 02:42 25,7 C -6,4 C -7,8 C 0,0 C 34 % 87 % 1022,4 hPa 0,0 l/m 0,0 km/h (0 Bft) N 0 0,000 mm 0 W/m -8,2 C -6,4 C 0,0 km/h (0 Bft) 100,00 %
16.12.2018 02:41 25,7 C -6,4 C -7,8 C 0,0 C 34 % 87 % 1022,4 hPa 0,0 l/m 0,0 km/h (0 Bft) N 0 0,000 mm 0 W/m -8,2 C -6,4 C 0,0 km/h (0 Bft) 100,00 %
16.12.2018 02:40 25,7 C -6,3 C -7,8 C 0,0 C 34 % 87 % 1022,4 hPa 0,0 l/m 0,0 km/h (0 Bft) N 0 0,000 mm 0 W/m -8,1 C -6,3 C 0,0 km/h (0 Bft) 95,65 %
16.12.2018 02:39 25,7 C -6,3 C -7,8 C 0,0 C 34 % 87 % 1022,4 hPa 0,0 l/m 0,0 km/h (0 Bft) SW 225 0,000 mm 0 W/m -8,1 C -6,3 C 1,6 km/h (1 Bft) 100,00 %
16.12.2018 02:38 25,7 C -6,3 C -7,8 C 0,0 C 34 % 87 % 1022,4 hPa 0,0 l/m 0,0 km/h (0 Bft) N 0 0,000 mm 0 W/m -8,1 C -6,3 C 0,0 km/h (0 Bft) 100,00 %
16.12.2018 02:37 25,8 C -6,3 C -7,8 C 0,0 C 34 % 87 % 1022,5 hPa 0,0 l/m 0,0 km/h (0 Bft) N 0 0,000 mm 0 W/m -8,1 C -6,3 C 0,0 km/h (0 Bft) 100,00 %
16.12.2018 02:36 25,7 C -6,3 C -7,8 C 0,0 C 34 % 87 % 1022,5 hPa 0,0 l/m 0,0 km/h (0 Bft) N 0 0,000 mm 0 W/m -8,1 C -6,3 C 0,0 km/h (0 Bft) 100,00 %
16.12.2018 02:35 25,7 C -6,2 C -7,8 C 0,0 C 34 % 87 % 1022,4 hPa 0,0 l/m 0,0 km/h (0 Bft) N 0 0,000 mm 0 W/m -8,0 C -6,2 C 0,0 km/h (0 Bft) 95,65 %
16.12.2018 02:34 25,7 C -6,2 C -7,8 C 0,0 C 34 % 88 % 1022,4 hPa 0,0 l/m 0,0 km/h (0 Bft) N 0 0,000 mm 0 W/m -7,9 C -6,2 C 0,0 km/h (0 Bft) 100,00 %
16.12.2018 02:33 25,7 C -6,2 C -7,8 C 0,0 C 34 % 88 % 1022,5 hPa 0,0 l/m 0,0 km/h (0 Bft) N 0 0,000 mm 0 W/m -7,9 C -6,2 C 0,0 km/h (0 Bft) 100,00 %
16.12.2018 02:32 25,7 C -6,2 C -7,8 C 0,0 C 34 % 88 % 1022,5 hPa 0,0 l/m 0,0 km/h (0 Bft) N 0 0,000 mm 0 W/m -7,9 C -6,2 C 0,0 km/h (0 Bft) 100,00 %
16.12.2018 02:31 25,6 C -6,2 C -7,2 C 0,0 C 34 % 88 % 1022,5 hPa 0,0 l/m 0,0 km/h (0 Bft) N 0 0,000 mm 0 W/m -7,9 C -6,2 C 0,0 km/h (0 Bft) 95,65 %
16.12.2018 02:30 25,7 C -6,2 C -7,2 C 0,0 C 34 % 88 % 1022,5 hPa 0,0 l/m 0,0 km/h (0 Bft) N 0 0,000 mm 0 W/m -7,9 C -6,2 C 0,0 km/h (0 Bft) 95,65 %
16.12.2018 02:29 25,7 C -6,2 C -7,2 C 0,0 C 34 % 88 % 1022,5 hPa 0,0 l/m 0,0 km/h (0 Bft) N 0 0,000 mm 0 W/m -7,9 C -6,2 C 0,0 km/h (0 Bft) 100,00 %
16.12.2018 02:28 25,7 C -6,2 C -6,7 C 0,0 C 34 % 88 % 1022,5 hPa 0,0 l/m 0,0 km/h (0 Bft) W-SW 247 0,000 mm 0 W/m -7,9 C -6,2 C 1,6 km/h (1 Bft) 95,65 %
16.12.2018 02:27 25,7 C -6,2 C -6,7 C 0,0 C 34 % 88 % 1022,6 hPa 0,0 l/m 0,0 km/h (0 Bft) W-SW 247 0,000 mm 0 W/m -7,9 C -6,2 C 1,6 km/h (1 Bft) 100,00 %
16.12.2018 02:26 25,7 C -6,2 C -6,7 C 0,0 C 34 % 88 % 1022,6 hPa 0,0 l/m 0,0 km/h (0 Bft) W-SW 247 0,000 mm 0 W/m -7,9 C -6,2 C 1,6 km/h (1 Bft) 95,65 %
16.12.2018 02:25 25,7 C -6,2 C -7,2 C 0,0 C 34 % 88 % 1022,6 hPa 0,0 l/m 0,0 km/h (0 Bft) N 0 0,000 mm 0 W/m -7,9 C -6,2 C 0,0 km/h (0 Bft) 100,00 %
16.12.2018 02:24 25,7 C -6,2 C -7,2 C 0,0 C 34 % 87 % 1022,7 hPa 0,0 l/m 0,0 km/h (0 Bft) N 0 0,000 mm 0 W/m -8,0 C -6,2 C 0,0 km/h (0 Bft) 100,00 %
16.12.2018 02:23 25,7 C -6,2 C -7,2 C 0,0 C 34 % 87 % 1022,7 hPa 0,0 l/m 0,0 km/h (0 Bft) N 0 0,000 mm 0 W/m -8,0 C -6,2 C 0,0 km/h (0 Bft) 95,65 %
16.12.2018 02:22 25,7 C -6,2 C -7,8 C 0,0 C 34 % 87 % 1022,7 hPa 0,0 l/m 0,0 km/h (0 Bft) N 0 0,000 mm 0 W/m -8,0 C -6,2 C 0,0 km/h (0 Bft) 100,00 %
16.12.2018 02:21 25,7 C -6,2 C -7,8 C 0,0 C 34 % 87 % 1022,7 hPa 0,0 l/m 0,0 km/h (0 Bft) N 0 0,000 mm 0 W/m -8,0 C -6,2 C 0,0 km/h (0 Bft) 95,65 %
16.12.2018 02:20 25,8 C -6,2 C -7,8 C 0,0 C 34 % 87 % 1022,7 hPa 0,0 l/m 0,0 km/h (0 Bft) N 0 0,000 mm 0 W/m -8,0 C -6,2 C 0,0 km/h (0 Bft) 100,00 %
16.12.2018 02:19 25,8 C -6,1 C -7,8 C 0,0 C 34 % 88 % 1022,7 hPa 0,0 l/m 0,0 km/h (0 Bft) N 0 0,000 mm 0 W/m -7,8 C -6,1 C 0,0 km/h (0 Bft) 95,65 %
16.12.2018 02:18 25,7 C -6,2 C -8,3 C 0,0 C 34 % 88 % 1022,7 hPa 0,0 l/m 0,0 km/h (0 Bft) N 0 0,000 mm 0 W/m -7,9 C -6,2 C 0,0 km/h (0 Bft) 100,00 %
16.12.2018 02:17 25,7 C -6,1 C -8,3 C 0,0 C 34 % 88 % 1022,8 hPa 0,0 l/m 0,0 km/h (0 Bft) N 0 0,000 mm 0 W/m -7,8 C -6,1 C 0,0 km/h (0 Bft) 100,00 %
16.12.2018 02:16 25,7 C -6,1 C -8,3 C 0,0 C 34 % 87 % 1022,8 hPa 0,0 l/m 0,0 km/h (0 Bft) N 0 0,000 mm 0 W/m -7,9 C -6,1 C 0,0 km/h (0 Bft) 95,65 %
16.12.2018 02:15 25,7 C -6,1 C -8,3 C 0,0 C 34 % 87 % 1022,8 hPa 0,0 l/m 0,0 km/h (0 Bft) N 0 0,000 mm 0 W/m -7,9 C -6,1 C 0,0 km/h (0 Bft) 100,00 %
16.12.2018 02:14 25,7 C -6,1 C -8,3 C 0,0 C 34 % 87 % 1022,9 hPa 0,0 l/m 0,0 km/h (0 Bft) N 0 0,000 mm 0 W/m -7,9 C -6,1 C 0,0 km/h (0 Bft) 95,65 %
16.12.2018 02:13 25,7 C -6,2 C -8,3 C 0,0 C 34 % 87 % 1022,8 hPa 0,0 l/m 0,0 km/h (0 Bft) N 0 0,000 mm 0 W/m -8,0 C -6,2 C 0,0 km/h (0 Bft) 95,65 %
16.12.2018 02:12 25,7 C -6,1 C -8,3 C 0,0 C 34 % 87 % 1022,9 hPa 0,0 l/m 0,0 km/h (0 Bft) N 0 0,000 mm 0 W/m -7,9 C -6,1 C 0,0 km/h (0 Bft) 95,65 %
16.12.2018 02:11 25,7 C -6,2 C -8,3 C 0,0 C 34 % 87 % 1022,9 hPa 0,0 l/m 0,0 km/h (0 Bft) N 0 0,000 mm 0 W/m -8,0 C -6,2 C 0,0 km/h (0 Bft) 95,65 %
16.12.2018 02:10 25,7 C -6,2 C -8,3 C 0,0 C 34 % 87 % 1022,8 hPa 0,0 l/m 0,0 km/h (0 Bft) N 0 0,000 mm 0 W/m -8,0 C -6,2 C 0,0 km/h (0 Bft) 100,00 %
16.12.2018 02:09 25,7 C -6,1 C -8,3 C 0,0 C 34 % 87 % 1022,9 hPa 0,0 l/m 0,0 km/h (0 Bft) N 0 0,000 mm 0 W/m -7,9 C -6,1 C 0,0 km/h (0 Bft) 95,65 %
16.12.2018 02:08 25,7 C -6,2 C -8,3 C 0,0 C 34 % 87 % 1022,9 hPa 0,0 l/m 0,0 km/h (0 Bft) N 0 0,000 mm 0 W/m -8,0 C -6,2 C 0,0 km/h (0 Bft) 100,00 %
16.12.2018 02:07 25,7 C -6,1 C -8,3 C 0,0 C 34 % 87 % 1023,0 hPa 0,0 l/m 0,0 km/h (0 Bft) N 0 0,000 mm 0 W/m -7,9 C -6,1 C 0,0 km/h (0 Bft) 95,65 %
16.12.2018 02:06 25,7 C -6,2 C -8,3 C 0,0 C 34 % 87 % 1022,9 hPa 0,0 l/m 0,0 km/h (0 Bft) N 0 0,000 mm 0 W/m -8,0 C -6,2 C 0,0 km/h (0 Bft) 100,00 %
16.12.2018 02:05 25,7 C -6,1 C -7,8 C 0,0 C 34 % 87 % 1023,0 hPa 0,0 l/m 0,0 km/h (0 Bft) N 0 0,000 mm 0 W/m -7,9 C -6,1 C 0,0 km/h (0 Bft) 100,00 %
16.12.2018 02:04 25,8 C -6,1 C -7,8 C 0,0 C 34 % 87 % 1023,0 hPa 0,0 l/m 0,0 km/h (0 Bft) N 0 0,000 mm 0 W/m -7,9 C -6,1 C 0,0 km/h (0 Bft) 100,00 %
16.12.2018 02:03 25,8 C -6,1 C -7,8 C 0,0 C 34 % 87 % 1022,9 hPa 0,0 l/m 0,0 km/h (0 Bft) N 0 0,000 mm 0 W/m -7,9 C -6,1 C 0,0 km/h (0 Bft) 100,00 %
16.12.2018 02:02 25,8 C -6,2 C -7,8 C 0,0 C 34 % 87 % 1022,9 hPa 0,0 l/m 0,0 km/h (0 Bft) N 0 0,000 mm 0 W/m -8,0 C -6,2 C 0,0 km/h (0 Bft) 100,00 %
16.12.2018 02:01 25,7 C -6,1 C -7,8 C 0,0 C 34 % 87 % 1023,0 hPa 0,0 l/m 0,0 km/h (0 Bft) N 0 0,000 mm 0 W/m -7,9 C -6,1 C 0,0 km/h (0 Bft) 100,00 %
16.12.2018 02:00 25,7 C -6,1 C -7,8 C 0,0 C 34 % 87 % 1023,0 hPa 0,0 l/m 0,0 km/h (0 Bft) N 0 0,000 mm 0 W/m -7,9 C -6,1 C 0,0 km/h (0 Bft) 100,00 %
16.12.2018 01:59 25,7 C -6,1 C -7,8 C 0,0 C 34 % 87 % 1023,0 hPa 0,0 l/m 0,0 km/h (0 Bft) N 0 0,000 mm 0 W/m -7,9 C -6,1 C 0,0 km/h (0 Bft) 100,00 %
16.12.2018 01:58 25,7 C -6,1 C -7,8 C 0,0 C 34 % 87 % 1023,0 hPa 0,0 l/m 0,0 km/h (0 Bft) N 0 0,000 mm 0 W/m -7,9 C -6,1 C 0,0 km/h (0 Bft) 100,00 %
16.12.2018 01:57 25,7 C -6,1 C -7,8 C 0,0 C 34 % 87 % 1023,0 hPa 0,0 l/m 0,0 km/h (0 Bft) N 0 0,000 mm 0 W/m -7,9 C -6,1 C 0,0 km/h (0 Bft) 100,00 %
16.12.2018 01:56 25,7 C -6,0 C -7,8 C 0,0 C 34 % 87 % 1023,0 hPa 0,0 l/m 0,0 km/h (0 Bft) N 0 0,000 mm 0 W/m -7,8 C -6,0 C 0,0 km/h (0 Bft) 100,00 %
16.12.2018 01:55 25,7 C -6,0 C -7,8 C 0,0 C 34 % 87 % 1023,1 hPa 0,0 l/m 0,0 km/h (0 Bft) N 0 0,000 mm 0 W/m -7,8 C -6,0 C 0,0 km/h (0 Bft) 100,00 %
16.12.2018 01:54 25,7 C -6,0 C -7,8 C 0,0 C 34 % 87 % 1023,1 hPa 0,0 l/m 0,0 km/h (0 Bft) N 0 0,000 mm 0 W/m -7,8 C -6,0 C 0,0 km/h (0 Bft) 100,00 %
16.12.2018 01:53 25,8 C -5,9 C -7,8 C 0,0 C 34 % 87 % 1023,1 hPa 0,0 l/m 0,0 km/h (0 Bft) N 0 0,000 mm 0 W/m -7,7 C -5,9 C 0,0 km/h (0 Bft) 100,00 %
16.12.2018 01:52 25,7 C -5,9 C -7,8 C 0,0 C 34 % 87 % 1023,1 hPa 0,0 l/m 0,0 km/h (0 Bft) N 0 0,000 mm 0 W/m -7,7 C -5,9 C 0,0 km/h (0 Bft) 100,00 %
16.12.2018 01:51 25,7 C -5,9 C -7,8 C 0,0 C 34 % 87 % 1023,1 hPa 0,0 l/m 0,0 km/h (0 Bft) N 0 0,000 mm 0 W/m -7,7 C -5,9 C 0,0 km/h (0 Bft) 100,00 %
16.12.2018 01:50 25,8 C -5,9 C -7,8 C 0,0 C 34 % 87 % 1023,1 hPa 0,0 l/m 0,0 km/h (0 Bft) N 0 0,000 mm 0 W/m -7,7 C -5,9 C 0,0 km/h (0 Bft) 100,00 %
16.12.2018 01:49 25,8 C -5,9 C -7,8 C 0,0 C 34 % 87 % 1023,1 hPa 0,0 l/m 0,0 km/h (0 Bft) N 0 0,000 mm 0 W/m -7,7 C -5,9 C 0,0 km/h (0 Bft) 100,00 %
16.12.2018 01:48 25,8 C -5,9 C -7,8 C 0,0 C 34 % 87 % 1023,2 hPa 0,0 l/m 0,0 km/h (0 Bft) N 0 0,000 mm 0 W/m -7,7 C -5,9 C 0,0 km/h (0 Bft) 100,00 %
16.12.2018 01:47 25,8 C -5,9 C -7,8 C 0,0 C 34 % 87 % 1023,2 hPa 0,0 l/m 0,0 km/h (0 Bft) N 0 0,000 mm 0 W/m -7,7 C -5,9 C 0,0 km/h (0 Bft) 95,65 %
16.12.2018 01:46 25,8 C -5,9 C -7,8 C 0,0 C 34 % 87 % 1023,3 hPa 0,0 l/m 0,0 km/h (0 Bft) N 0 0,000 mm 0 W/m -7,7 C -5,9 C 0,0 km/h (0 Bft) 100,00 %
16.12.2018 01:45 25,8 C -5,9 C -7,8 C 0,0 C 34 % 87 % 1023,2 hPa 0,0 l/m 0,0 km/h (0 Bft) N 0 0,000 mm 0 W/m -7,7 C -5,9 C 0,0 km/h (0 Bft) 100,00 %
16.12.2018 01:44 25,8 C -5,9 C -7,8 C 0,0 C 34 % 87 % 1023,3 hPa 0,0 l/m 0,0 km/h (0 Bft) N 0 0,000 mm 0 W/m -7,7 C -5,9 C 0,0 km/h (0 Bft) 100,00 %
16.12.2018 01:43 25,8 C -5,9 C -7,8 C 0,0 C 34 % 87 % 1023,3 hPa 0,0 l/m 0,0 km/h (0 Bft) N 0 0,000 mm 0 W/m -7,7 C -5,9 C 0,0 km/h (0 Bft) 100,00 %
16.12.2018 01:42 25,7 C -5,8 C -7,8 C 0,0 C 34 % 87 % 1023,3 hPa 0,0 l/m 0,0 km/h (0 Bft) N 0 0,000 mm 0 W/m -7,6 C -5,8 C 0,0 km/h (0 Bft) 100,00 %
16.12.2018 01:41 25,7 C -5,8 C -7,8 C 0,0 C 34 % 87 % 1023,3 hPa 0,0 l/m 0,0 km/h (0 Bft) N 0 0,000 mm 0 W/m -7,6 C -5,8 C 0,0 km/h (0 Bft) 100,00 %
16.12.2018 01:40 25,7 C -5,8 C -7,8 C 0,0 C 34 % 87 % 1023,3 hPa 0,0 l/m 0,0 km/h (0 Bft) N 0 0,000 mm 0 W/m -7,6 C -5,8 C 0,0 km/h (0 Bft) 100,00 %
16.12.2018 01:39 25,8 C -5,8 C -7,8 C 0,0 C 34 % 87 % 1023,3 hPa 0,0 l/m 0,0 km/h (0 Bft) N 0 0,000 mm 0 W/m -7,6 C -5,8 C 0,0 km/h (0 Bft) 100,00 %
16.12.2018 01:38 25,8 C -5,8 C -7,8 C 0,0 C 34 % 87 % 1023,4 hPa 0,0 l/m 0,0 km/h (0 Bft) N 0 0,000 mm 0 W/m -7,6 C -5,8 C 0,0 km/h (0 Bft) 100,00 %
16.12.2018 01:37 25,8 C -5,7 C -7,8 C 0,0 C 34 % 87 % 1023,3 hPa 0,0 l/m 0,0 km/h (0 Bft) N 0 0,000 mm 0 W/m -7,5 C -5,7 C 0,0 km/h (0 Bft) 100,00 %
16.12.2018 01:36 25,8 C -5,7 C -7,8 C 0,0 C 34 % 87 % 1023,3 hPa 0,0 l/m 0,0 km/h (0 Bft) N 0 0,000 mm 0 W/m -7,5 C -5,7 C 0,0 km/h (0 Bft) 100,00 %
16.12.2018 01:35 25,8 C -5,7 C -7,8 C 0,0 C 34 % 87 % 1023,4 hPa 0,0 l/m 0,0 km/h (0 Bft) N 0 0,000 mm 0 W/m -7,5 C -5,7 C 0,0 km/h (0 Bft) 100,00 %
16.12.2018 01:34 25,8 C -5,7 C -7,8 C 0,0 C 34 % 87 % 1023,4 hPa 0,0 l/m 0,0 km/h (0 Bft) N 0 0,000 mm 0 W/m -7,5 C -5,7 C 0,0 km/h (0 Bft) 100,00 %
16.12.2018 01:33 25,8 C -5,7 C -7,8 C 0,0 C 34 % 87 % 1023,4 hPa 0,0 l/m 0,0 km/h (0 Bft) N 0 0,000 mm 0 W/m -7,5 C -5,7 C 0,0 km/h (0 Bft) 95,65 %
16.12.2018 01:32 25,8 C -5,7 C -7,8 C 0,0 C 34 % 87 % 1023,5 hPa 0,0 l/m 0,0 km/h (0 Bft) N 0 0,000 mm 0 W/m -7,5 C -5,7 C 0,0 km/h (0 Bft) 100,00 %
16.12.2018 01:31 25,8 C -5,7 C -7,8 C 0,0 C 34 % 87 % 1023,5 hPa 0,0 l/m 0,0 km/h (0 Bft) N 0 0,000 mm 0 W/m -7,5 C -5,7 C 0,0 km/h (0 Bft) 95,65 %
16.12.2018 01:30 25,8 C -5,7 C -7,2 C 0,0 C 34 % 87 % 1023,5 hPa 0,0 l/m 0,0 km/h (0 Bft) N 0 0,000 mm 0 W/m -7,5 C -5,7 C 0,0 km/h (0 Bft) 100,00 %
16.12.2018 01:29 25,8 C -5,6 C -7,2 C 0,0 C 34 % 87 % 1023,5 hPa 0,0 l/m 0,0 km/h (0 Bft) N 0 0,000 mm 0 W/m -7,4 C -5,6 C 0,0 km/h (0 Bft) 100,00 %
16.12.2018 01:28 25,8 C -5,6 C -7,2 C 0,0 C 34 % 87 % 1023,5 hPa 0,0 l/m 0,0 km/h (0 Bft) N 0 0,000 mm 0 W/m -7,4 C -5,6 C 0,0 km/h (0 Bft) 100,00 %
16.12.2018 01:27 25,8 C -5,6 C -7,2 C 0,0 C 34 % 87 % 1023,5 hPa 0,0 l/m 0,0 km/h (0 Bft) N 0 0,000 mm 0 W/m -7,4 C -5,6 C 0,0 km/h (0 Bft) 100,00 %
16.12.2018 01:26 25,7 C -5,6 C -7,2 C 0,0 C 34 % 87 % 1023,5 hPa 0,0 l/m 0,0 km/h (0 Bft) N 0 0,000 mm 0 W/m -7,4 C -5,6 C 0,0 km/h (0 Bft) 100,00 %
16.12.2018 01:25 25,8 C -5,6 C -7,2 C 0,0 C 34 % 87 % 1023,5 hPa 0,0 l/m 0,0 km/h (0 Bft) N 0 0,000 mm 0 W/m -7,4 C -5,6 C 0,0 km/h (0 Bft) 100,00 %
16.12.2018 01:24 25,8 C -5,6 C -7,2 C 0,0 C 34 % 87 % 1023,5 hPa 0,0 l/m 0,0 km/h (0 Bft) N 0 0,000 mm 0 W/m -7,4 C -5,6 C 0,0 km/h (0 Bft) 100,00 %
16.12.2018 01:23 25,8 C -5,6 C -7,2 C 0,0 C 34 % 87 % 1023,5 hPa 0,0 l/m 0,0 km/h (0 Bft) N 0 0,000 mm 0 W/m -7,4 C -5,6 C 0,0 km/h (0 Bft) 100,00 %
16.12.2018 01:22 25,8 C -5,5 C -7,2 C 0,0 C 34 % 87 % 1023,5 hPa 0,0 l/m 0,0 km/h (0 Bft) N 0 0,000 mm 0 W/m -7,3 C -5,5 C 0,0 km/h (0 Bft) 100,00 %
16.12.2018 01:21 25,8 C -5,5 C -7,2 C 0,0 C 34 % 87 % 1023,5 hPa 0,0 l/m 0,0 km/h (0 Bft) N 0 0,000 mm 0 W/m -7,3 C -5,5 C 0,0 km/h (0 Bft) 95,65 %
16.12.2018 01:20 25,8 C -5,4 C -7,2 C 0,0 C 34 % 87 % 1023,5 hPa 0,0 l/m 0,0 km/h (0 Bft) N 0 0,000 mm 0 W/m -7,2 C -5,4 C 0,0 km/h (0 Bft) 95,65 %
16.12.2018 01:19 25,8 C -5,4 C -7,2 C 0,0 C 34 % 87 % 1023,6 hPa 0,0 l/m 0,0 km/h (0 Bft) N 0 0,000 mm 0 W/m -7,2 C -5,4 C 0,0 km/h (0 Bft) 100,00 %
16.12.2018 01:18 25,8 C -5,4 C -7,2 C 0,0 C 34 % 87 % 1023,5 hPa 0,0 l/m 0,0 km/h (0 Bft) N 0 0,000 mm 0 W/m -7,2 C -5,4 C 0,0 km/h (0 Bft) 100,00 %
16.12.2018 01:17 25,8 C -5,4 C -7,2 C 0,0 C 34 % 87 % 1023,5 hPa 0,0 l/m 0,0 km/h (0 Bft) N 0 0,000 mm 0 W/m -7,2 C -5,4 C 0,0 km/h (0 Bft) 100,00 %
16.12.2018 01:16 25,8 C -5,4 C -7,2 C 0,0 C 34 % 87 % 1023,5 hPa 0,0 l/m 0,0 km/h (0 Bft) N 0 0,000 mm 0 W/m -7,2 C -5,4 C 0,0 km/h (0 Bft) 100,00 %
16.12.2018 01:15 25,8 C -5,4 C -7,2 C 0,0 C 34 % 87 % 1023,6 hPa 0,0 l/m 0,0 km/h (0 Bft) N 0 0,000 mm 0 W/m -7,2 C -5,4 C 0,0 km/h (0 Bft) 100,00 %
16.12.2018 01:14 25,8 C -5,3 C -7,2 C 0,0 C 34 % 87 % 1023,5 hPa 0,0 l/m 0,0 km/h (0 Bft) N 0 0,000 mm 0 W/m -7,1 C -5,3 C 0,0 km/h (0 Bft) 95,65 %
16.12.2018 01:13 25,8 C -5,3 C -7,2 C 0,0 C 34 % 87 % 1023,7 hPa 0,0 l/m 0,0 km/h (0 Bft) N 0 0,000 mm 0 W/m -7,1 C -5,3 C 0,0 km/h (0 Bft) 100,00 %
16.12.2018 01:12 25,9 C -5,3 C -7,2 C 0,0 C 34 % 87 % 1023,6 hPa 0,0 l/m 0,0 km/h (0 Bft) N 0 0,000 mm 0 W/m -7,1 C -5,3 C 0,0 km/h (0 Bft) 100,00 %
16.12.2018 01:11 25,8 C -5,3 C -7,2 C 0,0 C 34 % 87 % 1023,6 hPa 0,0 l/m 0,0 km/h (0 Bft) N 0 0,000 mm 0 W/m -7,1 C -5,3 C 0,0 km/h (0 Bft) 95,65 %
16.12.2018 01:10 25,8 C -5,3 C -7,2 C 0,0 C 34 % 87 % 1023,7 hPa 0,0 l/m 0,0 km/h (0 Bft) N 0 0,000 mm 0 W/m -7,1 C -5,3 C 0,0 km/h (0 Bft) 100,00 %
16.12.2018 01:09 25,8 C -5,3 C -7,2 C 0,0 C 34 % 87 % 1023,6 hPa 0,0 l/m 0,0 km/h (0 Bft) N 0 0,000 mm 0 W/m -7,1 C -5,3 C 0,0 km/h (0 Bft) 95,65 %
16.12.2018 01:08 25,8 C -5,3 C -7,2 C 0,0 C 34 % 87 % 1023,6 hPa 0,0 l/m 0,0 km/h (0 Bft) N 0 0,000 mm 0 W/m -7,1 C -5,3 C 0,0 km/h (0 Bft) 100,00 %
16.12.2018 01:07 25,8 C -5,3 C -7,2 C 0,0 C 34 % 87 % 1023,6 hPa 0,0 l/m 0,0 km/h (0 Bft) N 0 0,000 mm 0 W/m -7,1 C -5,3 C 0,0 km/h (0 Bft) 100,00 %
16.12.2018 01:06 25,8 C -5,3 C -7,2 C 0,0 C 34 % 87 % 1023,6 hPa 0,0 l/m 0,0 km/h (0 Bft) N 0 0,000 mm 0 W/m -7,1 C -5,3 C 0,0 km/h (0 Bft) 95,65 %
16.12.2018 01:05 25,8 C -5,3 C -7,2 C 0,0 C 34 % 87 % 1023,6 hPa 0,0 l/m 0,0 km/h (0 Bft) N 0 0,000 mm 0 W/m -7,1 C -5,3 C 0,0 km/h (0 Bft) 100,00 %
16.12.2018 01:04 25,8 C -5,3 C -7,2 C 0,0 C 34 % 87 % 1023,6 hPa 0,0 l/m 0,0 km/h (0 Bft) N 0 0,000 mm 0 W/m -7,1 C -5,3 C 0,0 km/h (0 Bft) 95,65 %
16.12.2018 01:03 25,8 C -5,3 C -7,2 C 0,0 C 34 % 87 % 1023,7 hPa 0,0 l/m 0,0 km/h (0 Bft) N 0 0,000 mm 0 W/m -7,1 C -5,3 C 0,0 km/h (0 Bft) 100,00 %
16.12.2018 01:02 25,8 C -5,3 C -7,2 C 0,0 C 34 % 87 % 1023,7 hPa 0,0 l/m 0,0 km/h (0 Bft) N 0 0,000 mm 0 W/m -7,1 C -5,3 C 0,0 km/h (0 Bft) 100,00 %
16.12.2018 01:01 25,8 C -5,3 C -7,2 C 0,0 C 34 % 87 % 1023,6 hPa 0,0 l/m 0,0 km/h (0 Bft) N 0 0,000 mm 0 W/m -7,1 C -5,3 C 0,0 km/h (0 Bft) 91,30 %
16.12.2018 01:00 25,8 C -5,3 C -7,2 C 0,0 C 34 % 87 % 1023,6 hPa 0,0 l/m 0,0 km/h (0 Bft) N 0 0,000 mm 0 W/m -7,1 C -5,3 C 0,0 km/h (0 Bft) 100,00 %
16.12.2018 00:59 25,8 C -5,3 C -7,2 C 0,0 C 34 % 87 % 1023,7 hPa 0,0 l/m 0,0 km/h (0 Bft) N 0 0,000 mm 0 W/m -7,1 C -5,3 C 0,0 km/h (0 Bft) 100,00 %
16.12.2018 00:58 25,8 C -5,2 C -7,2 C 0,0 C 34 % 87 % 1023,6 hPa 0,0 l/m 0,0 km/h (0 Bft) N 0 0,000 mm 0 W/m -7,0 C -5,2 C 0,0 km/h (0 Bft) 100,00 %
16.12.2018 00:57 25,8 C -5,2 C -7,2 C 0,0 C 34 % 87 % 1023,7 hPa 0,0 l/m 0,0 km/h (0 Bft) N 0 0,000 mm 0 W/m -7,0 C -5,2 C 0,0 km/h (0 Bft) 100,00 %
16.12.2018 00:56 25,9 C -5,2 C -6,7 C 0,0 C 34 % 87 % 1023,6 hPa 0,0 l/m 0,0 km/h (0 Bft) N 0 0,000 mm 0 W/m -7,0 C -5,2 C 0,0 km/h (0 Bft) 100,00 %
16.12.2018 00:55 25,9 C -5,2 C -6,7 C 0,0 C 34 % 87 % 1023,7 hPa 0,0 l/m 0,0 km/h (0 Bft) N 0 0,000 mm 0 W/m -7,0 C -5,2 C 0,0 km/h (0 Bft) 100,00 %
16.12.2018 00:54 25,9 C -5,2 C -6,7 C 0,0 C 34 % 86 % 1023,7 hPa 0,0 l/m 0,0 km/h (0 Bft) N 0 0,000 mm 0 W/m -7,2 C -5,2 C 0,0 km/h (0 Bft) 100,00 %
16.12.2018 00:53 25,8 C -5,2 C -6,7 C 0,0 C 34 % 86 % 1023,7 hPa 0,0 l/m 0,0 km/h (0 Bft) N 0 0,000 mm 0 W/m -7,2 C -5,2 C 0,0 km/h (0 Bft) 100,00 %
16.12.2018 00:52 25,8 C -5,2 C -6,7 C 0,0 C 34 % 86 % 1023,7 hPa 0,0 l/m 1,6 km/h (1 Bft) W-SW 247 0,000 mm 0 W/m -7,2 C -5,2 C 1,6 km/h (1 Bft) 100,00 %
16.12.2018 00:51 25,8 C -5,2 C -6,7 C 0,0 C 34 % 87 % 1023,6 hPa 0,0 l/m 0,0 km/h (0 Bft) W-SW 247 0,000 mm 0 W/m -7,0 C -5,2 C 1,6 km/h (1 Bft) 100,00 %
16.12.2018 00:50 25,8 C -5,2 C -6,7 C 0,0 C 34 % 87 % 1023,6 hPa 0,0 l/m 1,6 km/h (1 Bft) W-SW 247 0,000 mm 0 W/m -7,0 C -5,2 C 3,2 km/h (1 Bft) 95,65 %
16.12.2018 00:49 25,8 C -5,1 C -6,7 C 0,0 C 34 % 86 % 1023,7 hPa 0,0 l/m 0,0 km/h (0 Bft) W-SW 247 0,000 mm 0 W/m -7,1 C -5,1 C 3,2 km/h (1 Bft) 100,00 %
16.12.2018 00:48 25,8 C -5,1 C -6,7 C 0,0 C 34 % 86 % 1023,7 hPa 0,0 l/m 0,0 km/h (0 Bft) N 0 0,000 mm 0 W/m -7,1 C -5,1 C 0,0 km/h (0 Bft) 100,00 %
16.12.2018 00:47 25,8 C -5,1 C -6,7 C 0,0 C 34 % 86 % 1023,7 hPa 0,0 l/m 0,0 km/h (0 Bft) N 0 0,000 mm 0 W/m -7,1 C -5,1 C 0,0 km/h (0 Bft) 100,00 %
16.12.2018 00:46 25,8 C -5,1 C -6,7 C 0,0 C 34 % 86 % 1023,7 hPa 0,0 l/m 0,0 km/h (0 Bft) N 0 0,000 mm 0 W/m -7,1 C -5,1 C 0,0 km/h (0 Bft) 100,00 %
16.12.2018 00:45 25,9 C -5,0 C -6,7 C 0,0 C 34 % 87 % 1023,8 hPa 0,0 l/m 0,0 km/h (0 Bft) N 0 0,000 mm 0 W/m -6,8 C -5,0 C 0,0 km/h (0 Bft) 100,00 %
16.12.2018 00:44 25,9 C -5,0 C -6,7 C 0,0 C 34 % 86 % 1023,8 hPa 0,0 l/m 0,0 km/h (0 Bft) N 0 0,000 mm 0 W/m -7,0 C -5,0 C 0,0 km/h (0 Bft) 100,00 %
16.12.2018 00:43 25,9 C -5,0 C -6,7 C 0,0 C 34 % 86 % 1023,8 hPa 0,0 l/m 0,0 km/h (0 Bft) N 0 0,000 mm 0 W/m -7,0 C -5,0 C 0,0 km/h (0 Bft) 100,00 %
16.12.2018 00:42 25,8 C -4,9 C -6,7 C 0,0 C 34 % 86 % 1023,8 hPa 0,0 l/m 0,0 km/h (0 Bft) N 0 0,000 mm 0 W/m -6,9 C -4,9 C 0,0 km/h (0 Bft) 100,00 %
16.12.2018 00:41 25,9 C -4,9 C -6,7 C 0,0 C 34 % 86 % 1023,7 hPa 0,0 l/m 0,0 km/h (0 Bft) N 0 0,000 mm 0 W/m -6,9 C -4,9 C 0,0 km/h (0 Bft) 100,00 %
16.12.2018 00:40 25,9 C -4,9 C -6,7 C 0,0 C 34 % 86 % 1023,7 hPa 0,0 l/m 0,0 km/h (0 Bft) W-SW 247 0,000 mm 0 W/m -6,9 C -4,9 C 1,6 km/h (1 Bft) 100,00 %
16.12.2018 00:39 25,9 C -4,9 C -6,7 C 0,0 C 34 % 86 % 1023,8 hPa 0,0 l/m 1,6 km/h (1 Bft) W-SW 247 0,000 mm 0 W/m -6,9 C -4,9 C 1,6 km/h (1 Bft) 95,65 %
16.12.2018 00:38 25,9 C -4,8 C -6,7 C 0,0 C 34 % 86 % 1023,8 hPa 0,0 l/m 1,6 km/h (1 Bft) W-SW 247 0,000 mm 0 W/m -6,8 C -4,8 C 3,2 km/h (1 Bft) 100,00 %
16.12.2018 00:37 25,9 C -4,8 C -6,7 C 0,0 C 34 % 87 % 1023,8 hPa 0,0 l/m 1,6 km/h (1 Bft) W-SW 247 0,000 mm 0 W/m -6,6 C -4,8 C 3,2 km/h (1 Bft) 100,00 %
16.12.2018 00:36 25,8 C -4,8 C -6,7 C 0,0 C 34 % 87 % 1023,8 hPa 0,0 l/m 0,0 km/h (0 Bft) N 0 0,000 mm 0 W/m -6,6 C -4,8 C 0,0 km/h (0 Bft) 100,00 %
16.12.2018 00:35 25,8 C -4,7 C -6,7 C 0,0 C 34 % 87 % 1023,8 hPa 0,0 l/m 0,0 km/h (0 Bft) N 0 0,000 mm 0 W/m -6,5 C -4,7 C 0,0 km/h (0 Bft) 100,00 %
16.12.2018 00:34 25,8 C -4,7 C -6,7 C 0,0 C 34 % 87 % 1023,8 hPa 0,0 l/m 0,0 km/h (0 Bft) N 0 0,000 mm 0 W/m -6,5 C -4,7 C 0,0 km/h (0 Bft) 100,00 %
16.12.2018 00:33 25,8 C -4,7 C -6,7 C 0,0 C 34 % 87 % 1023,8 hPa 0,0 l/m 0,0 km/h (0 Bft) N 0 0,000 mm 0 W/m -6,5 C -4,7 C 0,0 km/h (0 Bft) 100,00 %
16.12.2018 00:32 25,8 C -4,7 C -6,7 C 0,0 C 34 % 87 % 1023,8 hPa 0,0 l/m 0,0 km/h (0 Bft) N 0 0,000 mm 0 W/m -6,5 C -4,7 C 0,0 km/h (0 Bft) 95,65 %
16.12.2018 00:31 25,8 C -4,7 C -6,7 C 0,0 C 34 % 87 % 1023,9 hPa 0,0 l/m 0,0 km/h (0 Bft) N 0 0,000 mm 0 W/m -6,5 C -4,7 C 0,0 km/h (0 Bft) 95,65 %
16.12.2018 00:30 25,8 C -4,7 C -6,7 C 0,0 C 34 % 87 % 1023,8 hPa 0,0 l/m 0,0 km/h (0 Bft) N 0 0,000 mm 0 W/m -6,5 C -4,7 C 0,0 km/h (0 Bft) 91,30 %
16.12.2018 00:29 25,9 C -4,7 C -6,7 C 0,0 C 34 % 87 % 1023,9 hPa 0,0 l/m 0,0 km/h (0 Bft) N 0 0,000 mm 0 W/m -6,5 C -4,7 C 0,0 km/h (0 Bft) 100,00 %
16.12.2018 00:28 25,9 C -4,7 C -6,7 C 0,0 C 34 % 86 % 1023,9 hPa 0,0 l/m 0,0 km/h (0 Bft) N 0 0,000 mm 0 W/m -6,7 C -4,7 C 0,0 km/h (0 Bft) 95,65 %
16.12.2018 00:27 25,9 C -4,6 C -7,2 C 0,0 C 34 % 86 % 1023,9 hPa 0,0 l/m 0,0 km/h (0 Bft) N 0 0,000 mm 0 W/m -6,6 C -4,6 C 0,0 km/h (0 Bft) 95,65 %
16.12.2018 00:26 25,9 C -4,7 C -6,7 C 0,0 C 34 % 86 % 1023,9 hPa 0,0 l/m 0,0 km/h (0 Bft) N 0 0,000 mm 0 W/m -6,7 C -4,7 C 0,0 km/h (0 Bft) 86,96 %
16.12.2018 00:25 25,9 C -4,6 C -6,7 C 0,0 C 34 % 86 % 1023,9 hPa 0,0 l/m 0,0 km/h (0 Bft) N 0 0,000 mm 0 W/m -6,6 C -4,6 C 0,0 km/h (0 Bft) 95,65 %
16.12.2018 00:24 25,9 C -4,6 C -6,7 C 0,0 C 34 % 86 % 1024,0 hPa 0,0 l/m 0,0 km/h (0 Bft) N 0 0,000 mm 0 W/m -6,6 C -4,6 C 0,0 km/h (0 Bft) 100,00 %
16.12.2018 00:23 25,9 C -4,6 C -6,1 C 0,0 C 34 % 86 % 1024,0 hPa 0,0 l/m 0,0 km/h (0 Bft) N 0 0,000 mm 0 W/m -6,6 C -4,6 C 0,0 km/h (0 Bft) 95,65 %
16.12.2018 00:22 25,9 C -4,6 C -6,1 C 0,0 C 33 % 86 % 1024,0 hPa 0,0 l/m 0,0 km/h (0 Bft) N 0 0,000 mm 0 W/m -6,6 C -4,6 C 0,0 km/h (0 Bft) 100,00 %
16.12.2018 00:21 25,9 C -4,6 C -6,1 C 0,0 C 33 % 86 % 1023,9 hPa 0,0 l/m 0,0 km/h (0 Bft) N 0 0,000 mm 0 W/m -6,6 C -4,6 C 0,0 km/h (0 Bft) 91,30 %
16.12.2018 00:20 26,0 C -4,6 C -6,1 C 0,0 C 34 % 86 % 1024,0 hPa 0,0 l/m 0,0 km/h (0 Bft) N 0 0,000 mm 0 W/m -6,6 C -4,6 C 0,0 km/h (0 Bft) 95,65 %
16.12.2018 00:19 25,9 C -4,6 C -6,7 C 0,0 C 34 % 86 % 1024,0 hPa 0,0 l/m 0,0 km/h (0 Bft) N 0 0,000 mm 0 W/m -6,6 C -4,6 C 0,0 km/h (0 Bft) 100,00 %
16.12.2018 00:18 25,8 C -4,6 C -6,7 C 0,0 C 34 % 86 % 1023,9 hPa 0,0 l/m 0,0 km/h (0 Bft) N 0 0,000 mm 0 W/m -6,6 C -4,6 C 0,0 km/h (0 Bft) 100,00 %
16.12.2018 00:17 25,8 C -4,6 C -6,7 C 0,0 C 34 % 86 % 1024,0 hPa 0,0 l/m 0,0 km/h (0 Bft) N 0 0,000 mm 0 W/m -6,6 C -4,6 C 0,0 km/h (0 Bft) 100,00 %
16.12.2018 00:16 25,9 C -4,5 C -6,7 C 0,0 C 34 % 86 % 1023,9 hPa 0,0 l/m 0,0 km/h (0 Bft) N 0 0,000 mm 0 W/m -6,5 C -4,5 C 0,0 km/h (0 Bft) 91,30 %
16.12.2018 00:15 25,8 C -4,5 C -6,7 C 0,0 C 34 % 86 % 1024,0 hPa 0,0 l/m 0,0 km/h (0 Bft) N 0 0,000 mm 0 W/m -6,5 C -4,5 C 0,0 km/h (0 Bft) 100,00 %
16.12.2018 00:14 25,9 C -4,4 C -6,7 C 0,0 C 34 % 86 % 1024,0 hPa 0,0 l/m 0,0 km/h (0 Bft) N 0 0,000 mm 0 W/m -6,4 C -4,4 C 0,0 km/h (0 Bft) 100,00 %
16.12.2018 00:13 25,9 C -4,4 C -6,7 C 0,0 C 34 % 86 % 1023,9 hPa 0,0 l/m 0,0 km/h (0 Bft) N 0 0,000 mm 0 W/m -6,4 C -4,4 C 0,0 km/h (0 Bft) 100,00 %
16.12.2018 00:12 25,9 C -4,4 C -6,7 C 0,0 C 34 % 86 % 1024,0 hPa 0,0 l/m 0,0 km/h (0 Bft) N 0 0,000 mm 0 W/m -6,4 C -4,4 C 0,0 km/h (0 Bft) 100,00 %
16.12.2018 00:11 25,9 C -4,4 C -6,7 C 0,0 C 34 % 86 % 1024,0 hPa 0,0 l/m 0,0 km/h (0 Bft) N 0 0,000 mm 0 W/m -6,4 C -4,4 C 0,0 km/h (0 Bft) 95,65 %
16.12.2018 00:10 25,9 C -4,4 C -6,7 C 0,0 C 33 % 86 % 1024,0 hPa 0,0 l/m 0,0 km/h (0 Bft) N 0 0,000 mm 0 W/m -6,4 C -4,4 C 0,0 km/h (0 Bft) 100,00 %
16.12.2018 00:09 25,9 C -4,4 C -6,1 C 0,0 C 33 % 86 % 1024,0 hPa 0,0 l/m 0,0 km/h (0 Bft) N 0 0,000 mm 0 W/m -6,4 C -4,4 C 0,0 km/h (0 Bft) 100,00 %
16.12.2018 00:08 25,9 C -4,4 C -6,1 C 0,0 C 33 % 86 % 1024,0 hPa 0,0 l/m 0,0 km/h (0 Bft) N 0 0,000 mm 0 W/m -6,4 C -4,4 C 0,0 km/h (0 Bft) 95,65 %
16.12.2018 00:07 25,9 C -4,4 C -6,1 C 0,0 C 33 % 86 % 1024,0 hPa 0,0 l/m 0,0 km/h (0 Bft) N 0 0,000 mm 0 W/m -6,4 C -4,4 C 0,0 km/h (0 Bft) 100,00 %
16.12.2018 00:06 25,9 C -4,4 C -6,1 C 0,0 C 33 % 86 % 1024,0 hPa 0,0 l/m 0,0 km/h (0 Bft) N 0 0,000 mm 0 W/m -6,4 C -4,4 C 0,0 km/h (0 Bft) 95,65 %
16.12.2018 00:05 25,9 C -4,3 C -6,1 C 0,0 C 33 % 86 % 1024,0 hPa 0,0 l/m 0,0 km/h (0 Bft) N 0 0,000 mm 0 W/m -6,3 C -4,3 C 0,0 km/h (0 Bft) 100,00 %
16.12.2018 00:04 26,0 C -4,3 C -6,1 C 0,0 C 33 % 86 % 1024,0 hPa 0,0 l/m 0,0 km/h (0 Bft) N 0 0,000 mm 0 W/m -6,3 C -4,3 C 0,0 km/h (0 Bft) 100,00 %
16.12.2018 00:03 25,9 C -4,3 C -6,1 C 0,0 C 33 % 86 % 1024,0 hPa 0,0 l/m 0,0 km/h (0 Bft) N 0 0,000 mm 0 W/m -6,3 C -4,3 C 0,0 km/h (0 Bft) 91,30 %
16.12.2018 00:02 25,9 C -4,3 C -6,1 C 0,0 C 33 % 86 % 1024,0 hPa 0,0 l/m 0,0 km/h (0 Bft) N 0 0,000 mm 0 W/m -6,3 C -4,3 C 0,0 km/h (0 Bft) 100,00 %
16.12.2018 00:01 25,9 C -4,3 C -6,1 C 0,0 C 33 % 86 % 1024,0 hPa 0,0 l/m 0,0 km/h (0 Bft) N 0 0,000 mm 0 W/m -6,3 C -4,3 C 0,0 km/h (0 Bft) 86,96 %
16.12.2018 00:00 25,9 C -4,3 C -6,1 C 0,0 C 33 % 86 % 1024,0 hPa 0,0 l/m 0,0 km/h (0 Bft) N 0 0,000 mm 0 W/m -6,3 C -4,3 C 0,0 km/h (0 Bft) 100,00 %
_ Min-Zeit 07:16 05:49 04:36 00:00 06:52 11:24 10:53 - 00:00 - - - - 05:23 07:43 00:00 07:56
Minimum _ 23,3 C -7,7 C -9,4 C 0,0 C 22 % 82 % 1019,0 hPa - 0,0 km/h (0 Bft) - - - - -9,2 C -8,1 C 0,0 km/h (0 Bft) 17,39 %
_ Max-Zeit 00:04 10:51 10:37 00:00 06:08 08:37 00:00 00:00 10:57 - - 10:00 10:32 10:38 10:54 11:16 00:00
Maximum _ 26,0 C -2,4 C 1,7 C 0,0 C 35 % 91 % 1024,0 hPa 0,0 l/m 11,3 km/h
S-SO (2 Bft)
- - 0,051 mm 353 W/m -4,6 C -2,4 C 17,7 km/h
S (3 Bft)
100,00 %
Durchschnitt _ 25,5 C -5,7 C -6,3 C 0,0 C 33 % 88 % 1021,2 hPa #0,0 l/m 1,7 km/h (1 Bft) O - #0,127 mm 127 W/m -7,4 C -5,8 C 2,6 km/h (1 Bft) 98,02 %